[[{"header":{"parameterUnit":"m.s-1","parameterCategory":1,"la1":30.6,"la2":29.2853,"lo1":-89.7004,"lo2":-87.6739,"dy":0.0162,"dx":0.0183,"nx":112,"ny":82,"refTime":"2024-04-27T06:00:00:Z","depth":0,"parameterNumber":2,"parameterNumberName":"U-component_of_WINDS"},"data":[0.0,0.0,0.0,0.0,0.0,0.0,0.0,0.0,0.0,0.0,0.0,0.0,0.0,0.0,0.0,0.0,0.0,0.0,0.0,0.0,0.0,0.0,0.0,0.0,0.0,0.0,0.0,0.0,0.0,0.0,0.0,0.0,0.0,0.0,0.0,0.0,0.0,0.0,0.0,0.0,0.0,0.0,0.0,0.0,0.0,0.0,0.0,0.0,0.0,0.0,0.0,0.0,0.0,0.0,0.0,0.0,0.0,0.0,0.0,0.0,0.0,0.0,0.0,0.0,0.0,0.0,0.0,0.0,0.0,0.0,0.0,0.0,0.0,0.0,0.0,0.0,0.0,0.0,0.0,0.0,0.0,0.0,0.0,0.0,0.0,0.0,0.0,0.0,0.0,0.0,-2.4834,-2.4685,-2.4685,-2.4648,-2.45,-2.45,-2.4447,-2.4266,0.0,0.0,0.0,0.0,0.0,0.0,0.0,0.0,0.0,0.0,0.0,0.0,0.0,0.0,0.0,0.0,0.0,0.0,0.0,0.0,0.0,0.0,0.0,0.0,0.0,0.0,0.0,0.0,0.0,0.0,0.0,0.0,0.0,0.0,0.0,0.0,0.0,0.0,0.0,0.0,0.0,0.0,0.0,0.0,0.0,0.0,0.0,0.0,0.0,0.0,0.0,0.0,0.0,0.0,0.0,0.0,0.0,0.0,0.0,0.0,0.0,0.0,0.0,0.0,0.0,0.0,0.0,0.0,0.0,0.0,0.0,0.0,0.0,0.0,0.0,0.0,0.0,0.0,0.0,0.0,0.0,0.0,0.0,0.0,0.0,0.0,0.0,0.0,0.0,0.0,0.0,0.0,0.0,0.0,0.0,0.0,0.0,0.0,0.0,0.0,0.0,0.0,0.0,0.0,-2.6275,-2.5578,-2.554,-2.5243,-2.4574,-2.45,-2.4491,-2.4465,0.0,0.0,0.0,0.0,0.0,0.0,0.0,0.0,0.0,0.0,0.0,0.0,0.0,0.0,0.0,0.0,0.0,0.0,0.0,0.0,0.0,0.0,0.0,0.0,0.0,0.0,0.0,0.0,0.0,0.0,0.0,0.0,0.0,0.0,0.0,0.0,0.0,0.0,0.0,0.0,0.0,0.0,0.0,0.0,0.0,0.0,0.0,0.0,0.0,0.0,0.0,0.0,0.0,0.0,0.0,0.0,0.0,0.0,0.0,0.0,0.0,0.0,0.0,0.0,0.0,0.0,0.0,0.0,0.0,0.0,0.0,0.0,0.0,0.0,0.0,0.0,0.0,0.0,0.0,0.0,0.0,0.0,0.0,0.0,0.0,0.0,0.0,0.0,0.0,0.0,0.0,0.0,0.0,0.0,0.0,0.0,0.0,0.0,0.0,0.0,0.0,0.0,0.0,-2.6684,-2.6758,-2.6386,-2.6349,-2.6015,-2.5206,-2.5133,-2.4874,-2.4376,-2.4105,0.0,0.0,0.0,0.0,0.0,0.0,0.0,0.0,0.0,0.0,0.0,0.0,0.0,0.0,0.0,0.0,0.0,0.0,0.0,0.0,0.0,0.0,0.0,0.0,0.0,0.0,0.0,0.0,0.0,0.0,0.0,0.0,0.0,0.0,0.0,0.0,0.0,0.0,0.0,0.0,0.0,0.0,0.0,0.0,0.0,0.0,0.0,0.0,0.0,0.0,0.0,0.0,0.0,0.0,0.0,0.0,0.0,0.0,0.0,0.0,0.0,0.0,0.0,0.0,0.0,0.0,0.0,0.0,0.0,0.0,0.0,0.0,0.0,0.0,0.0,0.0,0.0,0.0,0.0,0.0,0.0,0.0,0.0,0.0,0.0,0.0,0.0,0.0,0.0,0.0,0.0,0.0,0.0,0.0,0.0,0.0,0.0,0.0,0.0,0.0,0.0,0.0,-2.7501,-2.739,-2.7204,-2.7167,-2.6869,-2.6061,-2.594,-2.5504,-2.4617,-2.4331,0.0,0.0,0.0,0.0,0.0,0.0,0.0,0.0,0.0,0.0,0.0,0.0,0.0,0.0,0.0,0.0,0.0,0.0,0.0,0.0,0.0,0.0,0.0,0.0,0.0,0.0,0.0,0.0,0.0,0.0,0.0,0.0,0.0,0.0,0.0,0.0,0.0,0.0,0.0,0.0,0.0,0.0,0.0,0.0,0.0,0.0,0.0,0.0,0.0,0.0,0.0,0.0,0.0,0.0,0.0,0.0,0.0,0.0,0.0,0.0,0.0,0.0,0.0,0.0,0.0,0.0,0.0,0.0,0.0,0.0,0.0,0.0,0.0,0.0,0.0,0.0,0.0,0.0,0.0,0.0,0.0,0.0,0.0,0.0,0.0,0.0,0.0,0.0,0.0,0.0,0.0,0.0,0.0,0.0,0.0,0.0,0.0,0.0,0.0,0.0,0.0,0.0,-2.9211,-2.8913,-2.8096,-2.8021,-2.7687,-2.6869,-2.6795,-2.6451,-2.5634,-2.5284,0.0,0.0,0.0,0.0,0.0,0.0,0.0,0.0,0.0,0.0,0.0,0.0,0.0,0.0,0.0,0.0,0.0,0.0,0.0,0.0,0.0,0.0,0.0,0.0,0.0,0.0,0.0,0.0,0.0,0.0,0.0,0.0,0.0,0.0,0.0,0.0,0.0,0.0,0.0,0.0,0.0,0.0,0.0,0.0,0.0,0.0,0.0,0.0,0.0,0.0,0.0,0.0,0.0,0.0,0.0,0.0,0.0,0.0,0.0,0.0,0.0,0.0,0.0,0.0,0.0,0.0,0.0,0.0,0.0,0.0,0.0,0.0,0.0,0.0,0.0,0.0,0.0,0.0,0.0,0.0,0.0,0.0,0.0,0.0,0.0,0.0,0.0,0.0,0.0,0.0,0.0,0.0,0.0,0.0,0.0,0.0,0.0,0.0,0.0,0.0,0.0,0.0,-2.9396,-2.9248,0.0,-2.8913,-2.8579,-2.7724,-2.7657,-2.7294,-2.6441,0.0,0.0,0.0,0.0,0.0,0.0,0.0,0.0,0.0,0.0,0.0,0.0,0.0,0.0,0.0,0.0,0.0,0.0,0.0,0.0,0.0,0.0,0.0,0.0,0.0,0.0,0.0,0.0,0.0,0.0,0.0,0.0,0.0,0.0,0.0,0.0,0.0,0.0,0.0,0.0,0.0,0.0,0.0,0.0,0.0,0.0,0.0,0.0,0.0,0.0,0.0,0.0,0.0,0.0,0.0,0.0,0.0,0.0,0.0,0.0,0.0,0.0,0.0,0.0,0.0,0.0,0.0,0.0,0.0,0.0,0.0,0.0,0.0,0.0,0.0,0.0,0.0,0.0,0.0,0.0,0.0,0.0,0.0,0.0,0.0,0.0,0.0,0.0,0.0,0.0,0.0,0.0,0.0,0.0,0.0,0.0,0.0,0.0,0.0,0.0,0.0,0.0,-2.9396,-2.9396,-2.9396,0.0,-2.9396,-2.9136,-2.8511,-2.847,-2.8106,-2.7224,0.0,0.0,0.0,0.0,0.0,0.0,0.0,0.0,0.0,0.0,0.0,0.0,0.0,0.0,0.0,0.0,0.0,0.0,0.0,0.0,0.0,0.0,0.0,0.0,0.0,0.0,0.0,0.0,0.0,0.0,0.0,0.0,0.0,0.0,0.0,0.0,0.0,0.0,0.0,0.0,0.0,0.0,0.0,0.0,0.0,0.0,0.0,0.0,0.0,0.0,0.0,0.0,0.0,0.0,0.0,0.0,0.0,0.0,0.0,0.0,0.0,0.0,0.0,0.0,0.0,0.0,0.0,0.0,0.0,0.0,0.0,0.0,0.0,0.0,0.0,0.0,0.0,0.0,0.0,0.0,0.0,0.0,0.0,0.0,0.0,0.0,0.0,0.0,0.0,0.0,0.0,0.0,0.0,0.0,0.0,0.0,0.0,0.0,0.0,0.0,0.0,0.0,-2.9396,-2.9396,-2.9396,-2.9396,-2.9396,-2.9376,-2.9312,-2.9302,-2.8936,0.0,0.0,0.0,0.0,0.0,0.0,0.0,0.0,0.0,0.0,0.0,0.0,0.0,0.0,0.0,0.0,0.0,0.0,0.0,0.0,0.0,0.0,0.0,0.0,0.0,0.0,0.0,0.0,0.0,0.0,0.0,0.0,0.0,0.0,0.0,0.0,0.0,0.0,0.0,0.0,0.0,0.0,0.0,0.0,0.0,0.0,0.0,0.0,0.0,0.0,0.0,0.0,0.0,0.0,0.0,0.0,0.0,0.0,0.0,0.0,0.0,0.0,0.0,0.0,0.0,0.0,0.0,0.0,0.0,0.0,0.0,0.0,0.0,0.0,0.0,0.0,0.0,0.0,0.0,0.0,0.0,0.0,0.0,0.0,0.0,0.0,0.0,0.0,0.0,0.0,0.0,0.0,0.0,0.0,0.0,0.0,0.0,0.0,0.0,0.0,0.0,0.0,0.0,-2.9396,-2.9396,-2.9396,-2.9396,-2.9396,-2.9396,-2.9376,-2.9334,-2.918,-2.8936,0.0,0.0,0.0,0.0,0.0,0.0,0.0,0.0,0.0,0.0,0.0,0.0,0.0,0.0,0.0,0.0,0.0,0.0,0.0,0.0,0.0,0.0,0.0,0.0,0.0,0.0,0.0,0.0,0.0,0.0,0.0,0.0,0.0,0.0,0.0,0.0,0.0,0.0,0.0,0.0,0.0,0.0,0.0,0.0,0.0,0.0,0.0,0.0,0.0,0.0,0.0,0.0,0.0,0.0,0.0,0.0,0.0,0.0,0.0,0.0,0.0,0.0,0.0,0.0,0.0,0.0,0.0,0.0,0.0,0.0,0.0,0.0,0.0,0.0,0.0,0.0,0.0,0.0,0.0,0.0,0.0,0.0,0.0,0.0,0.0,0.0,0.0,0.0,0.0,0.0,0.0,0.0,0.0,0.0,0.0,0.0,0.0,0.0,0.0,0.0,0.0,0.0,-2.9396,-2.9396,-2.9396,-2.9396,-2.9396,-2.9386,-2.9365,-2.9323,-2.928,-2.9237,0.0,0.0,0.0,0.0,0.0,0.0,0.0,0.0,0.0,0.0,0.0,0.0,0.0,0.0,0.0,0.0,0.0,0.0,0.0,0.0,0.0,0.0,0.0,0.0,0.0,0.0,0.0,0.0,0.0,0.0,0.0,0.0,0.0,0.0,0.0,0.0,0.0,0.0,0.0,0.0,0.0,0.0,0.0,0.0,0.0,0.0,0.0,0.0,0.0,0.0,0.0,0.0,0.0,0.0,0.0,0.0,0.0,0.0,0.0,0.0,0.0,0.0,0.0,0.0,0.0,0.0,0.0,0.0,0.0,0.0,0.0,0.0,0.0,0.0,0.0,0.0,0.0,0.0,0.0,0.0,0.0,0.0,0.0,0.0,0.0,0.0,0.0,0.0,0.0,0.0,0.0,0.0,0.0,0.0,0.0,0.0,0.0,0.0,0.0,0.0,0.0,0.0,-2.9508,-2.9423,-2.9386,-2.9386,-2.9386,-2.9365,-2.9302,-2.9291,-2.9248,-2.9112,0.0,0.0,0.0,0.0,0.0,0.0,0.0,0.0,0.0,0.0,0.0,0.0,0.0,0.0,0.0,0.0,0.0,0.0,0.0,0.0,0.0,0.0,0.0,0.0,0.0,0.0,0.0,0.0,0.0,0.0,0.0,0.0,0.0,0.0,0.0,0.0,0.0,0.0,0.0,0.0,0.0,0.0,0.0,0.0,0.0,0.0,0.0,0.0,0.0,0.0,0.0,0.0,0.0,0.0,0.0,0.0,0.0,0.0,0.0,0.0,-3.3758,0.0,0.0,0.0,0.0,0.0,0.0,0.0,0.0,0.0,0.0,0.0,0.0,0.0,0.0,0.0,0.0,0.0,0.0,0.0,0.0,0.0,0.0,0.0,0.0,0.0,0.0,0.0,0.0,0.0,0.0,0.0,0.0,0.0,0.0,0.0,0.0,0.0,0.0,0.0,0.0,0.0,-3.0287,-2.9661,-2.9232,-2.9232,-2.9232,-2.9222,-2.9211,-2.9156,-2.9145,-2.9167,-2.9067,0.0,0.0,0.0,0.0,0.0,0.0,0.0,0.0,0.0,0.0,0.0,0.0,0.0,0.0,0.0,0.0,0.0,0.0,0.0,0.0,0.0,0.0,0.0,0.0,0.0,0.0,0.0,0.0,0.0,0.0,0.0,0.0,0.0,0.0,0.0,0.0,0.0,0.0,0.0,0.0,0.0,0.0,0.0,0.0,0.0,0.0,0.0,0.0,0.0,0.0,0.0,0.0,0.0,0.0,0.0,0.0,0.0,0.0,0.0,0.0,-3.4055,0.0,0.0,0.0,0.0,0.0,0.0,0.0,0.0,0.0,0.0,0.0,0.0,0.0,0.0,0.0,0.0,0.0,0.0,0.0,0.0,0.0,0.0,0.0,0.0,0.0,0.0,0.0,0.0,0.0,0.0,0.0,0.0,0.0,0.0,0.0,0.0,0.0,0.0,0.0,0.0,-3.1125,-3.0376,-2.9824,-2.9824,-2.947,-2.92,-2.92,-2.9156,-2.9145,-2.9145,-2.9078,0.0,0.0,0.0,0.0,0.0,0.0,0.0,0.0,0.0,0.0,0.0,0.0,0.0,0.0,0.0,0.0,0.0,0.0,0.0,0.0,0.0,0.0,0.0,0.0,0.0,0.0,0.0,0.0,0.0,0.0,0.0,0.0,0.0,0.0,0.0,0.0,0.0,0.0,0.0,0.0,0.0,0.0,0.0,0.0,0.0,0.0,0.0,0.0,0.0,0.0,0.0,0.0,0.0,-3.6389,-3.6431,-3.6487,-3.6487,-3.6487,-3.6413,-3.5011,-3.4397,-3.4423,0.0,0.0,0.0,0.0,0.0,0.0,0.0,0.0,0.0,0.0,0.0,0.0,0.0,0.0,0.0,0.0,0.0,0.0,0.0,0.0,0.0,0.0,0.0,0.0,0.0,-3.2164,-3.221,0.0,0.0,0.0,0.0,0.0,0.0,0.0,0.0,0.0,0.0,0.0,0.0,-3.1975,-3.1202,-3.0664,-3.0676,-2.9891,-2.9377,-2.9377,-2.923,-2.9134,-2.9078,-2.9078,-2.9044,0.0,0.0,0.0,0.0,0.0,0.0,0.0,0.0,0.0,0.0,0.0,0.0,0.0,0.0,0.0,0.0,0.0,0.0,0.0,0.0,0.0,0.0,0.0,0.0,0.0,0.0,0.0,0.0,0.0,0.0,0.0,0.0,-3.3096,-3.2827,0.0,0.0,0.0,0.0,0.0,0.0,0.0,0.0,0.0,0.0,0.0,0.0,0.0,-3.6009,-3.6119,-3.6119,-3.6193,-3.6317,-3.6317,-3.6332,-3.6332,-3.6332,-3.6332,-3.6295,-3.6074,0.0,-3.6108,-3.5289,0.0,0.0,0.0,0.0,0.0,0.0,0.0,0.0,0.0,0.0,0.0,0.0,0.0,0.0,0.0,0.0,0.0,0.0,0.0,0.0,0.0,0.0,-3.3857,-3.3734,-3.3796,-3.3857,0.0,-3.2685,-3.1801,-3.1812,-3.1801,0.0,0.0,0.0,0.0,0.0,0.0,0.0,-3.2759,-3.1875,-3.1311,-3.1372,-3.0575,-3.0087,-3.0087,-2.9425,-2.901,-2.8998,-2.8998,-2.8998,-2.8987,-2.8842,0.0,0.0,0.0,0.0,0.0,0.0,0.0,0.0,0.0,0.0,0.0,0.0,0.0,0.0,0.0,0.0,0.0,0.0,0.0,0.0,0.0,0.0,0.0,0.0,0.0,0.0,0.0,0.0,0.0,-3.3126,-3.3465,-3.3981,-3.4186,-3.4397,0.0,0.0,0.0,0.0,0.0,0.0,0.0,0.0,0.0,-3.6303,-3.6303,-3.6523,-3.6978,-3.6978,-3.7184,-3.7661,-3.7661,-3.7661,-3.7661,-3.7661,-3.7661,-3.7661,-3.7661,-3.7691,-3.764,-3.6323,-3.6062,-3.6444,0.0,0.0,0.0,0.0,-3.5353,-3.5353,-3.5326,-3.5298,0.0,0.0,0.0,0.0,0.0,0.0,0.0,0.0,0.0,0.0,0.0,0.0,0.0,-3.3991,-3.4042,-3.4055,-3.3992,-3.3475,-3.3031,0.0,-3.3031,-3.3043,-3.3079,0.0,0.0,0.0,0.0,0.0,-3.35,-3.2699,-3.2157,-3.2182,-3.1385,-3.0687,-3.0246,-2.9879,-2.9464,-2.9023,-2.8987,-2.8987,-2.8987,-2.8987,-2.8794,0.0,0.0,0.0,0.0,0.0,0.0,0.0,0.0,0.0,0.0,0.0,0.0,0.0,0.0,0.0,0.0,0.0,0.0,0.0,0.0,0.0,0.0,0.0,0.0,0.0,0.0,0.0,0.0,-3.4011,-3.4397,-3.5233,-3.5334,-3.5591,0.0,0.0,0.0,0.0,0.0,0.0,-3.6927,-3.6927,-3.6927,-3.6927,-3.711,-3.7514,-3.8117,-3.8337,-3.8726,-3.9313,-3.9313,-3.9313,-3.9313,-3.9313,-3.9313,-3.9313,-3.9313,-3.9313,-3.9166,-3.7367,-3.6793,-3.704,-3.6522,-3.6485,-3.6689,-3.6434,-3.6374,-3.6417,-3.6389,-3.6389,-3.6278,-3.5667,0.0,-3.5238,-3.4683,0.0,0.0,0.0,0.0,-3.4605,-3.4552,-3.4592,-3.4631,-3.4579,-3.4458,-3.4349,-3.4299,-3.4151,-3.3979,0.0,-3.3979,-3.4042,-3.4092,0.0,0.0,0.0,0.0,-3.4004,-3.4016,-3.3386,-3.3004,-3.3016,-3.223,-3.1458,-3.087,-3.043,-2.9953,-2.9354,-2.9097,-2.8987,-2.8987,-2.8987,-2.8987,-2.8987,0.0,0.0,0.0,0.0,0.0,0.0,0.0,0.0,0.0,0.0,0.0,0.0,0.0,0.0,0.0,0.0,0.0,0.0,0.0,0.0,0.0,0.0,0.0,0.0,0.0,0.0,0.0,0.0,0.0,-3.6229,-3.6229,0.0,0.0,0.0,0.0,-3.7456,-3.8138,-3.8579,-3.8579,-3.8579,-3.8579,-3.8579,-3.9313,-3.9717,-3.9769,-4.0561,-4.0948,-4.0985,-4.0985,-4.0985,-4.0985,-4.0985,-4.0985,-4.0985,-4.0985,-4.0985,-4.0802,-3.841,-3.7941,-3.8531,-3.7006,-3.6901,-3.7548,-3.6689,-3.6417,-3.6403,-3.6332,-3.6317,-3.6317,-3.6281,-3.6229,-3.6229,-3.6193,-3.617,0.0,0.0,-3.6213,-3.627,-3.627,-3.6311,-3.6367,-3.6367,-3.5776,-3.5209,-3.5155,-3.4531,-3.3979,0.0,-3.3979,-3.3979,-3.3979,0.0,-3.3979,-3.3979,-3.3965,-3.3939,-3.3979,-3.3863,-3.376,-3.3839,-3.3075,-3.2509,-3.2472,-3.1091,-3.0173,-3.0136,-2.9427,-2.8987,-2.8987,-2.8987,-2.8987,-2.8987,-2.8938,0.0,0.0,0.0,0.0,0.0,0.0,0.0,0.0,0.0,0.0,0.0,0.0,0.0,0.0,0.0,0.0,0.0,0.0,0.0,0.0,0.0,0.0,0.0,0.0,0.0,0.0,0.0,0.0,-3.7015,-3.7088,0.0,-3.7808,-3.8102,-3.8285,-3.8285,-3.9019,-3.946,-3.946,-3.9974,-4.0251,-4.0251,-4.0524,-4.0671,-4.0671,-4.0948,-4.1095,-4.1095,-4.1095,-4.1095,-4.1095,-4.1095,-4.1095,-4.1095,-4.1095,-4.1095,-4.1022,-4.0194,-3.9696,-3.9433,-3.8882,-3.8529,-3.8324,-3.8,-3.7919,-3.7927,-3.7897,-3.7897,-3.7809,-3.725,-3.6721,-3.6303,-3.6303,-3.6303,-3.6303,-3.6303,-3.6332,-3.6346,-3.6346,-3.636,-3.6389,-3.6389,-3.6168,-3.5933,-3.5919,-3.5676,-3.5469,-3.5469,-3.4649,-3.3952,-3.3952,-3.3913,-3.39,-3.3952,-3.3887,-3.386,-3.3873,-3.3834,-3.382,-3.3847,-3.3563,-3.317,-3.2619,-3.2069,-3.1311,-3.0283,-2.9953,-2.9537,-2.9023,-2.8987,-2.8987,-2.8987,-2.8987,-2.8877,0.0,0.0,0.0,0.0,0.0,0.0,0.0,0.0,0.0,0.0,0.0,0.0,0.0,0.0,0.0,0.0,0.0,0.0,0.0,0.0,0.0,0.0,0.0,0.0,0.0,0.0,-3.7294,-3.7845,-3.7896,-3.8212,-3.9019,-3.9093,-3.9239,-3.9481,-4.001,-4.0304,-4.0304,-4.0802,-4.1205,-4.1515,-4.1772,-4.2029,-4.2306,-4.2563,-4.2727,-4.2727,-4.2727,-4.2727,-4.2727,-4.2727,-4.2727,-4.2727,-4.2727,-4.258,-4.2306,-4.2306,-4.1699,-4.0671,-4.0414,-3.9974,-3.9533,-3.9533,-3.9381,-3.9148,-3.8854,-3.878,-3.8655,-3.8095,-3.7551,-3.711,-3.711,-3.711,-3.711,-3.711,-3.711,-3.711,-3.711,-3.711,-3.7125,-3.7154,-3.6919,-3.6721,-3.675,-3.6515,-3.6303,-3.6303,-3.5207,-3.4278,-3.4278,-3.4017,-3.382,-3.3873,-3.3834,-3.3807,-3.3807,-3.3807,-3.3807,-3.3807,-3.3807,-3.3587,-3.306,-3.2766,-3.2142,-3.1091,-3.0503,-2.9953,-2.9427,-2.9133,-2.8987,-2.8987,-2.8987,-2.8998,-2.9021,0.0,0.0,0.0,0.0,0.0,0.0,0.0,0.0,0.0,0.0,0.0,0.0,0.0,0.0,0.0,0.0,0.0,0.0,0.0,0.0,0.0,0.0,0.0,-3.8627,-3.8673,-3.8726,-3.8726,-3.8726,-3.9056,-3.9863,-3.9937,-4.0267,-4.1022,-4.1132,-4.1168,-4.1168,-4.1205,-4.1625,-4.2396,-4.3167,-4.3938,-4.4728,-4.5516,-4.5883,-4.5883,-4.5883,-4.5883,-4.5883,-4.5883,-4.5883,-4.5883,-4.5883,-4.5443,-4.4745,-4.4745,-4.3828,-4.2323,-4.1462,-4.1132,-4.1095,-4.1095,-4.0598,-3.9827,-3.9056,-3.8762,-3.8762,-3.8762,-3.8762,-3.8762,-3.8762,-3.8726,-3.8726,-3.8726,-3.8689,-3.8689,-3.8689,-3.8689,-3.8704,-3.8758,-3.814,-3.7544,-3.7617,-3.6985,-3.6376,-3.6376,-3.5665,-3.5078,-3.5041,-3.438,-3.3844,-3.3844,-3.3807,0.0,-3.3807,-3.3807,-3.3807,-3.3807,-3.3807,-3.3807,-3.3807,-3.3109,-3.2619,-3.2583,-3.1127,-3.0246,-3.021,-2.9464,-2.9023,-2.8987,-2.8987,-2.9021,-2.9089,0.0,0.0,0.0,0.0,0.0,0.0,0.0,0.0,0.0,0.0,0.0,0.0,0.0,0.0,0.0,0.0,0.0,0.0,0.0,0.0,0.0,-3.8152,-3.8465,-3.8303,-3.8533,-3.8909,-3.9496,-3.957,-3.99,-4.0708,-4.0781,-4.0838,-4.1058,-4.2176,-4.2837,-4.2837,-4.3938,-4.4672,-4.4892,-4.5112,-4.5333,-4.5553,-4.5773,-4.5883,-4.5883,-4.5883,-4.5883,-4.5883,-4.5883,-4.5883,-4.5883,-4.5883,-4.5773,-4.5553,-4.5553,-4.5296,-4.4709,-4.2727,-4.1625,-4.1095,-4.1095,-4.0948,-4.0744,-4.0508,-4.0435,-4.0435,-4.0435,-4.0435,-4.0325,-3.9753,-3.957,-3.946,-3.8872,-3.8689,-3.8689,-3.8689,-3.8689,-3.8689,-3.8719,-3.8557,-3.8358,-3.8389,-3.8227,-3.8028,-3.8028,-3.7367,-3.6633,-3.6046,-3.5224,-3.4674,-3.4674,-3.416,0.0,-3.3807,-3.3807,-3.3807,-3.3807,-3.3807,-3.3807,-3.3807,-3.3587,-3.322,-3.2619,-3.2179,-3.1408,-3.0246,-2.9989,-2.961,-2.9023,-2.8987,-2.9021,0.0,0.0,0.0,0.0,0.0,0.0,0.0,0.0,0.0,0.0,0.0,0.0,0.0,0.0,0.0,0.0,0.0,0.0,0.0,0.0,0.0,0.0,-3.8656,-3.914,-3.8911,-3.904,-3.9496,-4.0304,-4.0414,-4.0708,-4.1499,-4.1919,-4.2249,-4.2563,-4.3791,-4.4488,-4.4488,-4.5369,-4.6067,-4.6397,-4.6397,-4.6581,-4.6911,-4.6911,-4.6911,-4.6911,-4.6911,-4.6911,-4.6911,-4.6911,-4.6911,0.0,-4.6911,-4.6728,-4.6397,-4.6397,-4.6214,0.0,0.0,0.0,0.0,0.0,-4.1609,-4.1535,-4.1205,-4.1095,-4.1095,-4.1095,-4.1095,-4.1022,-4.0561,-4.0414,-4.0304,-3.9863,-3.9701,-3.9701,-3.9701,-3.9701,-3.9643,-3.9276,-3.9203,-3.9129,-3.8762,-3.8689,-3.8689,-3.8689,0.0,0.0,-3.7404,-3.634,-3.5555,-3.5555,-3.4821,-3.4307,-3.4307,-3.4027,-3.3807,-3.3807,-3.3807,-3.3807,-3.3807,-3.3807,0.0,0.0,0.0,-3.1885,-3.0283,-3.021,0.0,0.0,0.0,-2.901,-2.9044,0.0,0.0,0.0,-2.7495,-2.7211,0.0,0.0,0.0,0.0,0.0,0.0,0.0,0.0,0.0,0.0,0.0,0.0,0.0,0.0,0.0,0.0,-3.9268,-4.0084,-4.0157,-4.023,-4.0524,-4.1168,-4.1315,-4.1682,-4.2506,-4.3277,-4.4048,-4.4782,-4.559,-4.603,-4.603,0.0,0.0,0.0,0.0,-4.77,-4.8453,-4.8526,-4.86,-4.86,-4.86,-4.8526,-4.8453,-4.8453,-4.8379,-4.8306,-4.8306,-4.7902,-4.7223,-4.7223,-4.6819,-4.614,-4.5957,-4.5443,-4.4672,-4.324,-4.2653,-4.247,-4.1756,0.0,0.0,-4.1352,-4.1352,-4.1352,-4.1242,-4.1242,-4.1205,-4.1132,-4.1095,-4.1095,-4.1095,-4.1095,-4.0912,-4.0194,-4.0047,-3.9827,-3.9129,-3.8909,-3.8836,-3.8836,-3.8762,-3.8689,-3.8689,-3.7441,-3.645,-3.645,-3.5701,-3.5114,-3.5004,-3.438,-3.3917,-3.3807,0.0,0.0,-3.3807,-3.3807,-3.3807,-3.3807,-3.3023,-3.1959,-3.054,-3.032,-2.9867,-2.9133,-2.906,-2.8987,-2.8987,-2.8987,-2.9021,-2.9078,-2.8342,-2.808,0.0,0.0,0.0,0.0,0.0,0.0,0.0,0.0,0.0,0.0,0.0,0.0,0.0,0.0,0.0,-3.9447,-4.0292,-4.1111,-4.1735,-4.2396,-4.2616,-4.2139,-4.2653,-4.3351,-4.4158,-4.4966,-4.548,-4.5663,-4.6434,-4.6856,-4.6856,-4.7498,0.0,-4.8086,-4.8746,-4.9206,-4.9353,-4.9994,-5.0325,-5.0325,0.0,0.0,-4.9353,-4.9353,-4.8967,-4.8306,-4.8306,-4.8233,-4.8086,-4.8086,-4.7976,-4.7719,-4.6397,-4.581,-4.5626,-4.5333,-4.4782,-4.4214,-4.4067,-4.3571,-4.302,-4.302,-4.302,-4.291,-4.2249,-4.2066,0.0,-4.1279,-4.1095,-4.1095,-4.1095,-4.1095,-4.1058,-4.0912,-4.0891,-4.0838,-4.0655,-4.012,-3.968,-3.968,-3.9129,-3.8689,-3.8689,-3.7881,-3.7272,-3.7272,-3.656,-3.5789,-3.5078,-3.4857,-3.4527,-3.388,-3.3807,-3.3807,-3.3807,-3.3807,-3.3807,-3.3807,-3.3023,-3.2472,-3.2142,-3.0907,-3.0136,-2.9989,-2.9317,-2.8987,-2.8987,-2.8987,-2.9023,-2.901,-2.892,-2.8902,0.0,0.0,0.0,0.0,0.0,0.0,0.0,0.0,0.0,0.0,0.0,-3.7421,-3.8002,0.0,-3.9858,-4.0406,-4.1185,-4.1992,-4.28,-4.3571,-4.3938,-4.3571,-4.4195,-4.4856,-4.5259,-4.603,-4.6507,-4.6507,-4.7259,-4.7902,-4.8343,-4.871,-4.915,-4.9554,-4.9958,-5.0178,-5.0178,-5.0618,-5.0802,-5.0802,-5.0802,-5.0582,-5.0178,-5.0178,-4.9958,-4.9517,-4.9114,-4.893,-4.893,-4.8489,-4.8306,-4.8233,-4.7425,-4.6874,-4.6471,-4.6067,-4.5663,-4.5296,-4.5296,-4.5039,-4.4635,-4.4232,-4.4085,-4.3938,-4.313,-4.291,-4.28,-4.2396,-4.2286,-4.2286,-4.2286,-4.2286,-4.2213,-4.1809,-4.1699,-4.1589,-4.1168,-4.0765,-4.0487,-4.0487,-3.9863,-3.9313,-3.9313,-3.8615,-3.8102,-3.8102,-3.7419,-3.6743,-3.6303,-3.5518,-3.4857,-3.4454,-3.4027,-3.3807,-3.3807,-3.3807,-3.3807,-3.3807,-3.344,-3.3023,-3.2619,-3.1812,-3.1201,-3.0797,-3.0393,-2.9989,-2.961,-2.961,-2.9414,-2.9033,-2.9033,-2.9089,0.0,0.0,0.0,0.0,0.0,0.0,0.0,-3.6762,-3.6899,-3.738,-3.7827,-3.835,-3.9084,-3.9986,-4.0835,-4.1486,-4.2249,-4.3057,-4.3828,-4.4672,-4.5168,-4.5168,-4.5736,-4.614,-4.614,-4.7003,-4.759,-4.759,-4.8343,-4.9077,-4.9794,-4.9831,-5.0105,-5.0765,-5.0949,-5.1022,-5.1022,-5.1206,-5.1279,-5.1279,-5.1279,-5.1169,-5.1022,-5.1022,-5.0949,-5.0765,-4.9958,-4.961,-4.9537,-4.8673,-4.8306,-4.8306,-4.8306,-4.7883,-4.7259,-4.6617,-4.6287,-4.614,-4.614,-4.603,-4.5773,-4.5149,-4.4929,-4.4782,-4.3975,-4.3718,-4.3681,-4.3551,-4.3515,-4.3515,-4.3515,-4.3515,-4.3314,-4.269,-4.2543,-4.2359,-4.1699,-4.1425,-4.1315,-4.1315,-4.0671,-4.0084,-3.9937,-3.935,-3.8872,-3.8726,-3.8138,-3.7676,-3.7529,-3.6303,-3.5371,-3.5041,-3.4417,-3.3954,-3.3807,-3.3807,-3.3807,-3.3807,-3.3807,-3.3513,-3.2839,-3.2693,-3.2302,-3.1654,-3.147,-3.1103,-3.043,-3.043,-3.0123,-2.9545,-2.9499,-2.9361,-3.5622,-3.6186,-3.6821,-3.6821,-3.7151,-3.761,0.0,-3.8427,-3.864,-3.941,-4.0021,-4.0347,-4.0112,-4.1142,-4.2328,-4.3094,-4.3901,-4.4709,-4.5516,-4.6305,-4.6819,-4.6819,-4.6892,-4.6966,-4.6966,-4.8379,-4.9317,-4.9317,-5.0068,-5.0545,-5.0655,-5.0655,-5.0729,-5.0802,-5.1499,-5.1867,-5.1867,-5.2564,-5.291,-5.291,-5.291,-5.2564,-5.1867,-5.1867,-5.1463,-5.0765,-4.9958,-4.961,-4.9537,-4.8673,-4.8306,-4.8306,-4.8306,-4.8269,-4.8159,-4.8049,-4.759,-4.6966,-4.6966,-4.6507,-4.5883,-4.581,-4.5773,-4.5626,-4.4819,-4.4562,-4.4415,-4.3681,-4.3515,-4.3515,-4.3515,-4.3515,-4.3478,-4.3404,-4.3351,-4.3314,-4.324,-4.2653,-4.2176,-4.2176,-4.1515,-4.0744,-4.001,-3.9827,-3.9533,-3.8799,-3.8615,-3.8322,-3.7603,-3.7345,-3.6633,-3.5151,-3.4931,-3.4564,-3.3844,-3.3807,-3.3807,-3.3807,-3.3807,-3.377,-3.366,-3.2986,-3.2546,-3.2472,-3.1751,-3.136,-3.1286,-3.1286,-3.1213,-3.1152,-3.1189,-3.0475,-3.627,-3.7283,-3.8189,-3.7987,-3.8596,-3.9265,-3.9401,-3.9416,-3.9544,-4.0128,-4.069,-4.1107,-4.1216,-4.2576,-4.3758,0.0,-4.4856,-4.57,-4.6489,-4.6892,-4.7259,-4.7736,-4.8269,-4.8563,-4.8563,-4.9206,-4.9794,-5.0251,-5.0618,-5.0986,-5.1463,-5.1499,-5.172,-5.2197,-5.2527,-5.2711,-5.2711,-5.3041,-5.3203,-5.3203,-5.3203,-5.3041,-5.2711,-5.2711,-5.227,-5.1463,-5.1153,-5.0729,-5.0215,-4.937,-4.9003,-4.8967,-4.8489,-4.8306,-4.8306,-4.8306,-4.8086,-4.7773,-4.7773,-4.7572,-4.7241,-4.6764,-4.6599,-4.6471,-4.5663,-4.5406,-4.5223,-4.4415,-4.4195,-4.4085,-4.3608,-4.3515,-4.3515,-4.3515,-4.3515,-4.3515,-4.3515,-4.3258,-4.2983,-4.2983,-4.2359,-4.1699,-4.1332,-4.0524,-3.979,-3.946,-3.9019,-3.8579,-3.8248,-3.7786,-3.6868,-3.5188,-3.4564,-3.4174,-3.3844,-3.3807,-3.3807,-3.3807,-3.3807,-3.3807,-3.3807,-3.3476,-3.3293,-3.3293,-3.2963,-3.2559,-3.2118,-3.2118,-3.1861,-3.1397,-3.1421,-3.1127,-3.7411,-3.8441,-3.9383,-3.9222,-3.9842,-4.0474,-4.0395,-4.041,-4.0558,-4.1053,-4.1504,-4.192,-4.2286,-4.3615,-4.4729,-4.4984,-4.57,-4.6507,-4.7333,-4.7443,-4.7736,-4.8563,-4.9243,-4.9757,-5.0235,-5.0271,-5.0508,-5.1096,-5.1353,-5.172,-5.2307,-5.2344,-5.2601,-5.3167,-5.3203,-5.3203,-5.3203,-5.3203,-5.3203,-5.3203,-5.3203,-5.3203,-5.3203,-5.3203,-5.2894,-5.2307,-5.2087,-5.1683,-5.1059,-5.0215,-4.9738,-4.9444,-4.8893,-4.8526,-4.8306,-4.8306,-4.8306,-4.8306,-4.8306,-4.8306,-4.8196,-4.7626,-4.7443,-4.7259,-4.6471,-4.625,-4.6067,-4.5259,-4.5039,-4.4856,-4.4048,-4.3828,-4.3754,-4.3551,-4.3515,-4.3515,-4.3515,-4.3515,-4.3515,-4.3515,-4.302,-4.2543,-4.2323,-4.1332,-4.0487,-4.0267,-3.9533,-3.8946,-3.8726,-3.7991,-3.6942,-3.5518,-3.4601,-3.4027,-3.3807,-3.3807,-3.3807,-3.3807,-3.3807,-3.3807,-3.3807,-3.3807,-3.3807,-3.3807,-3.3807,-3.3513,-3.2913,-3.2913,-3.2632,-3.2045,-3.2045,-3.2107,-3.9007,-3.9509,-3.9957,-4.033,-4.0474,-4.0691,-4.1469,-4.165,-4.1886,-4.2665,-4.2995,-4.316,-4.3178,-4.398,-4.4948,-4.5736,-4.6526,-4.7333,-4.8159,-4.8269,-4.86,-4.9463,-4.9574,-5.0198,0.0,-5.1903,-5.194,-5.194,-5.2711,-5.313,-5.3188,-5.3188,-5.3167,-5.3203,-5.3203,-5.3203,-5.3203,-5.3203,-5.3203,-5.3203,-5.3203,-5.3203,-5.3203,-5.3203,-5.3188,-5.3093,-5.2344,-5.1977,-5.1903,-5.1096,-5.0288,-4.961,-4.9574,-4.904,-4.8306,-4.8306,-4.8306,-4.8306,-4.8306,-4.8306,-4.8306,-4.8269,-4.8269,-4.8122,-4.7296,-4.7076,-4.6892,-4.6104,-4.5847,-4.5663,-4.4892,-4.4672,-4.4488,-4.3681,-4.3515,-4.3515,-4.3515,-4.3515,-4.3515,-4.3515,-4.3478,-4.3204,-4.2433,-4.2249,-4.1956,-4.1168,-4.0377,-3.957,-3.8799,-3.7991,-3.7199,-3.634,-3.5481,-3.4637,-3.388,-3.3807,-3.3807,-3.3807,-3.3807,-3.3807,-3.3807,-3.3807,-3.3807,-3.3807,-3.3807,-3.3807,-3.377,-3.377,-3.3733,-3.3733,-3.3733,-3.3733,-3.9605,-4.0511,-4.1423,-4.1323,-4.1723,-4.2158,-4.2411,-4.2484,-4.2556,-4.2865,-4.324,-4.364,-4.3943,-4.5017,-4.6001,-4.656,-4.7332,-4.7974,-4.8209,-4.8267,-4.8636,-4.95,-5.0068,0.0,0.0,0.0,0.0,-5.2747,-5.3078,-5.3203,-5.3203,-5.3203,-5.3203,-5.3203,-5.3203,-5.3203,-5.3203,-5.3203,-5.3203,-5.3203,-5.3203,-5.3203,-5.3203,-5.3203,-5.3203,-5.3167,-5.2931,-5.2821,-5.2747,-5.194,-5.1426,-5.1116,-5.0014,-4.9427,-4.9077,-4.8526,-4.8306,-4.8306,-4.8306,-4.8306,-4.8306,-4.8306,-4.8306,-4.8269,-4.7976,-4.7883,-4.7755,-4.6929,-4.6709,-4.6489,-4.57,-4.5112,-4.4635,-4.4378,-4.3901,-4.3515,-4.3515,-4.3515,-4.3515,-4.3515,-4.3515,-4.3404,-4.313,-4.2653,-4.2029,-4.1205,-4.0414,-3.9606,-3.8799,-3.7991,-3.7419,-3.7125,-3.5848,-3.4894,-3.4601,-3.41,-3.3807,-3.3807,-3.3807,-3.3807,-3.3807,-3.3807,-3.3807,-3.3807,-3.3807,-3.3807,-3.3807,-3.3807,-3.3807,-3.3807,-3.3807,-3.3807,-4.0684,-4.1586,-4.241,-4.2192,-4.252,-4.2901,-4.2901,-4.2901,-4.2901,-4.2975,-4.3476,-4.3999,-4.4325,-4.5598,-4.669,-4.6978,-4.7716,-4.8287,-4.8246,-4.8524,-4.9077,-4.9941,-5.0729,-5.1536,0.0,0.0,0.0,-5.3188,-5.3203,-5.3203,-5.3203,-5.3203,-5.3203,-5.3203,-5.3203,-5.3203,-5.3203,-5.3203,-5.3203,-5.3203,-5.3203,-5.3203,-5.3203,-5.3203,-5.3203,-5.3203,-5.3203,-5.3203,-5.3188,-5.2637,-5.227,-5.1867,-5.0545,-4.9848,-4.9463,-4.86,-4.8306,-4.8306,-4.8306,-4.8306,-4.8306,-4.8306,-4.8306,-4.8306,-4.8306,-4.8306,-4.8196,-4.7663,-4.7516,-4.7333,-4.6544,-4.5957,-4.5498,-4.5223,-4.4745,-4.4268,-4.3975,-4.3938,-4.3828,-4.3551,-4.3515,-4.3515,-4.3515,-4.3057,-4.247,-4.1662,-4.1075,-4.0341,-3.9276,-3.8432,-3.7823,-3.7529,-3.6523,-3.5775,-3.5481,-3.4711,-3.4234,-3.4234,-3.3954,-3.3807,-3.3807,-3.3807,-3.3807,-3.3807,-3.3807,-3.3807,-3.3807,-3.3807,-3.3807,-3.3807,-3.3807,-3.3807,-4.2236,-4.2557,-4.2901,-4.2901,-4.2901,-4.2901,-4.2901,-4.2901,-4.2956,-4.3104,-4.3757,-4.4321,-4.4452,-4.5859,-4.6976,-4.6995,-4.7733,-4.8287,-4.8287,-4.904,-4.9904,0.0,0.0,0.0,0.0,0.0,0.0,-5.3203,0.0,-5.3203,-5.3203,-5.3203,-5.3203,-5.3203,-5.3203,-5.3203,-5.3203,-5.3203,-5.3203,-5.3203,-5.3146,-5.3146,-5.3146,-5.3146,-5.3146,-5.3146,-5.3203,-5.3203,-5.3203,-5.3203,-5.2747,-5.1977,-5.1169,-5.0325,-4.9481,-4.8673,-4.8343,-4.8306,-4.8306,-4.8306,-4.8306,-4.8306,-4.8306,-4.8306,-4.8306,-4.8306,-4.8306,-4.8306,-4.8306,-4.8122,-4.7369,-4.7113,-4.6892,-4.614,-4.592,-4.57,-4.4929,-4.4764,-4.4525,-4.3718,-4.3551,-4.3515,-4.3515,-4.3515,-4.3258,-4.247,-4.2323,-4.1735,-4.012,-3.9239,-3.8432,-3.7639,-3.7529,-3.7199,-3.6413,-3.5555,-3.5041,-3.5004,-3.427,-3.3844,-3.3807,-3.3807,-3.3807,-3.3807,-3.3807,-3.3807,-3.3807,-3.3807,-3.3807,-3.3807,-3.3807,-3.3807,-4.2652,-4.2806,-4.2901,-4.2901,-4.2901,-4.2901,-4.2901,-4.2901,-4.3082,-4.3717,-4.3981,-4.4377,-4.5336,-4.6125,0.0,-4.7039,-4.7704,0.0,-4.8092,-4.8962,0.0,-5.0692,0.0,-5.2307,-5.3093,-5.3203,0.0,0.0,-5.3203,-5.3203,-5.3203,-5.3203,-5.3203,-5.3203,-5.3203,-5.3203,-5.3203,-5.3203,-5.3203,-5.3203,-5.2783,-5.259,-5.259,-5.259,-5.259,-5.2649,-5.3039,-5.3203,-5.3203,-5.3203,-5.3078,-5.2821,-5.2013,-5.1169,-5.0362,-4.9554,-4.8857,-4.8306,-4.8306,-4.8306,-4.8306,-4.8306,-4.8306,-4.8306,-4.8306,-4.8306,-4.8306,-4.8306,-4.8306,-4.8269,-4.803,-4.7553,-4.7039,-4.6819,-4.6361,-4.5847,-4.5626,-4.559,-4.5369,-4.4562,-4.3901,-4.3515,-4.3515,-4.3515,-4.3441,-4.3204,-4.269,-4.1735,-4.012,-3.9717,-3.9276,-3.8469,-3.786,-3.7419,-3.7199,-3.645,-3.5679,-3.5041,-3.4821,-3.4417,-3.3807,-3.3807,-3.3807,-3.3807,-3.3807,-3.3807,-3.3807,-3.3807,-3.3807,-3.3807,-3.3807,-3.3807,-4.2577,-4.2749,-4.2901,-4.2901,-4.2901,-4.301,-4.3353,-4.3136,-4.3117,-4.3756,-4.3793,-4.4068,-4.5215,-4.5878,-4.652,0.0,0.0,0.0,-4.8108,-4.9272,-5.0288,0.0,-5.183,0.0,-5.3188,-5.3203,-5.3103,0.0,-5.306,-5.3203,-5.3203,-5.3203,-5.3203,-5.3203,-5.3203,-5.3203,-5.3203,-5.3203,-5.3203,-5.3203,-5.2872,-5.2761,-5.2739,-5.2499,-5.2408,-5.2408,0.0,-5.2649,-5.2828,-5.2828,-5.2995,-5.3093,-5.2307,-5.172,-5.1169,-5.0051,-4.928,-4.882,-4.8416,-4.8306,-4.8306,-4.8306,-4.8306,-4.8306,-4.8306,-4.8306,-4.8306,-4.8306,-4.8306,-4.8306,-4.8306,-4.7957,-4.7626,-4.7626,-4.7278,-4.6874,-4.6507,-4.6434,-4.6104,-4.4911,-4.4342,-4.3901,-4.3534,-4.3339,-4.3322,-4.348,-4.2955,-4.2171,-4.1095,-4.0341,-3.9717,-3.9276,-3.8505,-3.8028,-3.8028,-3.7138,-3.6449,-3.6105,-3.5608,-3.5009,-3.4344,-3.4307,-3.4174,-3.3807,-3.3807,-3.3807,-3.3807,-3.3807,-3.3807,-3.3807,-3.3807,-3.3807,-4.2338,-4.2537,-4.2901,-4.2901,-4.2901,-4.3063,-4.3693,-4.3312,-4.2946,-4.3396,-4.3401,-4.3657,-4.465,-4.5501,-4.6384,-4.7506,0.0,-4.8168,-4.8108,-4.9675,-5.0802,-5.0802,-5.2234,-5.3203,-5.3203,-5.3124,-5.2893,-5.2431,-5.2761,-5.2995,-5.2995,-5.306,-5.3082,-5.3082,-5.3039,-5.2995,-5.2995,-5.306,-5.3082,-5.3082,-5.3082,-5.3082,-5.3082,-5.2522,-5.2291,-5.2268,0.0,0.0,-5.2291,-5.2291,-5.2545,-5.2922,-5.2312,-5.2004,-5.171,-5.0288,-4.9684,-4.95,-4.86,-4.8306,-4.8306,-4.8306,-4.8306,-4.8306,-4.8306,-4.8306,-4.8306,-4.8306,-4.8306,-4.8306,-4.8306,-4.8306,-4.8287,-4.8229,-4.8229,-4.8026,-4.733,-4.7074,-4.6597,-4.5205,-4.4693,-4.4309,-4.3667,-4.3141,-4.2957,-4.3375,-4.3124,-4.2759,-4.2424,-4.1046,-4.0056,-3.9836,-3.9213,-3.8721,-3.8611,-3.7713,-3.7228,-3.7418,-3.6495,-3.5684,-3.5117,-3.5123,-3.4784,-3.399,-3.3954,-3.389,-3.3753,-3.3793,-3.3793,-3.3753,-3.3793,-3.3807,-4.2338,-4.2537,-4.2901,-4.2901,-4.2901,-4.2842,-4.2597,-4.2445,-4.243,-4.2772,-4.2964,-4.3447,-4.4718,-4.5564,-4.62,-4.6531,-4.7378,-4.7931,-4.7642,-4.9455,-5.0802,0.0,-5.2234,-5.3203,-5.3203,-5.2806,0.0,0.0,0.0,-5.1873,-5.1873,-5.2291,-5.2522,-5.2522,-5.2126,-5.1873,-5.1873,-5.2315,-5.2522,-5.2522,-5.2522,-5.2522,-5.2499,-5.197,-5.1725,-5.1725,-5.1626,0.0,-5.1725,-5.1725,-5.1775,-5.1897,-5.2216,-5.1905,-5.1282,-5.0769,-5.0178,-4.95,-4.86,-4.8306,-4.8306,-4.8306,-4.8306,-4.8306,-4.8306,-4.8306,-4.8306,-4.8306,-4.8306,-4.8306,-4.8306,-4.8306,-4.8209,-4.7797,-4.7715,-4.7679,-4.7534,-4.7005,-4.6461,-4.615,-4.471,-4.3632,-4.3879,-4.3028,-4.2478,-4.2939,-4.2939,-4.2884,-4.2795,-4.1923,-4.0834,-3.9562,-3.922,-3.8877,-3.8257,-3.8323,-3.8005,-3.7055,-3.7134,-3.6711,-3.5628,-3.5901,-3.5679,-3.4821,-3.4784,-3.4329,-3.3394,-3.3648,-3.3648,-3.3394,-3.3648,-3.3807,-4.1973,-4.2378,-4.2844,-4.2577,-4.2729,-4.2838,-4.2548,-4.2334,-4.2242,-4.2334,-4.2386,-4.2773,-4.383,-4.462,-4.5346,-4.6088,-4.6959,-4.7457,-4.732,-4.9189,-5.0519,-5.0314,-5.1965,-5.3017,0.0,0.0,0.0,0.0,0.0,-5.1873,-5.1601,-5.1824,-5.197,-5.197,-5.1725,-5.1601,-5.1601,-5.1848,-5.197,-5.197,-5.197,-5.197,-5.1982,-5.1424,-5.1166,-5.1175,-5.0884,0.0,-5.1166,-5.1166,-5.1347,-5.1626,-5.1873,-5.1754,-5.1347,-5.0787,-5.0272,-4.9685,-4.879,-4.8263,-4.7955,-4.7955,-4.8094,-4.8306,-4.8306,-4.8306,-4.8248,-4.7995,-4.7955,-4.7955,-4.7955,-4.7955,-4.7895,-4.7653,-4.7421,-4.7313,-4.7548,-4.7111,-4.6608,-4.6442,-4.5408,-4.4343,-4.375,-4.2988,-4.247,-4.253,-4.2338,-4.2277,-4.2498,-4.196,-4.13,-4.0583,-3.9536,-3.8816,-3.8666,-3.8302,-3.7904,-3.7558,-3.7505,-3.7143,-3.6347,-3.6521,-3.6309,-3.5701,-3.5665,-3.5424,-3.4878,-3.4812,-3.4812,-3.4841,-3.436,-3.4264,-4.1477,-4.1973,-4.2518,-4.2118,-4.2338,-4.2542,-4.2339,-4.211,-4.1899,-4.1816,-4.1931,-4.2265,-4.3147,-4.3931,-4.4784,-4.583,-4.6519,-4.689,-4.6799,-4.8695,-4.9951,0.0,-5.1497,0.0,-5.2431,0.0,0.0,0.0,0.0,0.0,-5.1601,-5.1373,-5.1296,-5.1424,-5.1296,-5.1244,-5.1244,-5.1373,-5.1424,-5.1424,-5.1551,-5.1601,-5.1576,-5.1044,-5.0803,-5.0749,-5.0235,0.0,0.0,-5.0647,-5.0884,-5.1244,-5.1373,-5.1424,-5.1353,-5.0635,-5.0163,-4.9717,-4.8952,-4.8157,-4.7464,-4.7569,-4.7777,-4.8015,-4.8114,-4.8134,-4.8075,-4.7695,-4.7611,-4.7569,-4.7485,-4.7464,-4.7421,-4.7335,-4.7026,-4.6845,-4.7226,-4.7004,-4.6667,-4.6413,-4.582,-4.4994,-4.3642,-4.2934,-4.2424,-4.2094,-4.1753,-4.1609,-4.1994,-4.1753,-4.1527,-4.158,-4.0023,-3.8947,-3.8941,-3.8295,-3.7864,-3.7862,-3.7703,-3.7398,-3.6926,-3.7077,-3.6926,-3.6457,-3.6494,-3.6421,-3.6179,-3.5933,-3.5948,-3.6142,-3.5299,-3.5016,-4.0978,-4.123,-4.163,-4.1587,-4.1609,-4.1499,-4.1082,-4.0931,-4.0985,-4.124,-4.179,-4.2626,-4.3864,-4.4699,-4.5303,-4.5615,-4.6059,-4.6244,-4.5875,-4.7622,-4.8981,-4.9054,0.0,0.0,0.0,0.0,0.0,0.0,0.0,0.0,-5.1576,-5.0702,-5.0341,-5.0857,-5.0397,-5.0149,-5.0149,-5.0647,-5.0884,-5.0884,-5.1347,-5.1601,-5.1576,-5.1044,-5.0803,-5.0749,-5.0235,0.0,0.0,-5.0063,-5.0092,-5.0206,-5.0667,-5.0884,-5.0832,-5.051,-4.9912,-4.9221,-4.8828,-4.7939,-4.7026,-4.7464,-4.7335,-4.7093,-4.7527,-4.7653,-4.7653,-4.7611,-4.7611,-4.7506,-4.7071,-4.6959,-4.6845,-4.6435,-4.6291,-4.6266,-4.6315,-4.6291,-4.6266,-4.6244,-4.5232,-4.4277,-4.3816,-4.281,-4.1938,-4.1617,-4.1534,-4.1534,-4.1578,-4.1534,-4.1499,-4.1516,-4.0699,-3.9645,-3.83,-3.8723,-3.8456,-3.7091,-3.7667,-3.7685,-3.693,-3.7595,-3.7647,-3.6846,-3.7195,-3.6845,-3.5753,-3.6069,-3.6069,-3.5768,-3.601,-3.6164,-4.0849,-4.1139,-4.1432,-4.1139,-4.1298,-4.1321,-4.0538,-4.0587,-4.0899,-4.1138,-4.1779,-4.2603,-4.353,-4.4367,-4.4906,-4.4995,-4.5372,-4.5622,-4.5468,-4.7254,-4.8483,-4.8286,-5.0098,0.0,0.0,0.0,0.0,0.0,0.0,0.0,-5.1123,-5.0397,-5.0092,-5.032,-5.0092,-5.0011,-5.0011,-5.0206,-5.0348,-5.0348,-5.0537,-5.0647,-5.0647,-5.0397,-5.0348,-5.032,-5.0063,0.0,0.0,-5.0011,-5.0011,-5.004,-5.0235,-5.0348,-5.0313,-5.0215,-4.982,-4.9346,-4.8731,-4.7937,-4.7108,-4.6825,-4.64,-4.6144,-4.6936,-4.7378,-4.7485,-4.6913,-4.6959,-4.7071,-4.6602,-4.6483,-4.6435,-4.6217,-4.5955,-4.5803,-4.6154,-4.5955,-4.5803,-4.6154,-4.5534,-4.4785,-4.4218,-4.3331,-4.2496,-4.1892,-4.1418,-4.114,-4.114,-4.114,-4.114,-4.114,-4.0422,-3.9804,-3.9434,-3.8868,-3.829,-3.7657,-3.7456,-3.7246,-3.6919,-3.7208,-3.7453,-3.7631,-3.7762,-3.7728,-3.753,-3.7437,-3.7437,-3.7478,-3.6669,-3.6419,-4.0587,-4.0849,-4.1001,-4.0683,-4.0814,-4.0908,-4.0254,-4.0353,-4.0705,-4.1112,-4.1779,-4.2523,-4.324,-4.4045,-4.4615,-4.4615,-4.4879,-4.5115,-4.5115,-4.6738,-4.7842,0.0,0.0,0.0,0.0,0.0,0.0,0.0,0.0,0.0,0.0,-5.0149,-4.9918,-5.0011,-5.0011,-5.0011,-5.0011,-5.0011,-5.0011,-5.0011,-5.0011,-5.0011,-5.0011,-5.0011,-5.0011,-5.0011,0.0,0.0,0.0,-5.0011,-5.0011,-5.0011,-5.0011,-5.0011,-5.0011,-5.0011,-4.9749,-4.9272,-4.8627,-4.7831,-4.6993,-4.64,-4.5829,-4.5554,-4.6242,-4.6799,-4.7049,-4.6387,-4.6315,-4.6387,-4.6055,-4.598,-4.598,-4.598,-4.5649,-4.5502,-4.5879,-4.5649,-4.5528,-4.5905,-4.5649,-4.5156,-4.4449,-4.369,-4.293,-4.2137,-4.1378,-4.0894,-4.0894,-4.0894,-4.0894,-4.0894,-4.0388,-4.0078,-4.0092,-3.9287,-3.8523,-3.7944,-3.7486,-3.7086,-3.6756,-3.6841,-3.717,-3.7721,-3.7843,-3.8068,-3.8352,-3.8168,-3.8168,-3.83,-3.7303,-3.6912,-4.0113,-4.0113,-4.0138,-4.0113,-4.0113,-4.0113,-4.0113,-4.0113,-4.0316,-4.1035,-4.1779,-4.2523,-4.324,-4.4045,-4.4615,-4.4615,-4.4615,-4.4615,-4.4615,-4.5867,0.0,0.0,0.0,0.0,0.0,0.0,0.0,0.0,0.0,0.0,0.0,-4.9708,-4.9767,-5.0011,-5.0011,-5.0011,-5.0011,-5.0011,-5.0011,-5.0011,-5.0011,-5.0011,-5.0011,-5.0011,-5.0011,0.0,0.0,0.0,0.0,-5.0011,-5.0011,-5.0011,-5.0011,-5.0011,-5.0011,-5.0011,-4.9493,-4.8784,-4.8496,-4.7605,-4.6539,-4.6275,-4.5829,-4.5397,-4.5423,-4.5778,-4.6193,-4.6193,-4.5829,-4.5423,-4.5397,-4.5397,-4.5397,-4.5397,-4.5397,-4.5397,-4.5397,-4.5397,-4.5397,-4.5397,-4.5397,-4.5156,-4.4449,-4.369,-4.293,-4.2137,-4.1378,-4.0894,-4.0894,-4.0894,-4.0894,-4.0894,-4.0894,-4.0584,-3.9767,-4.007,-3.9473,-3.7603,-3.7847,-3.7539,-3.6339,-3.6681,-3.69,-3.6919,-3.7302,-3.7505,-3.7523,-3.7931,-3.7914,-3.7523,-3.7895,-3.7861,-4.0113,-4.0113,-4.0113,-4.0113,-4.0113,-4.0113,-4.0113,-4.0113,-4.0316,-4.1035,-4.1779,-4.2523,-4.324,-4.4045,-4.4615,-4.4615,-4.4615,-4.4615,0.0,0.0,0.0,0.0,0.0,0.0,0.0,0.0,0.0,0.0,0.0,0.0,0.0,-4.956,-4.9713,-5.0011,-4.986,-4.986,-5.0011,-4.986,-4.986,-5.0011,-5.0011,-5.0011,-5.0011,-5.0011,0.0,0.0,0.0,0.0,0.0,-5.0011,-5.0011,-5.0011,-5.0011,-5.0011,-5.0011,-5.0011,-4.9838,-4.9556,-4.8896,-4.808,-4.7244,-4.6672,-4.6004,-4.5397,-4.5397,-4.5778,-4.6228,-4.6228,-4.5803,-4.5397,-4.5397,-4.5397,-4.5397,-4.5397,-4.5397,-4.5397,-4.5397,-4.5397,-4.5397,-4.5397,-4.5397,-4.5328,-4.5113,-4.4423,-4.369,-4.293,-4.2171,-4.1481,-4.0963,-4.0894,-4.0894,-4.0894,-4.0894,-4.0791,-4.0549,-4.0147,-3.965,-3.9031,-3.8646,-3.8023,-3.7167,-3.7261,-3.7192,-3.69,-3.7036,-3.7227,-3.7505,-3.7632,-3.7487,-3.7094,-3.7227,-3.7227,-4.0113,-4.0113,-4.0113,-4.0113,-4.0113,-4.0113,-4.0113,-4.0113,-4.0248,-4.0696,-4.1373,-4.2117,-4.2861,-4.3606,-4.4248,-4.4547,-4.4615,-4.4716,0.0,0.0,0.0,0.0,0.0,0.0,0.0,0.0,0.0,0.0,0.0,0.0,0.0,-4.9381,-4.9535,-4.9801,-4.9679,-4.9679,-4.9801,-4.9713,-4.9713,-4.9801,-4.986,-4.9889,-4.9889,-4.9982,0.0,0.0,0.0,0.0,0.0,-4.9982,-4.9982,-4.9889,-4.9982,-5.0011,-5.0011,-5.0011,-5.0011,-4.9873,-4.9085,-4.8327,-4.7596,-4.6837,-4.6052,-4.5397,-4.5397,-4.5624,-4.5905,-4.5905,-4.5649,-4.5397,-4.5397,-4.5397,-4.5397,-4.5397,-4.5397,-4.5397,-4.5397,-4.5397,-4.5397,-4.5397,-4.5397,-4.5397,-4.5397,-4.4803,-4.4138,-4.369,-4.2689,-4.1826,-4.1378,-4.1067,-4.0894,-4.0894,-4.0894,-4.0894,-4.0894,-4.0446,-4.0008,-3.9733,-3.925,-3.8663,-3.7961,-3.7927,-3.7676,-3.7149,-3.7149,-3.7096,-3.7055,-3.7055,-3.6997,-3.69,-3.69,-3.6821,0.0,-4.0113,-4.0113,-4.0113,-4.0113,-4.0113,-4.0113,-4.0113,0.0,-4.0113,-4.0696,-4.1441,-4.2151,-4.2895,-4.3673,-4.4479,-4.4615,0.0,0.0,-4.638,0.0,0.0,0.0,0.0,0.0,0.0,0.0,0.0,0.0,0.0,0.0,-4.9199,-4.926,-4.9441,-4.9441,-4.9471,-4.95,-4.9471,-4.9471,-4.95,-4.9619,-4.9679,-4.9679,-4.9889,0.0,0.0,0.0,0.0,0.0,-4.9889,-4.986,-4.9708,-4.9889,-4.9982,-5.0011,-5.0011,-5.0011,-4.9907,-4.912,-4.8361,-4.7569,-4.6769,-4.5983,-4.5397,-4.5397,-4.5397,-4.5397,-4.5397,-4.5397,-4.5397,-4.5397,-4.5397,-4.5397,-4.5397,-4.5397,-4.5397,-4.5397,-4.5397,-4.5397,-4.5397,-4.5397,-4.5397,-4.5397,-4.4837,-4.438,-4.4311,-4.3069,-4.2137,-4.2009,-4.1412,-4.0963,-4.0929,-4.0894,-4.0894,-4.0894,-4.0894,-4.0584,-3.9836,-3.9767,-3.9457,-3.8698,-3.8663,-3.8341,-3.7581,-3.7581,-3.7215,-3.6456,-3.6456,-3.6665,-3.7036,-3.6965,-3.6745,-4.0113,0.0,-4.0113,-4.0113,-4.0113,-4.0113,0.0,-4.0113,-4.0113,-4.0113,-4.0696,-4.1441,-4.2151,-4.2895,-4.3673,-4.4479,0.0,0.0,0.0,0.0,0.0,0.0,0.0,0.0,0.0,0.0,0.0,0.0,0.0,0.0,0.0,-4.908,-4.9046,-4.9141,-4.9141,-4.9229,-4.95,-4.935,-4.935,-4.95,-4.953,-4.953,-4.953,-4.9679,0.0,0.0,0.0,0.0,-4.953,-4.9624,-4.9649,-4.9708,-4.9737,-4.986,-5.0011,-5.0011,-5.0011,-4.9976,-4.9804,-4.8838,-4.7465,-4.6121,-4.5535,-4.5397,-4.5397,-4.5397,-4.5397,-4.5397,-4.5397,-4.5397,-4.5397,-4.5397,-4.5397,-4.5397,-4.5397,-4.5397,-4.5397,-4.5397,-4.5397,-4.5397,-4.5397,-4.5397,-4.5397,-4.5259,-4.4941,-4.438,-4.4,-4.3345,-4.2171,-4.1861,-4.155,-4.0963,-4.0894,-4.0894,-4.0894,-4.0894,-4.0825,-4.0618,-4.0618,-4.025,-3.9457,-3.9422,-3.9077,-3.8353,-3.8318,-3.8272,-3.8043,-3.8043,-3.8109,-3.8196,-3.7629,-3.7288,-4.0113,-4.0113,-4.0113,-4.0113,-4.0113,-4.0113,-4.0113,-4.0113,-4.0113,-4.0113,-4.0696,-4.1441,-4.2151,-4.2895,-4.3673,0.0,-4.4615,0.0,0.0,0.0,0.0,0.0,0.0,0.0,0.0,0.0,0.0,0.0,0.0,0.0,0.0,-4.9018,-4.9018,-4.9018,-4.9018,-4.9111,-4.926,-4.9168,-4.9168,-4.926,-4.932,-4.935,-4.935,-4.953,-4.956,0.0,0.0,0.0,-4.935,-4.9441,-4.9471,-4.9471,-4.956,-4.9649,-4.9772,-4.983,-4.983,-4.9772,-4.983,-4.8862,-4.7348,-4.5887,-4.5397,-4.5397,-4.5397,-4.5397,-4.5397,-4.5397,-4.5397,-4.5397,-4.5397,-4.5397,-4.5397,-4.5397,-4.5397,-4.5397,-4.5397,-4.5397,-4.5397,-4.5397,-4.5397,-4.5397,-4.5397,-4.5397,-4.5259,-4.4872,-4.4518,-4.4,-4.3172,-4.2447,-4.1861,-4.1447,-4.103,-4.0799,-4.0799,-4.0799,-4.0823,-4.0894,-4.0894,-4.0722,-4.0273,-4.025,-3.9871,-3.9112,-3.8767,-3.8594,-3.8594,-3.8594,-3.8594,-3.8617,-3.818,-3.7974,-4.0113,-4.0087,-4.0087,-4.0113,-4.0113,-4.0113,-4.0113,-4.0113,-4.0113,-4.0113,-4.0696,-4.1441,-4.2151,-4.2895,0.0,0.0,0.0,0.0,0.0,0.0,0.0,0.0,0.0,0.0,0.0,0.0,0.0,0.0,0.0,0.0,0.0,-4.9018,-4.9018,-4.9018,-4.9018,-4.9018,-4.9018,-4.9018,-4.9018,-4.9018,-4.9107,-4.9168,-4.9168,-4.935,-4.9441,0.0,0.0,0.0,-4.9168,-4.935,-4.932,-4.9229,-4.9381,-4.9471,-4.95,-4.9619,-4.959,-4.95,-4.9482,-4.8615,-4.7243,-4.5937,-4.5474,-4.5371,-4.5397,-4.5397,-4.5397,-4.5397,-4.5397,-4.5397,-4.5397,-4.5397,-4.5397,-4.5397,-4.5397,-4.5397,-4.5397,-4.5397,-4.5397,-4.5397,-4.5397,-4.5397,-4.5397,-4.5397,-4.5397,-4.5397,-4.4872,-4.4449,-4.4311,-4.3172,-4.2275,-4.2033,-4.1326,-4.0817,-4.0714,-4.069,-4.0704,-4.0823,-4.0871,-4.0894,-4.0894,-4.0894,-4.0584,-3.9905,-3.925,-3.8962,-3.8962,-3.8962,-3.8962,-3.8962,-3.8836,-3.8767,-4.0087,-4.0011,-3.9961,-4.0087,-4.0113,-4.0113,-4.0113,-4.0113,-4.0113,-4.0113,-4.0696,-4.1441,-4.2151,-4.2895,-4.3673,0.0,0.0,0.0,0.0,0.0,0.0,0.0,0.0,0.0,0.0,0.0,0.0,0.0,0.0,0.0,0.0,0.0,-4.9018,-4.9018,-4.9018,-4.9018,-4.9018,-4.9018,-4.9018,-4.9018,-4.9049,-4.9015,-4.9049,-4.9168,-4.9168,0.0,0.0,-4.9168,-4.9015,-4.9046,-4.9107,-4.9199,-4.9229,-4.935,-4.95,-4.95,-4.95,-4.9432,-4.8783,-4.7996,-4.7136,-4.6419,-4.5753,-4.523,-4.5371,-4.5397,-4.5397,-4.5397,-4.5397,-4.5397,-4.5397,-4.5397,-4.5397,-4.5397,-4.5397,-4.5397,-4.5397,-4.5397,-4.5397,-4.5397,-4.5397,-4.5397,-4.5397,-4.5397,-4.5397,-4.5397,-4.5294,-4.501,-4.438,-4.4104,-4.3448,-4.2137,-4.1783,-4.1366,-4.0748,-4.0583,-4.0534,-4.0558,-4.0776,-4.0894,-4.0894,-4.0894,-4.086,-4.0722,-4.0618,-4.0549,-4.0549,-4.0549,-4.0549,-4.0549,-3.9836,-3.9526,-3.9961,-3.9935,-3.991,-4.0062,-4.0113,-4.0113,-4.0113,-4.0417,-4.0696,-4.0696,-4.161,-4.2489,-4.2828,0.0,-4.4282,-4.506,0.0,0.0,0.0,0.0,0.0,0.0,0.0,0.0,0.0,0.0,0.0,0.0,0.0,0.0,0.0,0.0,-4.9018,-4.9018,-4.9018,-4.9018,-4.9018,-4.9018,-4.9018,-4.9018,-4.9018,-4.9018,-4.9018,-4.9046,-4.9046,-4.8984,0.0,-4.908,-4.9018,-4.9018,-4.9049,-4.9077,-4.9077,-4.9138,-4.9199,-4.9199,-4.926,-4.9218,-4.8469,-4.7719,-4.6999,-4.639,-4.5692,-4.5096,-4.523,-4.5283,-4.5283,-4.5283,-4.5344,-4.5397,-4.5397,-4.5397,-4.5397,-4.5397,-4.5397,-4.5397,-4.5397,-4.5397,-4.5397,-4.5397,-4.5397,-4.5397,-4.5397,-4.5344,-4.5283,-4.5283,-4.5238,-4.51,-4.4836,-4.4423,-4.3907,-4.3219,-4.2293,-4.1517,-4.1134,-4.065,-4.0436,-4.0583,-4.0704,-4.0799,-4.0894,-4.0823,-4.0776,-4.0776,-4.0728,-4.0728,-4.0776,-4.0776,-4.0823,-4.0894,-4.0515,-4.0342,-3.9833,-3.9833,-3.9833,-4.0062,-4.0113,-4.0113,-4.0113,-4.0663,-4.1204,-4.1204,-4.2388,-4.3375,-4.3375,-4.4215,0.0,-4.5838,0.0,0.0,0.0,0.0,0.0,0.0,0.0,0.0,0.0,0.0,0.0,0.0,0.0,0.0,0.0,0.0,-4.9018,-4.9018,-4.9018,-4.9018,-4.9018,-4.9018,-4.9018,-4.9018,-4.9018,-4.9018,-4.9018,-4.9018,-4.9018,-4.9018,-4.9018,-4.9018,-4.9018,-4.9018,-4.9018,-4.9018,-4.9018,-4.9018,-4.9018,-4.9018,-4.9046,-4.907,-4.8493,-4.7713,-4.6889,-4.6453,-4.5691,-4.4995,-4.5096,-4.515,-4.515,-4.515,-4.5238,-4.5318,-4.5344,-4.5371,-4.5371,-4.5371,-4.5371,-4.5344,-4.5318,-4.5344,-4.5371,-4.5371,-4.5371,-4.5397,-4.5371,-4.5291,-4.5177,-4.515,-4.5076,-4.5049,-4.5123,-4.4669,-4.4258,-4.4086,-4.286,-4.1912,-4.1418,-4.0679,-4.0337,-4.0583,-4.069,-4.0762,-4.0847,-4.0728,-4.0714,-4.0714,-4.0558,-4.0558,-4.0714,-4.0714,-4.0752,-4.0894,-4.0894,-4.0894,-3.9807,-3.9737,-3.9633,-4.0011,-4.0113,-4.0113,-4.0113,-4.0663,-4.1204,-4.1204,-4.2388,-4.3375,-4.3375,-4.4621,-4.5872,0.0,0.0,0.0,0.0,0.0,0.0,0.0,0.0,0.0,0.0,0.0,0.0,0.0,0.0,0.0,0.0,0.0,0.0,-4.9018,-4.9018,-4.9018,-4.9018,-4.9018,-4.9018,-4.9018,-4.9018,-4.9018,-4.9018,-4.9018,-4.9018,-4.9018,-4.9018,-4.9018,-4.9018,-4.9018,-4.9018,-4.9018,-4.9018,-4.9018,-4.9018,-4.9018,-4.9018,-4.8984,-4.8951,-4.797,-4.6844,-4.6922,-4.5994,-4.4831,-4.4995,-4.4988,-4.4988,-4.4988,-4.5022,-4.5076,-4.5177,-4.5203,-4.5203,-4.5203,-4.5203,-4.5177,-4.5076,-4.5123,-4.5203,-4.5203,-4.5318,-4.5371,-4.523,-4.5203,-4.515,-4.5015,-4.5022,-4.4988,-4.4988,-4.4954,-4.468,-4.3997,-4.3693,-4.2913,-4.1365,-4.0553,-4.0188,-4.0313,-4.0534,-4.068,-4.0704,-4.0714,-4.0714,-4.0714,-4.0558,-4.0558,-4.0714,-4.0714,-4.0752,-4.0894,-4.0894,-4.0894,-3.9606,-3.9625,-3.9677,-3.991,-4.0375,-4.0764,-4.0764,-4.1339,-4.2016,-4.2489,-4.3403,-4.4282,-4.4756,0.0,-4.6109,0.0,0.0,0.0,0.0,0.0,0.0,0.0,0.0,0.0,0.0,0.0,0.0,0.0,0.0,0.0,0.0,0.0,0.0,-4.9018,-4.9018,-4.9018,-4.9018,-4.9018,-4.9018,-4.9018,-4.9018,-4.9018,-4.9018,-4.9018,-4.9018,-4.9018,-4.9018,-4.9018,-4.9018,-4.9018,-4.9018,-4.9018,-4.9018,-4.9018,-4.9018,-4.9018,-4.9018,-4.9018,-4.9018,-4.8037,-4.6815,-4.6874,-4.5857,-4.4692,-4.4831,-4.4886,-4.4886,-4.4886,-4.4886,-4.4913,-4.5049,-4.5123,-4.5177,-4.5096,-4.5123,-4.515,-4.5049,-4.5096,-4.5203,-4.5203,-4.5318,-4.5371,-4.5203,-4.5123,-4.5049,-4.4913,-4.4803,-4.4776,-4.4858,-4.4886,-4.4783,-4.4511,-4.3871,-4.2881,-4.1339,-4.0933,-4.062,-4.0197,-4.0337,-4.0485,-4.0558,-4.0485,-4.0436,-4.0436,-4.0313,-4.0313,-4.0436,-4.0436,-4.0558,-4.0786,-4.0786,-4.0799,-3.9475,-3.958,-3.9677,-3.9833,-4.0534,-4.1219,-4.1474,-4.2117,-4.2794,-4.3301,-4.4248,-4.5094,-4.5602,0.0,0.0,0.0,0.0,0.0,0.0,0.0,0.0,0.0,0.0,0.0,0.0,0.0,0.0,0.0,0.0,0.0,0.0,0.0,0.0,0.0,-4.9018,-4.9018,-4.9018,-4.9018,-4.9018,-4.9018,-4.9018,-4.9018,-4.9018,-4.9018,-4.9018,-4.9018,-4.9018,-4.9018,-4.9018,-4.9018,-4.9018,-4.9018,-4.9018,-4.9018,-4.9018,-4.9018,-4.9018,-4.9018,-4.9018,-4.8037,-4.6786,-4.6786,-4.5771,-4.4615,-4.4692,-4.472,-4.472,-4.472,-4.472,-4.4748,-4.4858,-4.4995,-4.5042,-4.4968,-4.5022,-4.5049,-4.4913,-4.4995,-4.5069,-4.5069,-4.5184,-4.5238,-4.5096,-4.5022,-4.4886,-4.4748,-4.4671,-4.4643,-4.472,-4.472,-4.472,-4.472,-4.3931,-4.297,-4.1982,-4.1677,-4.1238,-4.0493,-4.0527,-4.0526,-4.0436,-4.0337,-4.0288,-4.0288,-4.0163,-4.0163,-4.0288,-4.0288,-4.0412,-4.0631,-4.069,-4.0762,-3.9475,-3.9501,-3.958,-3.984,-4.0456,-4.1249,-4.2091,-4.2895,-4.3375,-4.3409,-4.4626,-4.5703,-4.5703,-4.6921,0.0,0.0,0.0,0.0,0.0,0.0,0.0,0.0,0.0,0.0,0.0,0.0,0.0,0.0,0.0,0.0,0.0,0.0,0.0,0.0,-4.9018,-4.9018,-4.9018,-4.9018,-4.9018,-4.9018,-4.9018,-4.9018,-4.9018,-4.9018,-4.9018,-4.9018,-4.9018,-4.9018,-4.9018,-4.9018,-4.9018,-4.9018,-4.9018,-4.9018,-4.9018,-4.9018,-4.9018,-4.9018,-4.9018,-4.8037,-4.6786,-4.6786,-4.5771,-4.4615,-4.4615,-4.4615,-4.4615,-4.4615,-4.4615,-4.4615,-4.4615,-4.4692,-4.4803,-4.4803,-4.4803,-4.4748,-4.4643,-4.4726,-4.4803,-4.4803,-4.4913,-4.4968,-4.4831,-4.4803,-4.4748,-4.4643,-4.4615,-4.4615,-4.4615,-4.4615,-4.4615,-4.4615,-4.3876,-4.3409,-4.3375,-4.2726,-4.1982,-4.1271,-4.1204,-4.0917,-4.0322,-4.0288,-4.0288,-4.0288,-4.0163,-4.0163,-4.0288,-4.0288,-4.0362,-4.051,-4.0631,-4.0714,-3.9369,-3.9494,-3.9785,-4.04,-4.123,-4.2098,-4.2902,-4.324,-4.3572,-4.4113,-4.5026,-4.5872,-4.638,0.0,0.0,0.0,0.0,0.0,0.0,0.0,0.0,0.0,0.0,0.0,0.0,0.0,0.0,0.0,0.0,0.0,0.0,0.0,0.0,0.0,-4.9018,-4.9018,-4.9018,-4.9018,-4.9018,-4.9018,-4.9018,-4.9018,-4.9018,-4.9018,-4.9018,-4.9018,-4.9018,-4.9018,-4.9018,-4.9018,-4.9018,-4.9018,-4.9018,-4.9018,-4.9018,-4.9018,-4.9018,-4.9018,-4.9018,-4.8037,-4.6786,-4.6786,-4.5771,-4.4615,-4.4615,-4.4615,-4.4615,-4.4615,-4.4615,-4.4615,-4.4615,-4.4643,-4.4671,-4.4671,-4.472,-4.4748,-4.4643,-4.4726,-4.4803,-4.4803,-4.4913,-4.4968,-4.4831,-4.4803,-4.4748,-4.4643,-4.4615,-4.4615,-4.4615,-4.4615,-4.4615,-4.4615,-4.4412,-4.4012,-4.3443,-4.32,-4.276,-4.2016,-4.1982,-4.1433,-4.0197,-4.0163,-4.0163,-4.0163,-4.0138,-4.0138,-4.0163,-4.0163,-4.0238,-4.0362,-4.0387,-4.0544,-3.9315,-3.9494,-3.9845,-4.0535,-4.1433,-4.2429,-4.3529,-4.3821,-4.4113,-4.4857,-4.5602,-4.6346,-4.709,-4.7834,0.0,0.0,0.0,0.0,0.0,0.0,0.0,0.0,0.0,0.0,0.0,0.0,0.0,0.0,0.0,0.0,0.0,0.0,0.0,0.0,-4.9018,-4.9018,-4.9018,-4.9018,-4.9018,-4.9018,-4.9018,-4.9018,-4.9018,-4.9018,-4.9018,-4.9018,-4.9018,-4.9018,-4.9018,-4.9018,-4.9018,-4.9018,-4.9018,-4.9018,-4.9018,-4.9018,-4.9018,-4.9018,-4.9018,-4.8037,-4.6786,-4.6786,-4.5771,-4.4615,-4.4615,-4.4615,-4.4615,-4.4615,-4.4615,-4.4615,-4.4615,-4.4615,-4.4615,-4.4615,-4.4671,-4.4692,-4.4615,-4.4637,-4.472,-4.472,-4.4776,-4.4803,-4.472,-4.472,-4.4692,-4.4615,-4.4615,-4.4615,-4.4615,-4.4615,-4.4615,-4.4615,-4.4615,-4.4412,-4.391,-4.3876,-4.3538,-4.2794,-4.2726,-4.2219,-4.1027,-4.0688,-4.0417,-4.0113,-4.0113,-4.0113,-4.0113,-4.0113,-4.0138,-4.0213,-4.0263,-4.0362,-3.9228,-3.9441,-3.9852,-4.0527,-4.141,-4.2512,-4.3933,-4.444,-4.4818,-4.5534,0.0,-4.7022,-4.7736,0.0,0.0,0.0,0.0,0.0,0.0,0.0,0.0,0.0,0.0,0.0,0.0,0.0,0.0,0.0,0.0,0.0,0.0,0.0,0.0,0.0,-4.9018,-4.9018,-4.9018,-4.9018,-4.9018,0.0,-4.9018,-4.9018,-4.9018,-4.9018,-4.9018,-4.9018,-4.9018,-4.9018,-4.9018,-4.9018,-4.9018,-4.9018,-4.9018,-4.9018,-4.9018,-4.9018,-4.9018,-4.9018,-4.9018,-4.8037,-4.6786,-4.6786,-4.5771,-4.4615,-4.4615,-4.4615,-4.4615,-4.4615,-4.4615,-4.4615,-4.4615,-4.4615,-4.4615,-4.4615,-4.4615,-4.4615,-4.4615,-4.4615,-4.4615,-4.4615,-4.4615,-4.4615,-4.4615,-4.4615,-4.4615,-4.4615,-4.4615,-4.4615,-4.4615,-4.4615,-4.4615,-4.4615,-4.4615,-4.4615,-4.4615,-4.4615,-4.4282,-4.3572,-4.3538,-4.32,-4.2422,-4.1677,-4.0967,-4.0316,-4.0316,-4.0316,-4.0316,-4.0248,-4.0214,-4.0214,-4.0247,-4.0288,-3.8535,-3.9007,-3.9854,-4.1161,-4.2657,-4.3838,-4.4088,-4.4384,-4.4818,-4.5534,-4.6278,-4.7022,0.0,0.0,0.0,0.0,0.0,0.0,0.0,0.0,0.0,0.0,0.0,0.0,0.0,0.0,0.0,0.0,0.0,0.0,0.0,0.0,0.0,-4.9018,-4.9018,-4.9018,-4.9018,-4.9018,-4.9018,0.0,-4.9018,-4.9018,-4.9018,-4.9018,-4.9018,-4.9018,-4.9018,-4.9018,-4.9018,-4.9018,-4.9018,-4.9018,-4.9018,-4.9018,-4.9018,-4.9018,-4.9018,-4.9018,-4.9018,-4.8037,-4.6786,-4.6786,-4.5771,-4.4615,-4.4615,-4.4615,-4.4615,-4.4615,-4.4615,-4.4615,-4.4615,-4.4615,-4.4615,-4.4615,-4.4615,-4.4615,-4.4615,-4.4615,-4.4615,-4.4615,-4.4615,-4.4615,-4.4615,-4.4615,-4.4615,-4.4615,-4.4615,-4.4615,-4.4615,-4.4615,-4.4615,-4.4615,-4.4615,-4.4615,-4.4615,-4.4615,-4.4547,-4.435,-4.4316,-4.3978,-4.32,-4.2455,-4.1982,-4.1839,-4.1839,-4.1839,-4.1839,-4.1238,-4.0967,-4.0933,-4.0409,-4.0188,-3.8222,-3.8907,-3.9979,-4.1664,-4.3089,-4.4097,-4.401,-4.4217,-4.4692,-4.5828,-4.6456,0.0,0.0,0.0,0.0,0.0,0.0,0.0,0.0,0.0,0.0,0.0,0.0,0.0,0.0,0.0,0.0,0.0,0.0,0.0,0.0,-4.9018,-4.9018,-4.9018,-4.9018,-4.9018,-4.9018,-4.9018,-4.9018,-4.9018,-4.9018,-4.9018,-4.9018,-4.9018,-4.9018,-4.9018,-4.9018,-4.9018,-4.9018,-4.9018,-4.9018,-4.9018,-4.9018,-4.9018,-4.9018,-4.9018,-4.9018,-4.9018,-4.9018,-4.8037,-4.6786,-4.6786,-4.5771,-4.4615,-4.4615,-4.4615,-4.4615,-4.4615,-4.4615,-4.4615,-4.4615,-4.4615,-4.4615,-4.4615,-4.4615,-4.4615,-4.4615,-4.4615,-4.4615,-4.4615,-4.4615,-4.4615,-4.4615,-4.4615,-4.4615,-4.4615,-4.4615,-4.4615,-4.4615,-4.4615,-4.4615,-4.4615,-4.4615,-4.4615,-4.4615,-4.4615,-4.4615,-4.4615,-4.4615,-4.4384,-4.3978,-4.3606,-4.3031,-4.2286,-4.2286,-4.2286,-4.2286,-4.1914,-4.1745,-4.1711,-4.0967,-4.068,-3.7911,-3.8836,-4.0185,-4.2026,-4.3215,-4.3898,-4.3868,-4.3985,-4.4528,-4.6122,0.0,0.0,0.0,0.0,0.0,0.0,0.0,0.0,0.0,0.0,0.0,0.0,0.0,0.0,0.0,0.0,0.0,0.0,0.0,0.0,-4.9018,-4.9018,-4.9018,-4.9018,-4.9018,-4.9018,-4.9018,-4.9018,-4.9018,-4.9018,-4.9018,-4.9018,-4.9018,-4.9018,-4.9018,-4.9018,-4.9018,-4.9018,-4.9018,-4.9018,-4.9018,-4.9018,-4.9018,-4.9018,-4.9018,-4.9018,-4.9018,-4.9018,-4.9018,-4.8037,-4.6786,-4.6786,-4.5771,-4.4615,-4.4615,-4.4615,-4.4615,-4.4615,-4.4615,-4.4615,-4.4615,-4.4615,-4.4615,-4.4615,-4.4615,-4.4615,-4.4615,-4.4615,-4.4615,-4.4615,-4.4615,-4.4615,-4.4615,-4.4615,-4.4615,-4.4615,-4.4615,-4.4615,-4.4615,-4.4615,-4.4615,-4.4615,-4.4615,-4.4615,-4.4615,-4.4615,-4.4615,-4.4615,-4.4615,-4.4615,-4.4615,-4.4615,-4.4005,-4.2726,-4.2719,-4.2719,-4.2719,-4.2557,-4.2489,-4.2455,-4.1745,-4.1407,-3.6786,-3.8453,-4.072,-4.2158,-4.3215,-4.3868,0.0,0.0,-4.4503,0.0,0.0,0.0,0.0,0.0,0.0,0.0,0.0,0.0,0.0,0.0,0.0,0.0,0.0,0.0,0.0,0.0,0.0,0.0,0.0,0.0,-4.9018,-4.9018,-4.9018,-4.9018,-4.9018,-4.9018,-4.9018,-4.9018,-4.9018,-4.9018,-4.9018,-4.9018,-4.9018,-4.9018,-4.9018,-4.9018,-4.9018,-4.9018,-4.9018,-4.9018,-4.9018,-4.9018,-4.9018,-4.9018,-4.9018,-4.9018,-4.9018,-4.9018,-4.9018,-4.8037,-4.6786,-4.6786,-4.5771,-4.4615,-4.4615,-4.4615,-4.4615,-4.4615,-4.4615,-4.4615,-4.4615,-4.4615,-4.4615,-4.4615,-4.4615,-4.4615,-4.4615,-4.4615,-4.4615,-4.4615,-4.4615,-4.4615,-4.4615,-4.4615,-4.4615,-4.4615,-4.4615,-4.4615,-4.4615,-4.4615,-4.4615,-4.4615,-4.4615,-4.4615,-4.4615,-4.4615,-4.4615,-4.4615,-4.4615,-4.4615,-4.4615,-4.4615,-4.4513,-4.431,-4.431,-4.431,-4.431,-4.3606,-4.324,-4.324,-4.2489,-4.2151,-3.8463,-3.9845,-4.1406,-4.2756,-4.3426,-4.3687,-4.3628,-4.3717,-4.4268,0.0,0.0,0.0,0.0,0.0,0.0,0.0,0.0,0.0,0.0,0.0,0.0,0.0,0.0,0.0,0.0,0.0,0.0,0.0,0.0,-4.9018,-4.9018,-4.9018,-4.9018,-4.9018,-4.9018,-4.9018,-4.9018,-4.9018,-4.9018,-4.9018,-4.9018,-4.9018,-4.9018,-4.9018,-4.9018,-4.9018,-4.9018,-4.9018,-4.9018,-4.9018,-4.9018,-4.9018,-4.9018,-4.9018,-4.9018,-4.9018,-4.9018,-4.9018,-4.9018,-4.8037,-4.6786,-4.6786,-4.5771,-4.4615,-4.4615,-4.4615,-4.4615,-4.4615,-4.4615,-4.4615,-4.4615,-4.4615,-4.4615,-4.4615,-4.4615,-4.4615,-4.4615,-4.4615,-4.4615,-4.4615,-4.4615,-4.4615,-4.4615,-4.4615,-4.4615,-4.4615,-4.4615,-4.4615,-4.4615,-4.4615,-4.4615,-4.4615,-4.4615,-4.4615,-4.4615,-4.4615,-4.4615,-4.4615,-4.4615,-4.4615,-4.4615,-4.4615,-4.4615,-4.4615,-4.4615,-4.4615,-4.4615,-4.4215,-4.4079,-4.4045,-4.3267,-4.2929,-3.9712,-4.061,-4.1369,-4.2947,-4.3325,-4.3386,0.0,0.0,0.0,0.0,0.0,0.0,0.0,0.0,0.0,0.0,0.0,0.0,0.0,0.0,0.0,0.0,0.0,0.0,0.0,0.0,0.0,0.0,0.0,-4.9018,-4.9018,-4.9018,-4.9018,-4.9018,-4.9018,-4.9018,-4.9018,-4.9018,-4.9018,-4.9018,-4.9018,-4.9018,-4.9018,-4.9018,-4.9018,-4.9018,-4.9018,-4.9018,-4.9018,-4.9018,-4.9018,-4.9018,-4.9018,-4.9018,-4.9018,-4.9018,-4.9018,-4.9018,-4.9018,-4.8173,-4.7056,-4.6853,-4.5906,-4.4823,-4.4682,-4.4615,-4.4615,-4.4615,-4.4615,-4.4615,-4.4615,-4.4615,-4.4615,-4.4615,-4.4615,-4.4615,-4.4615,-4.4615,-4.4615,-4.4615,-4.4615,-4.4615,-4.4615,-4.4615,-4.4615,-4.4615,-4.4615,-4.4615,-4.4615,-4.4615,-4.4615,-4.4615,-4.4615,-4.4615,-4.4615,-4.4615,-4.4615,-4.4615,-4.4615,-4.4615,-4.4615,-4.4615,-4.4615,-4.4615,-4.4615,-4.4615,-4.4615,-4.4615,-4.4615,-4.4581,-4.3978,-4.3707,-3.9143,-3.9563,-4.0084,-4.214,-4.2648,-4.2803,0.0,0.0,0.0,0.0,0.0,0.0,0.0,0.0,0.0,0.0,0.0,0.0,0.0,0.0,0.0,0.0,0.0,0.0,0.0,0.0,0.0,0.0,0.0,-4.9018,-4.9018,-4.9018,-4.9018,-4.9018,-4.9018,-4.9018,-4.9018,-4.9018,-4.9018,-4.9018,-4.9018,-4.9018,-4.9018,-4.9018,-4.9018,-4.9018,-4.9018,-4.9018,-4.9018,-4.9018,-4.9018,-4.9018,-4.9018,-4.9018,-4.9018,-4.9018,-4.9018,-4.9018,-4.9018,-4.8511,-4.7733,-4.7022,-4.6278,-4.55,-4.4818,-4.4615,-4.4615,-4.4615,-4.4615,-4.4615,-4.4615,-4.4615,-4.4615,-4.4615,-4.4615,-4.4615,-4.4615,-4.4615,-4.4615,-4.4615,-4.4615,-4.4615,-4.4615,-4.4615,-4.4615,-4.4615,-4.4615,-4.4615,-4.4615,-4.4615,-4.4615,-4.4615,-4.4615,-4.4615,-4.4615,-4.4615,-4.4615,-4.4615,-4.4615,-4.4615,-4.4615,-4.4615,-4.4615,-4.4615,-4.4615,-4.4615,-4.4615,-4.4615,-4.4615,-4.4615,-4.4581,-4.4547,-3.9876,-4.0143,-4.0442,-4.1593,-4.1884,-4.1949,-4.2205,0.0,0.0,0.0,0.0,0.0,0.0,0.0,0.0,0.0,0.0,0.0,0.0,0.0,0.0,0.0,0.0,0.0,0.0,0.0,0.0,0.0,0.0,0.0,-4.9018,-4.9018,-4.9018,-4.9018,-4.9018,-4.9018,-4.9018,-4.9018,-4.9018,-4.9018,-4.9018,-4.9018,-4.9018,-4.9018,-4.9018,-4.9018,-4.9018,-4.9018,-4.9018,-4.9018,-4.9018,-4.9018,-4.9018,-4.9018,-4.9018,-4.9018,-4.9018,-4.9018,-4.9018,-4.8545,-4.78,-4.7022,-4.6312,-4.5568,-4.4818,-4.4615,-4.4615,-4.4615,-4.4615,-4.4615,-4.4615,-4.4615,-4.4615,-4.4615,-4.4615,-4.4615,-4.4615,-4.4615,-4.4615,-4.4615,-4.4615,-4.4615,-4.4615,-4.4615,-4.4615,-4.4615,-4.4615,-4.4615,-4.4615,-4.4615,-4.4615,-4.4615,-4.4615,-4.4615,-4.4615,-4.4615,-4.4615,-4.4615,-4.4615,-4.4615,-4.4615,-4.4615,-4.4615,-4.4615,-4.4615,-4.4615,-4.4615,-4.4615,-4.4615,-4.4615,-4.4615,-4.4615,-4.0021,-4.0126,-4.0305,-4.0992,-4.116,-4.1227,-4.1459,0.0,0.0,0.0,0.0,0.0,0.0,0.0,0.0,0.0,0.0,0.0,0.0,0.0,0.0,0.0,0.0,0.0,0.0,0.0,0.0,0.0,0.0,0.0,-4.9018,-4.9018,-4.9018,-4.9018,-4.9018,-4.9018,-4.9018,-4.9018,-4.9018,-4.9018,-4.9018,-4.9018,-4.9018,-4.9018,-4.9018,-4.9018,-4.9018,-4.9018,-4.9018,-4.9018,-4.9018,-4.9018,-4.9018,-4.9018,-4.9018,-4.9018,-4.9018,-4.9018,-4.9018,-4.868,-4.8173,-4.7428,-4.6684,-4.594,-4.5196,-4.4818,-4.4615,-4.4615,-4.4615,-4.4615,-4.4615,-4.4615,-4.4615,-4.4615,-4.4615,-4.4615,-4.4615,-4.4615,-4.4615,-4.4615,-4.4615,-4.4615,-4.4615,-4.4615,-4.4615,-4.4615,-4.4615,-4.4615,-4.4615,-4.4615,-4.4615,-4.4615,-4.4615,-4.4615,-4.4615,-4.4615,-4.4615,-4.4615,-4.4615,-4.4615,-4.4615,-4.4615,-4.4615,-4.4615,-4.4615,-4.4615,-4.4615,-4.4615,-4.4615,-4.4615,-4.4615,-4.4615,0.0,0.0,0.0,-4.027,0.0,0.0,-4.1294,0.0,0.0,0.0,0.0,0.0,0.0,0.0,0.0,0.0,0.0,0.0,0.0,0.0,0.0,0.0,0.0,0.0,0.0,0.0,0.0,0.0,0.0,-4.9018,-4.9018,-4.9018,-4.9018,-4.9018,-4.9018,-4.9018,-4.9018,-4.9018,-4.9018,-4.9018,-4.9018,-4.9018,-4.9018,-4.9018,-4.9018,-4.9018,-4.9018,-4.9018,-4.9018,-4.9018,-4.9018,-4.9018,-4.9018,-4.9018,-4.9018,-4.9018,-4.9018,-4.9018,-4.9018,-4.9018,-4.8883,-4.8142,-4.7394,-4.665,-4.594,-4.5162,-4.4615,-4.4615,-4.4615,-4.4615,-4.4615,-4.4615,-4.4615,-4.4615,-4.4615,-4.4615,-4.4615,-4.4615,-4.4615,-4.4615,-4.4615,-4.4615,-4.4615,-4.4615,-4.4615,-4.4615,-4.4615,-4.4615,-4.4615,-4.4615,-4.4615,-4.4615,-4.4615,-4.4615,-4.4615,-4.4615,-4.4615,-4.4615,-4.4615,-4.4615,-4.4615,-4.4615,-4.4615,-4.4615,-4.4615,-4.4615,-4.4615,-4.4615,-4.4615,-4.4615,-4.4615,-4.4615,-3.9373,0.0,0.0,0.0,0.0,0.0,-3.995,-3.9985,0.0,0.0,0.0,0.0,0.0,0.0,0.0,0.0,0.0,0.0,0.0,0.0,0.0,0.0,0.0,0.0,0.0,0.0,0.0,0.0,-4.9018,-4.9018,-4.9018,-4.9018,-4.9018,-4.9018,-4.9018,-4.9018,-4.9018,-4.9018,-4.9018,-4.9018,-4.9018,-4.9018,-4.9018,-4.9018,-4.9018,-4.9018,-4.9018,-4.9018,-4.9018,-4.9018,-4.9018,-4.9018,-4.9018,-4.9018,-4.9018,-4.9018,-4.9018,-4.9018,-4.9018,-4.9018,-4.8883,-4.8142,-4.7394,-4.665,-4.594,-4.5162,-4.4615,-4.4615,-4.4615,-4.4615,-4.4615,-4.4615,-4.4615,-4.4615,-4.4615,-4.4615,-4.4615,-4.4615,-4.4615,-4.4615,-4.4615,-4.4615,-4.4615,-4.4615,-4.4615,-4.4615,-4.4615,-4.4615,-4.4615,-4.4615,-4.4615,-4.4615,-4.4615,-4.4615,-4.4615,-4.4615,-4.4615,-4.4615,-4.4615,-4.4615,-4.4615,-4.4615,-4.4615,-4.4615,-4.4615,-4.4615,-4.4615,-4.4615,-4.4615,-4.4615,-4.4615,-4.4615,-3.9373,-3.9373,-3.9373,-3.9373,0.0,0.0,-3.9373,-3.9373,-3.9373,0.0,0.0,0.0,0.0,0.0,0.0,0.0,0.0,0.0,0.0,0.0,0.0,0.0,0.0,0.0,0.0,0.0,0.0,-4.8257,-4.8353,-4.8576,-4.8987,-4.9018,-4.9018,-4.9018,-4.9018,-4.9018,-4.9018,-4.9018,-4.9018,-4.9018,-4.9018,-4.9018,-4.9018,-4.9018,-4.9018,-4.9018,-4.9018,-4.9018,-4.9018,-4.9018,-4.9018,-4.9018,-4.9018,-4.9018,-4.9018,-4.9018,-4.9018,-4.9018,-4.9018,-4.9018,-4.8951,-4.8511,-4.7868,-4.7124,-4.638,-4.5635,-4.4993,-4.4716,-4.4615,-4.4615,-4.4615,-4.4615,-4.4615,-4.4615,-4.4615,-4.4615,-4.4615,-4.4615,-4.4615,-4.4615,-4.4615,-4.4615,-4.4615,-4.4615,-4.4615,-4.4615,-4.4615,-4.4615,-4.4615,-4.4615,-4.4615,-4.4615,-4.4615,-4.4615,-4.4615,-4.4615,-4.4615,-4.4615,-4.4615,-4.4615,-4.4615,-4.4615,-4.4615,-4.4615,-4.4615,-4.4615,-4.4615,-4.4615,-4.4615,-4.4615,-4.4615,-4.4615,-3.9373,-3.9373,-3.9373,-3.9373,-3.9373,0.0,-3.9373,-3.9373,-3.9373,0.0,0.0,0.0,0.0,0.0,0.0,0.0,0.0,0.0,0.0,0.0,0.0,0.0,0.0,0.0,0.0,-4.6465,-4.6974,-4.7075,-4.7274,-4.7836,-4.8798,-4.8829,-4.8892,-4.8987,-4.8987,-4.8987,-4.8923,-4.8987,-4.8987,-4.8987,-4.8984,-4.9018,-4.9018,-4.9018,-4.9018,-4.9018,-4.9018,-4.9018,-4.9018,-4.9018,-4.9018,-4.9018,-4.9018,-4.9018,-4.9018,-4.9018,-4.9018,-4.9018,-4.9018,-4.9018,-4.9018,-4.9018,-4.8511,-4.78,-4.7124,-4.6346,-4.5534,-4.4818,-4.4615,-4.4615,-4.4615,-4.4615,-4.4615,-4.4615,-4.4615,-4.4615,-4.4615,-4.4615,-4.4615,-4.4615,-4.4615,-4.4615,-4.4615,-4.4615,-4.4615,-4.4615,-4.4615,-4.4615,-4.4615,-4.4615,-4.4615,-4.4615,-4.4615,-4.4615,-4.4615,-4.4615,-4.4615,-4.4615,-4.4615,-4.4615,-4.4615,-4.4615,-4.4615,-4.4615,-4.4615,-4.4615,-4.4615,-4.4615,-4.4615,-4.4615,-4.4615,-4.4615,0.0,0.0,0.0,0.0,0.0,0.0,-3.9373,-3.9373,-3.9373,0.0,0.0,0.0,0.0,0.0,0.0,0.0,0.0,0.0,0.0,0.0,0.0,0.0,0.0,0.0,0.0,-4.4073,-4.4816,-4.5548,-4.6132,-4.6867,-4.7836,-4.7868,-4.8161,-4.8801,-4.8832,-4.8769,-4.861,-4.8769,-4.8832,-4.8832,-4.8956,-4.9018,-4.9018,-4.9018,-4.9018,-4.9018,-4.9018,-4.9018,-4.9018,-4.9018,-4.9018,-4.9018,-4.9018,-4.9018,-4.9018,-4.9018,-4.9018,-4.9018,-4.9018,-4.9018,-4.9018,-4.9018,-4.8511,-4.7872,-4.7733,-4.6786,-4.5534,-4.4818,-4.4615,-4.4615,-4.4615,-4.4615,-4.4615,-4.4615,-4.4615,-4.4615,-4.4615,-4.4615,-4.4615,-4.4615,-4.4615,-4.4615,-4.4615,-4.4615,-4.4615,-4.4615,-4.4615,-4.4615,-4.4615,-4.4615,-4.4615,-4.4615,-4.4615,-4.4615,-4.4615,-4.4615,-4.4615,-4.4615,-4.4615,-4.4615,-4.4615,-4.4615,-4.4615,-4.4615,-4.4615,-4.4615,-4.4615,-4.4615,-4.4615,-4.4615,-4.4615,-4.4615,0.0,0.0,0.0,-3.9373,0.0,0.0,0.0,-3.9373,-3.9373,0.0,0.0,0.0,0.0,0.0,0.0,0.0,0.0,0.0,0.0,0.0,0.0,0.0,0.0,0.0,0.0,-4.275,-4.3531,-4.4453,-4.5123,-4.6102,-4.7374,-4.744,-4.7803,-4.861,-4.8675,-4.8578,-4.8515,-4.8578,-4.8675,-4.8675,-4.8704,-4.8736,-4.8736,-4.8863,-4.8894,-4.8894,-4.8987,-4.9018,-4.8984,-4.8925,-4.8704,-4.8482,-4.8861,-4.9018,-4.9018,-4.9018,-4.8767,-4.8513,-4.8861,-4.8767,-4.8513,-4.8892,-4.8748,-4.8376,-4.8007,-4.6887,-4.5476,-4.4351,-4.4327,-4.453,-4.415,-4.4293,-4.4615,-4.4615,-4.4615,-4.4615,-4.4615,-4.4615,-4.4615,-4.4615,-4.4615,-4.4615,-4.4615,-4.4615,-4.4615,-4.4615,-4.4615,-4.4615,-4.4615,-4.4615,-4.4615,-4.4615,-4.4615,-4.4615,-4.4615,-4.4615,-4.4615,-4.4615,-4.4615,-4.4615,-4.4615,-4.4615,-4.4615,-4.4615,-4.4615,-4.4615,-4.4615,-4.4615,-4.4615,-4.4615,-4.4615,-4.4615,0.0,0.0,0.0,0.0,0.0,-3.9589,0.0,0.0,0.0,0.0,0.0,0.0,0.0,0.0,0.0,0.0,0.0,0.0,0.0,0.0,0.0,0.0,0.0,0.0,0.0,-4.1687,-4.2431,-4.3254,-4.3903,-4.49,-4.6572,-4.6774,-4.7275,-4.8194,-4.8388,-4.842,-4.8388,-4.842,-4.8452,-4.8452,-4.8322,-4.8258,-4.8258,-4.829,-4.829,-4.829,-4.8545,-4.8671,-4.8671,-4.8704,-4.8354,-4.7868,-4.8673,-4.8892,-4.8798,-4.8956,-4.8513,-4.7999,-4.8576,-4.8322,-4.7836,-4.8545,-4.8892,-4.8852,-4.7922,-4.6836,-4.5592,-4.3989,-4.4015,-4.444,-4.3676,-4.403,-4.4587,-4.4412,-4.4497,-4.4587,-4.4412,-4.4497,-4.4615,-4.4615,-4.4615,-4.4615,-4.4615,-4.4615,-4.4615,-4.4615,-4.4615,-4.4615,-4.4615,-4.4615,-4.4615,-4.4615,-4.4615,-4.4615,-4.4615,-4.4615,-4.4615,-4.4615,-4.4615,-4.4615,-4.4615,-4.4615,-4.4615,-4.4615,-4.4615,-4.4615,-4.4615,-4.4615,-4.4615,-4.4615,-4.4615,-4.4615,0.0,0.0,0.0,0.0,-4.0277,0.0,0.0,0.0,0.0,0.0,0.0,0.0,0.0,0.0,0.0,0.0,0.0,0.0,0.0,0.0,0.0,0.0,0.0,0.0,0.0,0.0,-4.0905,-4.1603,-4.1776,-4.2504,-4.4112,-4.4827,-4.5842,-4.7237,-4.7869,-4.8163,-4.8066,-4.8163,-4.8227,-4.8227,-4.7671,-4.744,-4.7406,-4.6765,-4.6488,-4.6523,-4.7205,-4.7506,-4.7539,-4.8258,-4.8064,-4.7473,-4.8452,-4.8515,-4.8096,-4.8767,-4.8513,-4.7901,-4.7999,-4.7539,-4.7067,-4.7803,-4.8482,-4.8726,-4.736,-4.684,-4.6245,-4.4164,-4.4059,-4.444,-4.3676,-4.403,-4.444,-4.3764,-4.4121,-4.4412,-4.3764,-4.415,-4.4615,-4.4615,-4.4615,-4.4615,-4.4615,-4.4615,-4.4615,-4.4615,-4.4615,-4.4615,-4.4615,-4.4615,-4.4615,-4.4615,-4.4615,-4.4615,-4.4615,-4.4615,-4.4615,-4.4615,-4.4615,-4.4615,-4.4615,-4.4615,-4.4615,-4.4615,-4.4615,-4.4615,-4.4615,-4.4615,-4.4615,-4.4615,-4.4615,-4.4615,0.0,0.0,0.0,0.0,0.0,0.0,-4.0606,0.0,-3.9978,0.0,0.0,0.0,0.0,0.0,0.0,0.0,0.0,0.0,0.0,0.0,0.0,0.0,0.0,0.0,0.0,0.0,0.0,0.0,0.0,-4.1465,-4.2994,-4.3723,-4.4571,-4.5664,-4.6394,-4.6724,-4.6687,-4.6724,-4.6759,-4.6759,-4.6483,-4.6346,-4.6346,-4.6134,-4.6028,-4.6064,-4.6454,-4.6662,-4.6696,-4.7372,-4.7035,-4.6134,-4.7338,-4.7505,-4.7171,-4.7934,-4.7506,-4.6726,-4.7473,-4.7035,-4.6343,-4.7506,-4.8096,-4.8189,-4.7104,-4.6799,-4.6364,-4.4202,-4.3807,-4.385,-4.3115,-4.3439,-4.3885,-4.3588,-4.3735,-4.3972,-4.4088,-4.403,-4.4093,-4.4497,-4.4615,-4.4615,-4.4615,-4.4615,-4.4615,-4.4615,-4.4615,-4.4615,-4.4615,-4.4615,-4.4615,-4.4615,-4.4615,-4.4615,-4.4615,-4.4615,-4.4615,-4.4615,-4.4615,-4.4615,-4.4615,-4.4615,-4.4615,-4.4615,-4.4615,-4.4615,-4.4615,-4.4615,-4.4615,-4.4615,-4.4615,-4.4615,-4.2043,0.0,0.0,0.0,0.0,0.0,0.0,0.0,0.0,0.0,0.0,0.0,0.0,0.0,0.0,-3.9373,0.0,0.0,0.0,0.0,0.0,0.0,0.0,0.0,0.0,0.0,0.0,0.0,0.0,0.0,-4.1882,-4.2738,-4.3603,-4.4333,-4.5241,-4.5697,-4.5697,-4.5697,-4.5697,-4.5697,-4.5478,-4.5369,-4.5369,-4.5264,-4.519,-4.5196,-4.5597,-4.5742,-4.5814,-4.6448,-4.5989,-4.5036,-4.5989,-4.6095,-4.5845,-4.69,-4.6588,-4.5769,-4.6659,-4.6413,-4.5805,-4.6864,-4.7539,-4.7736,-4.7012,-4.6781,-4.645,-4.4691,-4.4172,-4.3975,-4.3069,-4.3342,-4.3701,-4.3323,-4.3227,-4.3347,-4.3885,-4.3768,-4.3676,-4.4207,-4.4468,-4.4615,-4.4615,-4.4615,-4.4615,-4.4615,-4.4615,-4.4615,-4.4615,-4.4615,-4.4615,-4.4615,-4.4615,-4.4615,-4.4615,-4.4615,-4.4615,-4.4615,-4.4615,-4.4615,-4.4615,-4.4615,-4.4497,-4.4293,-4.4497,-4.4497,-4.4293,-4.4497,-4.4615,-4.4615,-4.4615,-4.4615,0.0,0.0,0.0,-4.253,0.0,0.0,0.0,0.0,-4.1175,0.0,0.0,0.0,0.0,0.0,-3.9373,-3.9373,-3.9373,0.0,0.0,0.0,0.0,0.0,0.0,0.0,0.0,0.0,0.0,0.0,0.0,0.0,-4.0434,-4.1778,-4.2823,-4.3531,-4.4919,-4.5697,-4.5697,-4.5697,-4.5697,-4.5697,-4.4924,-4.4548,-4.451,-4.3732,-4.3369,-4.3448,-4.4205,-4.4548,-4.4624,-4.5442,-4.5258,-4.451,-4.4548,-4.4236,-4.3996,-4.5845,-4.606,-4.5405,-4.5478,-4.5442,-4.5405,-4.5478,-4.6588,-4.7737,-4.7035,-4.6814,-4.6648,-4.5928,-4.5668,-4.5329,-4.3975,-4.416,-4.4304,-4.287,-4.2552,-4.2552,-4.2552,-4.3075,-4.3495,-4.3525,-4.4121,-4.4615,-4.4615,-4.4615,-4.4615,-4.4615,-4.4615,-4.4615,-4.4615,-4.4615,-4.4615,-4.4615,-4.4615,-4.4615,-4.4615,-4.4615,-4.4615,-4.4615,-4.4615,-4.4615,-4.4615,-4.4615,-4.4265,-4.3558,-4.4236,-4.4236,-4.3558,-4.4236,-4.4615,-4.4615,-4.4615,-4.4615,0.0,0.0,-4.323,-4.306,0.0,0.0,0.0,0.0,0.0,0.0,0.0,0.0,0.0,0.0,-3.9918,-3.9463,-3.9373,-3.9373,0.0,0.0,0.0,0.0,0.0,0.0,0.0,0.0,0.0,0.0,0.0,0.0,0.0,-4.1016,-4.1896,-4.21,-4.3427,-4.412,-4.412,-4.412,-4.412,-4.412,-4.3849,-4.3693,-4.3693,-4.3448,-4.329,-4.3329,-4.3606,-4.3693,-4.3771,-4.4586,-4.4434,-4.3771,-4.4282,-4.4082,-4.3606,-4.4924,-4.4999,-4.4465,-4.4465,-4.4381,-4.4381,-4.4999,-4.5665,-4.6308,-4.6518,-4.6357,-4.5998,-4.5821,-4.5056,-4.4218,-4.3761,-4.3485,-4.3168,-4.2682,-4.2202,-4.1949,-4.2395,-4.2332,-4.2458,-4.3317,-4.3706,-4.403,-4.4497,-4.4615,-4.4615,-4.4615,-4.4615,-4.4615,-4.4615,-4.4615,-4.4615,-4.4615,-4.4615,-4.4615,-4.4615,-4.4615,-4.4615,-4.4615,-4.4615,-4.4615,-4.4615,-4.4615,-4.4468,-4.4236,-4.3972,-4.3735,-4.3495,-4.3735,-4.3885,-4.3885,-4.4384,-4.4615,-4.3648,-4.3469,0.0,-4.329,-4.329,0.0,-4.329,0.0,0.0,0.0,0.0,0.0,0.0,0.0,-4.0277,-3.9828,-3.9559,-3.9373,0.0,-3.9373,0.0,0.0,0.0,0.0,0.0,0.0,0.0,0.0,-3.9373,0.0,0.0,0.0,-4.1145,-4.1422,-4.2432,-4.309,-4.329,-4.329,-4.329,-4.329,-4.329,-4.329,-4.329,-4.329,-4.329,-4.329,-4.329,-4.329,-4.3329,-4.3849,-4.3771,-4.3369,-4.3888,-4.3771,-4.3409,-4.412,-4.4189,-4.391,-4.391,-4.3793,-4.3793,-4.4389,-4.4924,-4.5405,-4.5917,-4.5877,-4.5611,-4.5715,-4.5059,-4.4232,-4.3756,-4.3485,-4.3295,-4.3008,-4.2205,-4.1736,-4.2397,-4.1979,-4.1787,-4.2614,-4.2984,-4.3347,-4.4093,-4.4207,-4.4293,-4.4587,-4.4615,-4.4615,-4.4615,-4.4615,-4.4615,-4.4615,-4.4615,-4.4615,-4.4615,-4.4615,-4.4615,-4.4615,-4.4615,-4.4615,-4.4615,-4.4615,-4.4603,-4.4644,-4.4169,-4.378,-4.3561,-4.3509,-4.3376,-4.3166,-4.3617,-4.4006]},{"header":{"parameterUnit":"m.s-1","parameterCategory":1,"la1":30.6,"la2":29.2853,"lo1":-89.7004,"lo2":-87.6739,"dy":0.0162,"dx":0.0183,"nx":112,"ny":82,"refTime":"2024-04-27T06:00:00:Z","depth":0,"parameterNumber":3,"parameterNumberName":"V-component_of_WINDS"},"data":[0.0,0.0,0.0,0.0,0.0,0.0,0.0,0.0,0.0,0.0,0.0,0.0,0.0,0.0,0.0,0.0,0.0,0.0,0.0,0.0,0.0,0.0,0.0,0.0,0.0,0.0,0.0,0.0,0.0,0.0,0.0,0.0,0.0,0.0,0.0,0.0,0.0,0.0,0.0,0.0,0.0,0.0,0.0,0.0,0.0,0.0,0.0,0.0,0.0,0.0,0.0,0.0,0.0,0.0,0.0,0.0,0.0,0.0,0.0,0.0,0.0,0.0,0.0,0.0,0.0,0.0,0.0,0.0,0.0,0.0,0.0,0.0,0.0,0.0,0.0,0.0,0.0,0.0,0.0,0.0,0.0,0.0,0.0,0.0,0.0,0.0,0.0,0.0,0.0,0.0,0.8009,0.7961,0.7961,0.7949,0.7901,0.7901,0.8062,0.8474,0.0,0.0,0.0,0.0,0.0,0.0,0.0,0.0,0.0,0.0,0.0,0.0,0.0,0.0,0.0,0.0,0.0,0.0,0.0,0.0,0.0,0.0,0.0,0.0,0.0,0.0,0.0,0.0,0.0,0.0,0.0,0.0,0.0,0.0,0.0,0.0,0.0,0.0,0.0,0.0,0.0,0.0,0.0,0.0,0.0,0.0,0.0,0.0,0.0,0.0,0.0,0.0,0.0,0.0,0.0,0.0,0.0,0.0,0.0,0.0,0.0,0.0,0.0,0.0,0.0,0.0,0.0,0.0,0.0,0.0,0.0,0.0,0.0,0.0,0.0,0.0,0.0,0.0,0.0,0.0,0.0,0.0,0.0,0.0,0.0,0.0,0.0,0.0,0.0,0.0,0.0,0.0,0.0,0.0,0.0,0.0,0.0,0.0,0.0,0.0,0.0,0.0,0.0,0.0,0.8506,0.8249,0.8237,0.8141,0.7925,0.7901,0.7928,0.8008,0.0,0.0,0.0,0.0,0.0,0.0,0.0,0.0,0.0,0.0,0.0,0.0,0.0,0.0,0.0,0.0,0.0,0.0,0.0,0.0,0.0,0.0,0.0,0.0,0.0,0.0,0.0,0.0,0.0,0.0,0.0,0.0,0.0,0.0,0.0,0.0,0.0,0.0,0.0,0.0,0.0,0.0,0.0,0.0,0.0,0.0,0.0,0.0,0.0,0.0,0.0,0.0,0.0,0.0,0.0,0.0,0.0,0.0,0.0,0.0,0.0,0.0,0.0,0.0,0.0,0.0,0.0,0.0,0.0,0.0,0.0,0.0,0.0,0.0,0.0,0.0,0.0,0.0,0.0,0.0,0.0,0.0,0.0,0.0,0.0,0.0,0.0,0.0,0.0,0.0,0.0,0.0,0.0,0.0,0.0,0.0,0.0,0.0,0.0,0.0,0.0,0.0,0.0,0.8638,0.8662,0.8542,0.853,0.8421,0.8129,0.8227,0.8263,0.8275,0.8923,0.0,0.0,0.0,0.0,0.0,0.0,0.0,0.0,0.0,0.0,0.0,0.0,0.0,0.0,0.0,0.0,0.0,0.0,0.0,0.0,0.0,0.0,0.0,0.0,0.0,0.0,0.0,0.0,0.0,0.0,0.0,0.0,0.0,0.0,0.0,0.0,0.0,0.0,0.0,0.0,0.0,0.0,0.0,0.0,0.0,0.0,0.0,0.0,0.0,0.0,0.0,0.0,0.0,0.0,0.0,0.0,0.0,0.0,0.0,0.0,0.0,0.0,0.0,0.0,0.0,0.0,0.0,0.0,0.0,0.0,0.0,0.0,0.0,0.0,0.0,0.0,0.0,0.0,0.0,0.0,0.0,0.0,0.0,0.0,0.0,0.0,0.0,0.0,0.0,0.0,0.0,0.0,0.0,0.0,0.0,0.0,0.0,0.0,0.0,0.0,0.0,0.0,0.8903,0.8866,0.8806,0.8794,0.8698,0.8405,0.8523,0.8596,0.8536,0.9097,0.0,0.0,0.0,0.0,0.0,0.0,0.0,0.0,0.0,0.0,0.0,0.0,0.0,0.0,0.0,0.0,0.0,0.0,0.0,0.0,0.0,0.0,0.0,0.0,0.0,0.0,0.0,0.0,0.0,0.0,0.0,0.0,0.0,0.0,0.0,0.0,0.0,0.0,0.0,0.0,0.0,0.0,0.0,0.0,0.0,0.0,0.0,0.0,0.0,0.0,0.0,0.0,0.0,0.0,0.0,0.0,0.0,0.0,0.0,0.0,0.0,0.0,0.0,0.0,0.0,0.0,0.0,0.0,0.0,0.0,0.0,0.0,0.0,0.0,0.0,0.0,0.0,0.0,0.0,0.0,0.0,0.0,0.0,0.0,0.0,0.0,0.0,0.0,0.0,0.0,0.0,0.0,0.0,0.0,0.0,0.0,0.0,0.0,0.0,0.0,0.0,0.0,0.9456,0.936,0.9095,0.9071,0.8963,0.8698,0.8674,0.8595,0.8329,0.9109,0.0,0.0,0.0,0.0,0.0,0.0,0.0,0.0,0.0,0.0,0.0,0.0,0.0,0.0,0.0,0.0,0.0,0.0,0.0,0.0,0.0,0.0,0.0,0.0,0.0,0.0,0.0,0.0,0.0,0.0,0.0,0.0,0.0,0.0,0.0,0.0,0.0,0.0,0.0,0.0,0.0,0.0,0.0,0.0,0.0,0.0,0.0,0.0,0.0,0.0,0.0,0.0,0.0,0.0,0.0,0.0,0.0,0.0,0.0,0.0,0.0,0.0,0.0,0.0,0.0,0.0,0.0,0.0,0.0,0.0,0.0,0.0,0.0,0.0,0.0,0.0,0.0,0.0,0.0,0.0,0.0,0.0,0.0,0.0,0.0,0.0,0.0,0.0,0.0,0.0,0.0,0.0,0.0,0.0,0.0,0.0,0.0,0.0,0.0,0.0,0.0,0.0,0.9516,0.9468,0.0,0.936,0.9251,0.8975,0.9053,0.9033,0.8751,0.0,0.0,0.0,0.0,0.0,0.0,0.0,0.0,0.0,0.0,0.0,0.0,0.0,0.0,0.0,0.0,0.0,0.0,0.0,0.0,0.0,0.0,0.0,0.0,0.0,0.0,0.0,0.0,0.0,0.0,0.0,0.0,0.0,0.0,0.0,0.0,0.0,0.0,0.0,0.0,0.0,0.0,0.0,0.0,0.0,0.0,0.0,0.0,0.0,0.0,0.0,0.0,0.0,0.0,0.0,0.0,0.0,0.0,0.0,0.0,0.0,0.0,0.0,0.0,0.0,0.0,0.0,0.0,0.0,0.0,0.0,0.0,0.0,0.0,0.0,0.0,0.0,0.0,0.0,0.0,0.0,0.0,0.0,0.0,0.0,0.0,0.0,0.0,0.0,0.0,0.0,0.0,0.0,0.0,0.0,0.0,0.0,0.0,0.0,0.0,0.0,0.0,0.9516,0.9516,0.9516,0.0,0.9516,0.9432,0.9333,0.9457,0.9438,0.9241,0.0,0.0,0.0,0.0,0.0,0.0,0.0,0.0,0.0,0.0,0.0,0.0,0.0,0.0,0.0,0.0,0.0,0.0,0.0,0.0,0.0,0.0,0.0,0.0,0.0,0.0,0.0,0.0,0.0,0.0,0.0,0.0,0.0,0.0,0.0,0.0,0.0,0.0,0.0,0.0,0.0,0.0,0.0,0.0,0.0,0.0,0.0,0.0,0.0,0.0,0.0,0.0,0.0,0.0,0.0,0.0,0.0,0.0,0.0,0.0,0.0,0.0,0.0,0.0,0.0,0.0,0.0,0.0,0.0,0.0,0.0,0.0,0.0,0.0,0.0,0.0,0.0,0.0,0.0,0.0,0.0,0.0,0.0,0.0,0.0,0.0,0.0,0.0,0.0,0.0,0.0,0.0,0.0,0.0,0.0,0.0,0.0,0.0,0.0,0.0,0.0,0.0,0.9516,0.9516,0.9516,0.9516,0.9516,0.958,0.9772,0.9804,0.9787,0.0,0.0,0.0,0.0,0.0,0.0,0.0,0.0,0.0,0.0,0.0,0.0,0.0,0.0,0.0,0.0,0.0,0.0,0.0,0.0,0.0,0.0,0.0,0.0,0.0,0.0,0.0,0.0,0.0,0.0,0.0,0.0,0.0,0.0,0.0,0.0,0.0,0.0,0.0,0.0,0.0,0.0,0.0,0.0,0.0,0.0,0.0,0.0,0.0,0.0,0.0,0.0,0.0,0.0,0.0,0.0,0.0,0.0,0.0,0.0,0.0,0.0,0.0,0.0,0.0,0.0,0.0,0.0,0.0,0.0,0.0,0.0,0.0,0.0,0.0,0.0,0.0,0.0,0.0,0.0,0.0,0.0,0.0,0.0,0.0,0.0,0.0,0.0,0.0,0.0,0.0,0.0,0.0,0.0,0.0,0.0,0.0,0.0,0.0,0.0,0.0,0.0,0.0,0.9516,0.9516,0.9516,0.9516,0.9516,0.9516,0.958,0.9708,0.9799,0.9787,0.0,0.0,0.0,0.0,0.0,0.0,0.0,0.0,0.0,0.0,0.0,0.0,0.0,0.0,0.0,0.0,0.0,0.0,0.0,0.0,0.0,0.0,0.0,0.0,0.0,0.0,0.0,0.0,0.0,0.0,0.0,0.0,0.0,0.0,0.0,0.0,0.0,0.0,0.0,0.0,0.0,0.0,0.0,0.0,0.0,0.0,0.0,0.0,0.0,0.0,0.0,0.0,0.0,0.0,0.0,0.0,0.0,0.0,0.0,0.0,0.0,0.0,0.0,0.0,0.0,0.0,0.0,0.0,0.0,0.0,0.0,0.0,0.0,0.0,0.0,0.0,0.0,0.0,0.0,0.0,0.0,0.0,0.0,0.0,0.0,0.0,0.0,0.0,0.0,0.0,0.0,0.0,0.0,0.0,0.0,0.0,0.0,0.0,0.0,0.0,0.0,0.0,0.9516,0.9516,0.9516,0.9516,0.9516,0.9548,0.9612,0.974,0.9868,0.9996,0.0,0.0,0.0,0.0,0.0,0.0,0.0,0.0,0.0,0.0,0.0,0.0,0.0,0.0,0.0,0.0,0.0,0.0,0.0,0.0,0.0,0.0,0.0,0.0,0.0,0.0,0.0,0.0,0.0,0.0,0.0,0.0,0.0,0.0,0.0,0.0,0.0,0.0,0.0,0.0,0.0,0.0,0.0,0.0,0.0,0.0,0.0,0.0,0.0,0.0,0.0,0.0,0.0,0.0,0.0,0.0,0.0,0.0,0.0,0.0,0.0,0.0,0.0,0.0,0.0,0.0,0.0,0.0,0.0,0.0,0.0,0.0,0.0,0.0,0.0,0.0,0.0,0.0,0.0,0.0,0.0,0.0,0.0,0.0,0.0,0.0,0.0,0.0,0.0,0.0,0.0,0.0,0.0,0.0,0.0,0.0,0.0,0.0,0.0,0.0,0.0,0.0,0.9552,0.956,0.9548,0.9548,0.9548,0.9612,0.9804,0.9836,0.9964,1.0238,0.0,0.0,0.0,0.0,0.0,0.0,0.0,0.0,0.0,0.0,0.0,0.0,0.0,0.0,0.0,0.0,0.0,0.0,0.0,0.0,0.0,0.0,0.0,0.0,0.0,0.0,0.0,0.0,0.0,0.0,0.0,0.0,0.0,0.0,0.0,0.0,0.0,0.0,0.0,0.0,0.0,0.0,0.0,0.0,0.0,0.0,0.0,0.0,0.0,0.0,0.0,0.0,0.0,0.0,0.0,0.0,0.0,0.0,0.0,0.0,1.1624,0.0,0.0,0.0,0.0,0.0,0.0,0.0,0.0,0.0,0.0,0.0,0.0,0.0,0.0,0.0,0.0,0.0,0.0,0.0,0.0,0.0,0.0,0.0,0.0,0.0,0.0,0.0,0.0,0.0,0.0,0.0,0.0,0.0,0.0,0.0,0.0,0.0,0.0,0.0,0.0,0.0,1.006,0.9961,0.9888,0.9888,0.9888,0.9919,0.9951,1.011,1.0142,1.0079,1.0364,0.0,0.0,0.0,0.0,0.0,0.0,0.0,0.0,0.0,0.0,0.0,0.0,0.0,0.0,0.0,0.0,0.0,0.0,0.0,0.0,0.0,0.0,0.0,0.0,0.0,0.0,0.0,0.0,0.0,0.0,0.0,0.0,0.0,0.0,0.0,0.0,0.0,0.0,0.0,0.0,0.0,0.0,0.0,0.0,0.0,0.0,0.0,0.0,0.0,0.0,0.0,0.0,0.0,0.0,0.0,0.0,0.0,0.0,0.0,0.0,1.1477,0.0,0.0,0.0,0.0,0.0,0.0,0.0,0.0,0.0,0.0,0.0,0.0,0.0,0.0,0.0,0.0,0.0,0.0,0.0,0.0,0.0,0.0,0.0,0.0,0.0,0.0,0.0,0.0,0.0,0.0,0.0,0.0,0.0,0.0,0.0,0.0,0.0,0.0,0.0,0.0,1.0263,1.0164,1.0088,1.0088,1.0039,0.9983,0.9983,1.011,1.0142,1.0142,1.0333,0.0,0.0,0.0,0.0,0.0,0.0,0.0,0.0,0.0,0.0,0.0,0.0,0.0,0.0,0.0,0.0,0.0,0.0,0.0,0.0,0.0,0.0,0.0,0.0,0.0,0.0,0.0,0.0,0.0,0.0,0.0,0.0,0.0,0.0,0.0,0.0,0.0,0.0,0.0,0.0,0.0,0.0,0.0,0.0,0.0,0.0,0.0,0.0,0.0,0.0,0.0,0.0,0.0,1.2975,1.2856,1.2697,1.2697,1.2697,1.2671,1.2184,1.1928,1.1853,0.0,0.0,0.0,0.0,0.0,0.0,0.0,0.0,0.0,0.0,0.0,0.0,0.0,0.0,0.0,0.0,0.0,0.0,0.0,0.0,0.0,0.0,0.0,0.0,0.0,1.0606,1.0466,0.0,0.0,0.0,0.0,0.0,0.0,0.0,0.0,0.0,0.0,0.0,0.0,1.0428,1.0402,1.0409,1.0376,1.0256,1.0187,1.0187,1.0136,1.0174,1.0333,1.0333,1.0428,0.0,0.0,0.0,0.0,0.0,0.0,0.0,0.0,0.0,0.0,0.0,0.0,0.0,0.0,0.0,0.0,0.0,0.0,0.0,0.0,0.0,0.0,0.0,0.0,0.0,0.0,0.0,0.0,0.0,0.0,0.0,0.0,1.4006,1.453,0.0,0.0,0.0,0.0,0.0,0.0,0.0,0.0,0.0,0.0,0.0,0.0,0.0,1.3106,1.3146,1.3146,1.3173,1.3174,1.3174,1.3134,1.3134,1.3134,1.3134,1.3121,1.3041,0.0,1.2477,1.2453,0.0,0.0,0.0,0.0,0.0,0.0,0.0,0.0,0.0,0.0,0.0,0.0,0.0,0.0,0.0,0.0,0.0,0.0,0.0,0.0,0.0,0.0,1.1083,1.1451,1.1267,1.1083,0.0,1.0896,1.0333,1.0298,1.0333,0.0,0.0,0.0,0.0,0.0,0.0,0.0,1.0921,1.1092,1.1165,1.0994,1.0902,1.0876,1.0876,1.0637,1.0523,1.0555,1.0555,1.0555,1.0586,1.064,0.0,0.0,0.0,0.0,0.0,0.0,0.0,0.0,0.0,0.0,0.0,0.0,0.0,0.0,0.0,0.0,0.0,0.0,0.0,0.0,0.0,0.0,0.0,0.0,0.0,0.0,0.0,0.0,0.0,1.3934,1.3521,1.36,1.3294,1.329,0.0,0.0,0.0,0.0,0.0,0.0,0.0,0.0,0.0,1.3213,1.3213,1.3293,1.3413,1.3413,1.3534,1.3707,1.3707,1.3707,1.3707,1.3707,1.3707,1.3707,1.3707,1.3625,1.3421,1.3041,1.2726,1.246,0.0,0.0,0.0,0.0,1.2389,1.2389,1.2466,1.2543,0.0,0.0,0.0,0.0,0.0,0.0,0.0,0.0,0.0,0.0,0.0,0.0,0.0,1.1787,1.1639,1.1477,1.1663,1.1363,1.1092,0.0,1.1092,1.1056,1.0948,0.0,0.0,0.0,0.0,0.0,1.1412,1.1459,1.1467,1.1396,1.1307,1.1169,1.1009,1.0875,1.076,1.06,1.0586,1.0586,1.0586,1.0586,1.0658,0.0,0.0,0.0,0.0,0.0,0.0,0.0,0.0,0.0,0.0,0.0,0.0,0.0,0.0,0.0,0.0,0.0,0.0,0.0,0.0,0.0,0.0,0.0,0.0,0.0,0.0,0.0,0.0,1.3526,1.329,1.2954,1.2904,1.2998,0.0,0.0,0.0,0.0,0.0,0.0,1.344,1.344,1.344,1.344,1.3507,1.3654,1.3826,1.3906,1.4095,1.4309,1.4309,1.4309,1.4309,1.4309,1.4309,1.4309,1.4309,1.4309,1.4255,1.3601,1.312,1.289,1.3068,1.3054,1.2947,1.3081,1.3015,1.2896,1.2975,1.2975,1.2936,1.2674,0.0,1.2826,1.241,0.0,0.0,0.0,0.0,1.2042,1.2193,1.208,1.1967,1.2118,1.1991,1.1827,1.1852,1.1801,1.17,0.0,1.17,1.1639,1.149,0.0,0.0,0.0,0.0,1.175,1.1713,1.1741,1.1768,1.1732,1.1611,1.145,1.1236,1.1076,1.0902,1.072,1.0626,1.0586,1.0586,1.0586,1.0586,1.0586,0.0,0.0,0.0,0.0,0.0,0.0,0.0,0.0,0.0,0.0,0.0,0.0,0.0,0.0,0.0,0.0,0.0,0.0,0.0,0.0,0.0,0.0,0.0,0.0,0.0,0.0,0.0,0.0,0.0,1.3186,1.3186,0.0,0.0,0.0,0.0,1.3586,1.3881,1.4041,1.4041,1.4041,1.4041,1.4041,1.4309,1.4456,1.4426,1.4763,1.4955,1.4968,1.4968,1.4968,1.4968,1.4968,1.4968,1.4968,1.4968,1.4968,1.4901,1.3933,1.3622,1.3597,1.3104,1.2932,1.2975,1.2947,1.2896,1.2936,1.3134,1.3174,1.3174,1.316,1.3186,1.3186,1.3173,1.312,0.0,0.0,1.3002,1.2844,1.2844,1.2725,1.2566,1.2566,1.2362,1.2209,1.2363,1.2017,1.17,0.0,1.17,1.17,1.17,0.0,1.17,1.17,1.1861,1.1935,1.17,1.2033,1.2204,1.1983,1.1916,1.1873,1.1859,1.1316,1.0982,1.0969,1.0747,1.0586,1.0586,1.0586,1.0586,1.0586,1.0604,0.0,0.0,0.0,0.0,0.0,0.0,0.0,0.0,0.0,0.0,0.0,0.0,0.0,0.0,0.0,0.0,0.0,0.0,0.0,0.0,0.0,0.0,0.0,0.0,0.0,0.0,0.0,0.0,1.3427,1.3453,0.0,1.3761,1.3868,1.3935,1.3935,1.4202,1.4362,1.4362,1.4549,1.47,1.47,1.475,1.4803,1.4803,1.4955,1.5008,1.5008,1.5008,1.5008,1.5008,1.5008,1.5008,1.5008,1.5008,1.5008,1.4981,1.4629,1.4399,1.4206,1.4008,1.3833,1.3712,1.369,1.3568,1.343,1.3513,1.3513,1.3528,1.3466,1.332,1.3213,1.3213,1.3213,1.3213,1.3213,1.3134,1.3094,1.3094,1.3055,1.2975,1.2975,1.2897,1.2857,1.2896,1.2765,1.2647,1.2647,1.227,1.1898,1.1898,1.2009,1.2046,1.1898,1.2083,1.2157,1.212,1.2231,1.2268,1.2194,1.2175,1.2114,1.1913,1.1712,1.1396,1.1022,1.0902,1.0787,1.06,1.0586,1.0586,1.0586,1.0586,1.0546,0.0,0.0,0.0,0.0,0.0,0.0,0.0,0.0,0.0,0.0,0.0,0.0,0.0,0.0,0.0,0.0,0.0,0.0,0.0,0.0,0.0,0.0,0.0,0.0,0.0,0.0,1.3574,1.3774,1.3746,1.3908,1.4202,1.4229,1.4282,1.4419,1.4563,1.4669,1.4669,1.4901,1.5048,1.511,1.5204,1.5297,1.545,1.5544,1.5551,1.5551,1.5551,1.5551,1.5551,1.5551,1.5551,1.5551,1.5551,1.5498,1.545,1.545,1.5177,1.4803,1.471,1.4549,1.4389,1.4389,1.4236,1.3959,1.3854,1.3828,1.3831,1.3771,1.3667,1.3507,1.3507,1.3507,1.3507,1.3507,1.3507,1.3507,1.3507,1.3507,1.3467,1.3386,1.3346,1.332,1.324,1.32,1.3213,1.3213,1.2684,1.2265,1.2265,1.2297,1.2268,1.212,1.2231,1.2305,1.2305,1.2305,1.2305,1.2305,1.2305,1.2225,1.2074,1.1966,1.1739,1.1316,1.1102,1.0902,1.0747,1.064,1.0586,1.0586,1.0586,1.0555,1.0491,0.0,0.0,0.0,0.0,0.0,0.0,0.0,0.0,0.0,0.0,0.0,0.0,0.0,0.0,0.0,0.0,0.0,0.0,0.0,0.0,0.0,0.0,0.0,1.425,1.4124,1.4095,1.4095,1.4095,1.4215,1.4509,1.4536,1.4656,1.4981,1.5022,1.5035,1.5035,1.5048,1.515,1.5431,1.5712,1.5992,1.6335,1.6567,1.67,1.67,1.67,1.67,1.67,1.67,1.67,1.67,1.67,1.654,1.6286,1.6286,1.5952,1.5404,1.5142,1.5022,1.5008,1.5008,1.4776,1.4496,1.4215,1.4108,1.4108,1.4108,1.4108,1.4108,1.4108,1.4095,1.4095,1.4095,1.4082,1.4082,1.4082,1.4082,1.4039,1.3773,1.3647,1.3572,1.3367,1.3279,1.324,1.324,1.3025,1.2811,1.2797,1.2556,1.2318,1.2318,1.2305,0.0,1.2305,1.2305,1.2305,1.2305,1.2305,1.2305,1.2305,1.2051,1.1913,1.1899,1.1329,1.1009,1.0995,1.076,1.06,1.0586,1.0586,1.0491,1.0301,0.0,0.0,0.0,0.0,0.0,0.0,0.0,0.0,0.0,0.0,0.0,0.0,0.0,0.0,0.0,0.0,0.0,0.0,0.0,0.0,0.0,1.5269,1.4573,1.4992,1.4503,1.4162,1.4376,1.4402,1.4522,1.4816,1.4843,1.4914,1.4995,1.5351,1.5591,1.5591,1.5992,1.6259,1.6339,1.642,1.65,1.658,1.666,1.67,1.67,1.67,1.67,1.67,1.67,1.67,1.67,1.67,1.666,1.658,1.658,1.6486,1.6273,1.5551,1.515,1.5008,1.5008,1.4955,1.483,1.4794,1.4767,1.4767,1.4767,1.4767,1.4727,1.4469,1.4402,1.4362,1.4148,1.4082,1.4082,1.4082,1.4082,1.4082,1.3997,1.3986,1.3961,1.3878,1.3866,1.3841,1.3841,1.3601,1.3333,1.312,1.2864,1.2663,1.2663,1.2476,0.0,1.2305,1.2305,1.2305,1.2305,1.2305,1.2305,1.2305,1.2225,1.2091,1.1913,1.1752,1.1471,1.1009,1.0915,1.0814,1.06,1.0586,1.0491,0.0,0.0,0.0,0.0,0.0,0.0,0.0,0.0,0.0,0.0,0.0,0.0,0.0,0.0,0.0,0.0,0.0,0.0,0.0,0.0,0.0,0.0,1.4839,1.444,1.4937,1.4597,1.4376,1.4669,1.471,1.4816,1.5156,1.5257,1.5378,1.5544,1.5939,1.6192,1.6192,1.6513,1.6767,1.6887,1.6887,1.6954,1.7074,1.7074,1.7074,1.7074,1.7074,1.7074,1.7074,1.7074,1.7074,0.0,1.7074,1.7007,1.6887,1.6887,1.682,0.0,0.0,0.0,0.0,0.0,1.5196,1.5169,1.5048,1.5008,1.5008,1.5008,1.5008,1.4981,1.4763,1.471,1.4669,1.4509,1.4499,1.4499,1.4499,1.4499,1.4429,1.4295,1.4269,1.4242,1.4108,1.4082,1.4082,1.4082,0.0,0.0,1.3614,1.3227,1.2985,1.2985,1.2717,1.2529,1.2529,1.2385,1.2305,1.2305,1.2305,1.2305,1.2305,1.2305,0.0,0.0,0.0,1.1645,1.1022,1.0995,0.0,0.0,0.0,1.0523,1.0428,0.0,0.0,0.0,1.0451,1.0208,0.0,0.0,0.0,0.0,0.0,0.0,0.0,0.0,0.0,0.0,0.0,0.0,0.0,0.0,0.0,0.0,1.4877,1.4589,1.4616,1.4643,1.475,1.5035,1.5089,1.5223,1.5471,1.5752,1.6032,1.6299,1.6593,1.6754,1.6754,0.0,0.0,0.0,0.0,1.742,1.7635,1.7662,1.7689,1.7689,1.7689,1.7662,1.7635,1.7635,1.7609,1.7582,1.7582,1.7435,1.7246,1.7246,1.7099,1.6794,1.6727,1.654,1.6259,1.5738,1.5524,1.5458,1.5249,0.0,0.0,1.5102,1.5102,1.5102,1.5062,1.5062,1.5048,1.5022,1.5008,1.5008,1.5008,1.5008,1.4941,1.4629,1.4576,1.4496,1.4242,1.4162,1.4135,1.4135,1.4108,1.4082,1.4082,1.3627,1.3267,1.3267,1.3038,1.2824,1.2784,1.2556,1.2345,1.2305,0.0,0.0,1.2305,1.2305,1.2305,1.2305,1.206,1.1672,1.1116,1.1035,1.0908,1.064,1.0613,1.0586,1.0586,1.0586,1.0491,1.0333,1.0071,0.9875,0.0,0.0,0.0,0.0,0.0,0.0,0.0,0.0,0.0,0.0,0.0,0.0,0.0,0.0,0.0,1.4847,1.4815,1.4963,1.519,1.5431,1.5511,1.5337,1.5524,1.5778,1.6072,1.6366,1.6553,1.662,1.6901,1.7112,1.7112,1.7288,0.0,1.7502,1.7742,1.7849,1.7902,1.8196,1.8317,1.8317,0.0,0.0,1.7902,1.7902,1.7822,1.7582,1.7582,1.7555,1.7502,1.7502,1.7462,1.7368,1.6887,1.6673,1.6607,1.65,1.6299,1.6147,1.6094,1.5858,1.5658,1.5658,1.5658,1.5618,1.5378,1.5311,0.0,1.5075,1.5008,1.5008,1.5008,1.5008,1.4995,1.4941,1.4883,1.4914,1.4847,1.4603,1.4442,1.4442,1.4242,1.4082,1.4082,1.3788,1.352,1.352,1.3307,1.3026,1.2811,1.273,1.261,1.2331,1.2305,1.2305,1.2305,1.2305,1.2305,1.2305,1.206,1.1859,1.1739,1.1249,1.0969,1.0915,1.0707,1.0586,1.0586,1.0586,1.06,1.0523,1.0312,1.0128,0.0,0.0,0.0,0.0,0.0,0.0,0.0,0.0,0.0,0.0,0.0,1.8353,1.7119,0.0,1.6154,1.4957,1.499,1.5284,1.5578,1.5858,1.5992,1.5858,1.6086,1.6326,1.6473,1.6754,1.6927,1.6927,1.7259,1.7435,1.7595,1.7729,1.7889,1.8036,1.8183,1.8263,1.8263,1.8424,1.849,1.849,1.849,1.841,1.8263,1.8263,1.8183,1.8023,1.7876,1.7809,1.7809,1.7649,1.7582,1.7555,1.7261,1.7061,1.6914,1.6767,1.662,1.6486,1.6486,1.6393,1.6246,1.6099,1.6046,1.5992,1.5698,1.5618,1.5578,1.5431,1.5391,1.5391,1.5391,1.5391,1.5364,1.5217,1.5177,1.5137,1.5035,1.4888,1.4736,1.4736,1.4509,1.4309,1.4309,1.4055,1.3868,1.3868,1.3573,1.3373,1.3213,1.2971,1.273,1.2583,1.2385,1.2305,1.2305,1.2305,1.2305,1.2305,1.2171,1.206,1.1913,1.1618,1.1356,1.1209,1.1062,1.0915,1.0814,1.0814,1.0669,1.046,1.046,1.0301,0.0,0.0,0.0,0.0,0.0,0.0,0.0,1.8883,1.87,1.808,1.8501,1.8498,1.6893,1.6665,1.6343,1.5305,1.5378,1.5671,1.5952,1.6259,1.6496,1.6496,1.6647,1.6794,1.6794,1.7166,1.738,1.738,1.7595,1.7862,1.8062,1.8075,1.8237,1.8477,1.8544,1.8571,1.8571,1.8637,1.8664,1.8664,1.8664,1.8624,1.8571,1.8571,1.8544,1.8477,1.8183,1.7995,1.7969,1.7716,1.7582,1.7582,1.7582,1.7487,1.7259,1.6967,1.6847,1.6794,1.6794,1.6754,1.666,1.6433,1.6353,1.6299,1.6005,1.5912,1.5899,1.5798,1.5784,1.5784,1.5784,1.5784,1.5765,1.5538,1.5484,1.5418,1.5177,1.5129,1.5089,1.5089,1.4803,1.4589,1.4536,1.4322,1.4148,1.4095,1.3881,1.3666,1.3613,1.3213,1.2918,1.2797,1.2569,1.2358,1.2305,1.2305,1.2305,1.2305,1.2305,1.2198,1.1993,1.194,1.1757,1.1482,1.1415,1.1282,1.1076,1.1076,1.089,1.0535,1.0664,1.0469,2.0566,1.9392,1.8158,1.8158,1.7472,1.6942,0.0,1.7411,1.7508,1.7701,1.6885,1.6301,1.6872,1.6206,1.5616,1.5685,1.5979,1.6273,1.6567,1.6911,1.7099,1.7099,1.7125,1.7152,1.7152,1.7609,1.7889,1.7889,1.8223,1.8397,1.8437,1.8437,1.8464,1.849,1.8744,1.8878,1.8878,1.9132,1.9323,1.9323,1.9323,1.9132,1.8878,1.8878,1.8731,1.8477,1.8183,1.7995,1.7969,1.7716,1.7582,1.7582,1.7582,1.7569,1.7528,1.7488,1.738,1.7152,1.7152,1.6927,1.67,1.6673,1.666,1.6607,1.6313,1.6219,1.6166,1.5899,1.5784,1.5784,1.5784,1.5784,1.5771,1.5744,1.5778,1.5765,1.5738,1.5524,1.5351,1.5351,1.511,1.483,1.4563,1.4496,1.4389,1.4122,1.4055,1.3948,1.364,1.3547,1.3333,1.2837,1.2757,1.2623,1.2318,1.2305,1.2305,1.2305,1.2305,1.2291,1.2251,1.2047,1.1886,1.1859,1.1557,1.1375,1.1349,1.1349,1.1322,1.1261,1.1159,1.0717,1.9234,1.8894,1.8472,1.7714,1.7033,1.6667,1.7337,1.7497,1.74,1.7033,1.6906,1.6817,1.6548,1.629,1.6143,0.0,1.6326,1.6633,1.6978,1.7125,1.7259,1.7434,1.7569,1.7675,1.7675,1.7849,1.8062,1.829,1.8424,1.8557,1.8731,1.8744,1.8824,1.8998,1.9118,1.9185,1.9185,1.9305,1.943,1.943,1.943,1.9305,1.9185,1.9185,1.9025,1.8731,1.8555,1.8464,1.8277,1.7969,1.7836,1.7822,1.7649,1.7582,1.7582,1.7582,1.7502,1.7447,1.7447,1.7315,1.7194,1.7021,1.7018,1.6914,1.662,1.6526,1.646,1.6166,1.6086,1.6046,1.5872,1.5784,1.5784,1.5784,1.5784,1.5784,1.5784,1.5691,1.5645,1.5645,1.5418,1.5177,1.5044,1.475,1.4482,1.4362,1.4202,1.4041,1.3921,1.3706,1.3373,1.2851,1.2623,1.2438,1.2318,1.2305,1.2305,1.2305,1.2305,1.2305,1.2305,1.2184,1.2118,1.2118,1.1997,1.185,1.169,1.169,1.1597,1.1389,1.132,1.1099,1.8551,1.849,1.8417,1.7258,1.6707,1.661,1.7303,1.7466,1.732,1.6743,1.7085,1.7203,1.6391,1.6415,1.6557,1.6429,1.6633,1.6927,1.7286,1.7326,1.7434,1.7675,1.7862,1.8049,1.8222,1.8235,1.8384,1.8597,1.8691,1.8824,1.9038,1.9052,1.9145,1.9417,1.943,1.943,1.943,1.943,1.943,1.943,1.943,1.943,1.943,1.943,1.9252,1.9038,1.8958,1.8811,1.8584,1.8277,1.8103,1.7996,1.7796,1.7662,1.7582,1.7582,1.7582,1.7582,1.7582,1.7582,1.7542,1.7393,1.7326,1.7259,1.6914,1.6834,1.6767,1.6473,1.6393,1.6326,1.6032,1.5952,1.5925,1.5798,1.5784,1.5784,1.5784,1.5784,1.5784,1.5784,1.5658,1.5484,1.5404,1.5044,1.4736,1.4656,1.4389,1.4175,1.4095,1.3828,1.34,1.2971,1.2636,1.2385,1.2305,1.2305,1.2305,1.2305,1.2305,1.2305,1.2305,1.2305,1.2305,1.2305,1.2305,1.2198,1.202,1.202,1.1877,1.1663,1.1663,1.1607,1.9289,1.8423,1.7529,1.6654,1.6404,1.6492,1.686,1.6934,1.6976,1.7238,1.6936,1.6622,1.6574,1.6443,1.6415,1.6647,1.6991,1.7286,1.7528,1.7569,1.7689,1.7942,1.7982,1.8209,0.0,1.8891,1.8905,1.8905,1.9185,1.9403,1.9359,1.9359,1.9417,1.943,1.943,1.943,1.943,1.943,1.943,1.943,1.943,1.943,1.943,1.943,1.9359,1.939,1.9052,1.8918,1.8891,1.8597,1.8303,1.7995,1.7982,1.7849,1.7582,1.7582,1.7582,1.7582,1.7582,1.7582,1.7582,1.7569,1.7569,1.7515,1.7273,1.7192,1.7125,1.678,1.6687,1.662,1.6339,1.6259,1.6192,1.5899,1.5784,1.5784,1.5784,1.5784,1.5784,1.5784,1.5771,1.5725,1.5444,1.5378,1.5271,1.5035,1.4696,1.4402,1.4122,1.3828,1.3493,1.3227,1.2958,1.265,1.2331,1.2305,1.2305,1.2305,1.2305,1.2305,1.2305,1.2305,1.2305,1.2305,1.2305,1.2305,1.2291,1.2291,1.2278,1.2278,1.2278,1.2278,1.8679,1.8302,1.8173,1.7011,1.6857,1.7033,1.7135,1.7165,1.7194,1.7264,1.769,1.7743,1.6978,1.745,1.7831,1.735,1.7403,1.758,1.7845,1.7687,1.7702,1.7955,1.8223,0.0,0.0,0.0,0.0,1.9199,1.9319,1.943,1.943,1.943,1.943,1.943,1.943,1.943,1.943,1.943,1.943,1.943,1.943,1.943,1.943,1.943,1.943,1.9417,1.9265,1.9225,1.9199,1.8905,1.8718,1.8542,1.8142,1.7929,1.7862,1.7662,1.7582,1.7582,1.7582,1.7582,1.7582,1.7582,1.7582,1.7569,1.7462,1.7487,1.7382,1.7139,1.7058,1.6978,1.6633,1.642,1.6246,1.6152,1.5979,1.5784,1.5784,1.5784,1.5784,1.5784,1.5784,1.5744,1.5698,1.5524,1.5297,1.5048,1.471,1.4416,1.4122,1.3828,1.3573,1.3467,1.3092,1.2744,1.2636,1.2412,1.2305,1.2305,1.2305,1.2305,1.2305,1.2305,1.2305,1.2305,1.2305,1.2305,1.2305,1.2305,1.2305,1.2305,1.2305,1.2305,1.8487,1.819,1.8056,1.7261,1.7179,1.7279,1.7279,1.7279,1.7279,1.72,1.7731,1.8001,1.7182,1.7789,1.8215,1.7681,1.7603,1.7635,1.7859,1.7781,1.7862,1.8115,1.8464,1.8758,0.0,0.0,0.0,1.9359,1.943,1.943,1.943,1.943,1.943,1.943,1.943,1.943,1.943,1.943,1.943,1.943,1.943,1.943,1.943,1.943,1.943,1.943,1.943,1.943,1.9359,1.9158,1.9025,1.8878,1.8397,1.8143,1.7942,1.7689,1.7582,1.7582,1.7582,1.7582,1.7582,1.7582,1.7582,1.7582,1.7582,1.7582,1.7542,1.7407,1.7353,1.7286,1.6941,1.6727,1.6616,1.646,1.6286,1.6112,1.6005,1.5992,1.5952,1.5798,1.5784,1.5784,1.5784,1.5671,1.5458,1.5164,1.495,1.4683,1.4295,1.3988,1.372,1.3613,1.3293,1.3065,1.2958,1.2677,1.2502,1.2502,1.2358,1.2305,1.2305,1.2305,1.2305,1.2305,1.2305,1.2305,1.2305,1.2305,1.2305,1.2305,1.2305,1.2305,1.875,1.801,1.7279,1.7279,1.7279,1.7279,1.7279,1.7279,1.7246,1.7088,1.7347,1.7514,1.7287,1.7546,1.7798,1.7746,1.7669,1.7635,1.7635,1.7849,1.8102,0.0,0.0,0.0,0.0,0.0,0.0,1.943,0.0,1.943,1.943,1.943,1.943,1.943,1.943,1.943,1.943,1.943,1.943,1.943,1.9475,1.9475,1.9475,1.9475,1.9475,1.9475,1.943,1.943,1.943,1.943,1.9199,1.8918,1.8624,1.8317,1.8009,1.7716,1.7595,1.7582,1.7582,1.7582,1.7582,1.7582,1.7582,1.7582,1.7582,1.7582,1.7582,1.7582,1.7582,1.7515,1.73,1.7206,1.7125,1.6794,1.6714,1.6633,1.6353,1.6348,1.6206,1.5912,1.5798,1.5784,1.5784,1.5784,1.5691,1.5458,1.5404,1.519,1.4603,1.4282,1.3988,1.3653,1.3613,1.3493,1.3253,1.2985,1.2797,1.2784,1.2516,1.2318,1.2305,1.2305,1.2305,1.2305,1.2305,1.2305,1.2305,1.2305,1.2305,1.2305,1.2305,1.2305,1.7885,1.7512,1.7279,1.7279,1.7279,1.7279,1.7279,1.7279,1.7352,1.7552,1.8952,1.999,1.9361,1.9996,0.0,1.9846,1.8731,0.0,1.816,1.8063,0.0,1.845,0.0,1.9038,1.939,1.943,0.0,0.0,1.943,1.943,1.943,1.943,1.943,1.943,1.943,1.943,1.943,1.943,1.943,1.943,2.0328,2.0716,2.0716,2.0716,2.0716,2.0673,1.9764,1.943,1.943,1.943,1.9319,1.9225,1.8931,1.8624,1.833,1.8036,1.7782,1.7582,1.7582,1.7582,1.7582,1.7582,1.7582,1.7582,1.7582,1.7582,1.7582,1.7582,1.7582,1.7569,1.7541,1.7367,1.7179,1.7099,1.6874,1.6687,1.6607,1.6593,1.6513,1.6219,1.5979,1.5784,1.5784,1.5784,1.5758,1.5725,1.5538,1.519,1.4603,1.4456,1.4295,1.4001,1.3733,1.3573,1.3493,1.3267,1.2986,1.2797,1.2717,1.2569,1.2305,1.2305,1.2305,1.2305,1.2305,1.2305,1.2305,1.2305,1.2305,1.2305,1.2305,1.2305,1.7963,1.7652,1.7279,1.7279,1.7279,1.7323,1.7516,1.7428,1.7475,1.818,1.9383,2.0199,1.9836,2.0366,2.0651,0.0,0.0,0.0,1.8227,1.8238,1.8303,0.0,1.8865,0.0,1.9359,1.943,1.9591,0.0,1.9707,1.943,1.943,1.943,1.943,1.943,1.943,1.943,1.943,1.943,1.943,1.943,2.0097,2.0385,2.0443,2.0945,2.1174,2.1174,0.0,2.0673,2.0213,2.0213,1.988,1.939,1.9038,1.8824,1.8624,1.8155,1.7876,1.7769,1.7622,1.7582,1.7582,1.7582,1.7582,1.7582,1.7582,1.7582,1.7582,1.7582,1.7582,1.7582,1.7582,1.7514,1.7393,1.7393,1.7208,1.7061,1.6927,1.6901,1.678,1.6402,1.6139,1.5979,1.5845,1.615,1.6305,1.5879,1.606,1.5925,1.5008,1.4683,1.4456,1.4295,1.4015,1.3841,1.3841,1.3885,1.3718,1.3186,1.3402,1.322,1.2543,1.2529,1.2438,1.2305,1.2305,1.2305,1.2305,1.2305,1.2305,1.2305,1.2305,1.2305,1.8519,1.8056,1.7279,1.7279,1.7279,1.7399,1.782,1.772,1.7789,1.8926,1.9494,1.9781,1.9763,1.9962,1.9988,1.9435,0.0,1.8069,1.8227,1.8388,1.849,1.849,1.9011,1.943,1.943,1.9533,2.004,2.1117,2.0385,1.988,1.988,1.9707,1.9649,1.9649,1.9764,1.988,1.988,1.9707,1.9649,1.9649,1.9649,1.9649,1.9649,2.0888,2.146,2.1517,0.0,0.0,2.146,2.146,2.0831,1.9853,1.9364,1.9185,1.9077,1.8303,1.8022,1.7955,1.7689,1.7582,1.7582,1.7582,1.7582,1.7582,1.7582,1.7582,1.7582,1.7582,1.7582,1.7582,1.7582,1.7582,1.7635,1.7793,1.7793,1.7777,1.752,1.7425,1.7248,1.6733,1.6654,1.6566,1.6164,1.6885,1.7138,1.6163,1.6716,1.6897,1.5809,1.5143,1.4778,1.4696,1.4467,1.4333,1.4292,1.4571,1.4524,1.3804,1.4146,1.3967,1.3042,1.2914,1.2703,1.2371,1.2358,1.2419,1.2452,1.2342,1.2342,1.2452,1.2342,1.2305,1.8519,1.8056,1.7279,1.7279,1.7279,1.7527,1.8412,1.8566,1.8891,2.0115,2.1421,2.2197,2.1569,2.1794,2.1912,2.1574,1.9746,1.8579,1.9309,1.886,1.849,0.0,1.9011,1.943,1.943,2.027,0.0,0.0,0.0,2.2353,2.2353,2.146,2.0888,2.0888,2.1858,2.2353,2.2353,2.1402,2.0888,2.0888,2.0888,2.0888,2.0945,2.2127,2.2692,2.2692,2.2918,0.0,2.2692,2.2692,2.258,2.2297,2.1229,2.0642,2.02,1.8919,1.8263,1.7955,1.7689,1.7582,1.7582,1.7582,1.7582,1.7582,1.7582,1.7582,1.7582,1.7582,1.7582,1.7582,1.7582,1.7582,1.7845,1.8708,1.8916,1.8902,1.8844,1.8694,1.8477,1.8412,1.8634,1.8577,1.7673,1.8098,1.8195,1.7185,1.7185,1.7217,1.7019,1.6673,1.624,1.5634,1.5647,1.5559,1.5215,1.4615,1.4352,1.4643,1.4115,1.3909,1.4214,1.3512,1.2986,1.2717,1.2703,1.292,1.328,1.2622,1.2622,1.328,1.2622,1.2305,1.9239,1.8427,1.7419,1.7963,1.7699,1.7744,1.939,1.9293,1.9307,2.1107,2.2124,2.2563,2.2393,2.2735,2.2857,2.2416,2.0723,1.9657,2.0086,1.9438,1.914,1.9566,1.9623,1.9822,0.0,0.0,0.0,0.0,0.0,2.2353,2.2974,2.2467,2.2127,2.2127,2.2692,2.2974,2.2974,2.241,2.2127,2.2127,2.2127,2.2127,2.2199,2.3368,2.3927,2.3999,2.4612,0.0,2.3927,2.3927,2.3536,2.2918,2.2353,2.2035,2.1795,2.0907,1.9993,1.9134,1.8851,1.8587,1.8408,1.8408,1.8042,1.7582,1.7582,1.7582,1.774,1.8304,1.8408,1.8408,1.8408,1.8408,1.8565,1.9072,1.9642,1.9901,1.9332,1.9574,1.9664,1.8941,1.9391,1.9685,1.8797,1.9365,1.9467,1.8272,1.8519,1.8657,1.8149,1.8408,1.8065,1.6551,1.6528,1.6426,1.5769,1.5524,1.5362,1.5174,1.5201,1.5054,1.4731,1.4294,1.3756,1.3038,1.3025,1.3113,1.3345,1.3407,1.3407,1.3331,1.3276,1.2981,2.0286,1.9239,1.8102,1.8918,1.8519,1.8442,2.0479,2.0142,2.0041,2.2117,2.2648,2.2769,2.2942,2.3297,2.3438,2.285,2.1692,2.0877,2.1081,2.0545,2.0372,0.0,2.061,0.0,2.1117,0.0,0.0,0.0,0.0,0.0,2.2974,2.348,2.3648,2.3368,2.3648,2.376,2.376,2.348,2.3368,2.3368,2.3087,2.2974,2.303,2.4278,2.4778,2.4889,2.6081,0.0,0.0,2.5183,2.4612,2.376,2.348,2.3368,2.3335,2.2743,2.1682,2.053,2.0027,1.9702,1.9539,1.928,1.876,1.8251,1.7989,1.7937,1.8094,1.8968,1.9176,1.928,1.9487,1.9539,1.9642,1.9849,2.057,2.0979,2.0107,2.0621,2.0899,1.9821,2.04,2.0802,2.0004,2.0593,2.0749,1.935,1.9803,2.0014,1.9193,1.9803,1.9641,1.7811,1.7767,1.7493,1.663,1.6552,1.6366,1.5974,1.6247,1.6164,1.5579,1.5216,1.4545,1.3585,1.3373,1.3346,1.3437,1.3974,1.3934,1.3423,1.3771,1.3529,2.1275,2.0782,1.9968,2.0059,2.0014,2.024,2.1329,2.1535,2.1849,2.3332,2.3945,2.4055,2.3507,2.3767,2.3962,2.3619,2.2652,2.2181,2.2935,2.2651,2.2322,2.2162,0.0,0.0,0.0,0.0,0.0,0.0,0.0,0.0,2.303,2.5072,2.5789,2.4667,2.5679,2.6245,2.6245,2.5183,2.4612,2.4612,2.3536,2.2974,2.303,2.4278,2.4778,2.4889,2.6081,0.0,0.0,2.6409,2.6354,2.6136,2.5055,2.4612,2.445,2.3019,2.2157,2.1594,2.0225,2.0226,2.057,1.9539,1.9849,2.0416,1.9383,1.9072,1.9072,1.9176,1.9176,1.9435,2.0467,2.0723,2.0979,2.1962,2.2266,2.2316,2.2215,2.2266,2.2316,2.2181,2.2737,2.2804,2.1548,2.1813,2.1715,2.0354,2.0257,2.0257,2.0167,2.0257,2.024,2.0025,1.9741,1.9229,1.8422,1.6938,1.6572,1.7691,1.6329,1.6191,1.7664,1.6201,1.5163,1.4747,1.3953,1.3776,1.4219,1.362,1.362,1.418,1.3553,1.3252,2.1606,2.0962,2.0376,2.0962,2.0647,2.0602,2.2183,2.2094,2.2091,2.3512,2.4121,2.4411,2.444,2.4783,2.502,2.4941,2.3998,2.3434,2.3732,2.3496,2.3385,2.3877,2.3628,0.0,0.0,0.0,0.0,0.0,0.0,0.0,2.4111,2.5679,2.6354,2.5916,2.6354,2.6591,2.6591,2.6136,2.5861,2.5861,2.5404,2.5183,2.5183,2.5679,2.5861,2.5916,2.6409,0.0,0.0,2.6591,2.6591,2.6537,2.6081,2.5861,2.5844,2.5173,2.4299,2.3207,2.2401,2.2163,2.2092,2.1401,2.1946,2.2568,2.0775,1.9746,1.9487,2.0826,2.0723,2.0467,2.1607,2.1861,2.1962,2.2417,2.3038,2.3338,2.2636,2.3038,2.3338,2.2636,2.3263,2.3688,2.2835,2.2677,2.2418,2.1634,2.1275,2.1132,2.1132,2.1132,2.1132,2.1132,2.0819,2.0227,1.9393,1.8228,1.7804,1.8316,1.7466,1.7269,1.7957,1.735,1.6431,1.5204,1.4875,1.453,1.4172,1.4418,1.4418,1.4199,1.4769,1.4761,2.2094,2.1606,2.123,2.1917,2.1587,2.1409,2.2775,2.2599,2.2447,2.3557,2.4121,2.4551,2.5028,2.543,2.5693,2.5693,2.5069,2.4559,2.4559,2.459,2.4839,0.0,0.0,0.0,0.0,0.0,0.0,0.0,0.0,0.0,0.0,2.6245,2.6682,2.6591,2.6591,2.6591,2.6591,2.6591,2.6591,2.6591,2.6591,2.6591,2.6591,2.6591,2.6591,2.6591,0.0,0.0,0.0,2.6591,2.6591,2.6591,2.6591,2.6591,2.6591,2.6591,2.5829,2.4701,2.398,2.3652,2.3494,2.2756,2.3288,2.3904,2.2367,2.1081,2.0518,2.2064,2.2215,2.2064,2.2837,2.2987,2.2987,2.2987,2.3637,2.4003,2.3188,2.3637,2.3954,2.3138,2.3637,2.4073,2.3572,2.3169,2.2767,2.2346,2.1943,2.1687,2.1687,2.1687,2.1687,2.1687,2.1475,2.0974,2.0263,1.9428,1.8945,1.897,1.8486,1.8238,1.8376,1.8118,1.7432,1.6206,1.5918,1.5477,1.4866,1.5228,1.5228,1.4894,1.569,1.5811,2.3101,2.3101,2.3057,2.3101,2.3101,2.3101,2.3101,2.3101,2.3218,2.3691,2.4121,2.4551,2.5028,2.543,2.5693,2.5693,2.5693,2.5693,2.5693,2.6415,0.0,0.0,0.0,0.0,0.0,0.0,0.0,0.0,0.0,0.0,0.0,2.6989,2.6881,2.6591,2.6591,2.6591,2.6591,2.6591,2.6591,2.6591,2.6591,2.6591,2.6591,2.6591,2.6591,0.0,0.0,0.0,0.0,2.6591,2.6591,2.6591,2.6591,2.6591,2.6591,2.6591,2.6316,2.5735,2.4245,2.419,2.455,2.3009,2.3288,2.4202,2.4152,2.3388,2.2467,2.2467,2.3288,2.4152,2.4202,2.4202,2.4202,2.4202,2.4202,2.4202,2.4202,2.4202,2.4202,2.4202,2.4202,2.4073,2.3572,2.3169,2.2767,2.2346,2.1943,2.1687,2.1687,2.1687,2.1687,2.1687,2.1687,2.1522,2.1145,2.0307,1.9842,1.9889,1.9076,1.8819,1.9271,1.8439,1.7997,1.7957,1.7147,1.6698,1.6657,1.5809,1.585,1.6657,1.5794,1.5876,2.3101,2.3101,2.3101,2.3101,2.3101,2.3101,2.3101,2.3101,2.3218,2.3691,2.4121,2.4551,2.5028,2.543,2.5693,2.5693,2.5693,2.5693,0.0,0.0,0.0,0.0,0.0,0.0,0.0,0.0,0.0,0.0,0.0,0.0,0.0,2.726,2.7062,2.6591,2.6791,2.6791,2.6591,2.6791,2.6791,2.6591,2.6591,2.6591,2.6591,2.6591,0.0,0.0,0.0,0.0,0.0,2.6591,2.6591,2.6591,2.6591,2.6591,2.6591,2.6591,2.6499,2.628,2.5522,2.5229,2.5054,2.4296,2.414,2.4202,2.4202,2.3388,2.2485,2.2485,2.3338,2.4202,2.4202,2.4202,2.4202,2.4202,2.4202,2.4202,2.4202,2.4202,2.4202,2.4202,2.4202,2.4165,2.3987,2.362,2.3169,2.2767,2.2364,2.1998,2.1723,2.1687,2.1687,2.1687,2.1687,2.1632,2.1504,2.1011,2.0696,2.0698,2.0171,1.9846,1.971,1.9448,1.8899,1.7997,1.7715,1.731,1.6698,1.6412,1.6739,1.7594,1.731,1.731,2.3101,2.3101,2.3101,2.3101,2.3101,2.3101,2.3101,2.3101,2.3179,2.3496,2.3887,2.4316,2.4746,2.5176,2.5547,2.5654,2.5693,2.5752,0.0,0.0,0.0,0.0,0.0,0.0,0.0,0.0,0.0,0.0,0.0,0.0,0.0,2.7584,2.7387,2.6899,2.7043,2.7043,2.6899,2.7062,2.7062,2.6899,2.6791,2.6736,2.6736,2.6646,0.0,0.0,0.0,0.0,0.0,2.6646,2.6646,2.6736,2.6646,2.6591,2.6591,2.6591,2.6591,2.6518,2.6168,2.5764,2.5307,2.4904,2.4551,2.4202,2.4202,2.3687,2.3138,2.3138,2.3637,2.4202,2.4202,2.4202,2.4202,2.4202,2.4202,2.4202,2.4202,2.4202,2.4202,2.4202,2.4202,2.4202,2.4202,2.3822,2.3407,2.3169,2.2638,2.2181,2.1943,2.1778,2.1687,2.1687,2.1687,2.1687,2.1687,2.1449,2.1273,2.1126,2.0869,2.0558,2.0131,2.0113,1.9665,1.8725,1.8725,1.8394,1.7674,1.7674,1.7796,1.7997,1.7997,1.8158,0.0,2.3101,2.3101,2.3101,2.3101,2.3101,2.3101,2.3101,0.0,2.3101,2.3496,2.3926,2.4336,2.4766,2.5215,2.5615,2.5693,0.0,0.0,2.6777,0.0,0.0,0.0,0.0,0.0,0.0,0.0,0.0,0.0,0.0,0.0,2.7906,2.7799,2.7476,2.7476,2.7422,2.7368,2.7422,2.7422,2.7368,2.7152,2.7043,2.7043,2.6736,0.0,0.0,0.0,0.0,0.0,2.6736,2.6791,2.6989,2.6736,2.6646,2.6591,2.6591,2.6591,2.6536,2.6186,2.5782,2.5359,2.4867,2.4514,2.4202,2.4202,2.4202,2.4202,2.4202,2.4202,2.4202,2.4202,2.4202,2.4202,2.4202,2.4202,2.4202,2.4202,2.4202,2.4202,2.4202,2.4202,2.4202,2.4202,2.384,2.3535,2.3499,2.284,2.2346,2.2337,2.1961,2.1723,2.1705,2.1687,2.1687,2.1687,2.1687,2.1522,2.1181,2.1145,2.0979,2.0576,2.0558,2.0332,1.993,1.993,1.9787,1.9384,1.9384,1.8985,1.8164,1.8129,1.8571,2.3101,0.0,2.3101,2.3101,2.3101,2.3101,0.0,2.3101,2.3101,2.3101,2.3496,2.3926,2.4336,2.4766,2.5215,2.5615,0.0,0.0,0.0,0.0,0.0,0.0,0.0,0.0,0.0,0.0,0.0,0.0,0.0,0.0,0.0,2.8194,2.8174,2.8087,2.8087,2.7853,2.7368,2.7638,2.7638,2.7368,2.7314,2.7314,2.7314,2.7043,0.0,0.0,0.0,0.0,2.7314,2.7225,2.7098,2.6989,2.6935,2.6791,2.6591,2.6591,2.6591,2.6573,2.6481,2.5968,2.5304,2.4587,2.4275,2.4202,2.4202,2.4202,2.4202,2.4202,2.4202,2.4202,2.4202,2.4202,2.4202,2.4202,2.4202,2.4202,2.4202,2.4202,2.4202,2.4202,2.4202,2.4202,2.4202,2.4128,2.3895,2.3535,2.3334,2.2986,2.2364,2.2199,2.2034,2.1723,2.1687,2.1687,2.1687,2.1687,2.165,2.154,2.154,2.1401,2.0979,2.0961,2.0778,2.0393,2.0374,2.0296,2.0228,2.0228,2.0103,1.9937,1.9588,1.9566,2.3101,2.3101,2.3101,2.3101,2.3101,2.3101,2.3101,2.3101,2.3101,2.3101,2.3496,2.3926,2.4336,2.4766,2.5215,0.0,2.5693,0.0,0.0,0.0,0.0,0.0,0.0,0.0,0.0,0.0,0.0,0.0,0.0,0.0,0.0,2.8301,2.8301,2.8301,2.8301,2.814,2.7799,2.796,2.796,2.7799,2.7691,2.7638,2.7638,2.7314,2.726,0.0,0.0,0.0,2.7638,2.7476,2.7422,2.7422,2.726,2.7098,2.6954,2.6845,2.6845,2.6954,2.6845,2.6254,2.5441,2.4527,2.4202,2.4202,2.4202,2.4202,2.4202,2.4202,2.4202,2.4202,2.4202,2.4202,2.4202,2.4202,2.4202,2.4202,2.4202,2.4202,2.4202,2.4202,2.4202,2.4202,2.4202,2.4202,2.4128,2.3859,2.3608,2.3334,2.2895,2.251,2.2199,2.198,2.1931,2.1865,2.1865,2.1865,2.182,2.1687,2.1687,2.1595,2.1357,2.1401,2.12,2.0796,2.0613,2.0521,2.0521,2.0521,2.0521,2.0479,2.0301,2.0191,2.3101,2.3144,2.3144,2.3101,2.3101,2.3101,2.3101,2.3101,2.3101,2.3101,2.3496,2.3926,2.4336,2.4766,0.0,0.0,0.0,0.0,0.0,0.0,0.0,0.0,0.0,0.0,0.0,0.0,0.0,0.0,0.0,0.0,0.0,2.8301,2.8301,2.8301,2.8301,2.8301,2.8301,2.8301,2.8301,2.8301,2.8067,2.796,2.796,2.7638,2.7476,0.0,0.0,0.0,2.796,2.7638,2.7691,2.7853,2.7584,2.7422,2.7368,2.7152,2.7206,2.7368,2.7077,2.6464,2.5717,2.4683,2.4306,2.4251,2.4202,2.4202,2.4202,2.4202,2.4202,2.4202,2.4202,2.4202,2.4202,2.4202,2.4202,2.4202,2.4202,2.4202,2.4202,2.4202,2.4202,2.4202,2.4202,2.4202,2.4202,2.4202,2.3859,2.3572,2.3499,2.2895,2.2419,2.2291,2.2205,2.2162,2.2106,2.215,2.2043,2.182,2.1731,2.1687,2.1687,2.1687,2.1522,2.1218,2.0869,2.0662,2.0662,2.0662,2.0662,2.0662,2.0649,2.0613,2.3144,2.3276,2.3363,2.3144,2.3101,2.3101,2.3101,2.3101,2.3101,2.3101,2.3496,2.3926,2.4336,2.4766,2.5215,0.0,0.0,0.0,0.0,0.0,0.0,0.0,0.0,0.0,0.0,0.0,0.0,0.0,0.0,0.0,0.0,0.0,2.8301,2.8301,2.8301,2.8301,2.8301,2.8301,2.8301,2.8301,2.8247,2.8228,2.8247,2.796,2.796,0.0,0.0,2.796,2.8228,2.8174,2.8067,2.7906,2.7853,2.7638,2.7368,2.7368,2.7368,2.733,2.6971,2.6536,2.5994,2.5269,2.4777,2.443,2.4251,2.4202,2.4202,2.4202,2.4202,2.4202,2.4202,2.4202,2.4202,2.4202,2.4202,2.4202,2.4202,2.4202,2.4202,2.4202,2.4202,2.4202,2.4202,2.4202,2.4202,2.4202,2.4146,2.3932,2.3535,2.3389,2.3041,2.2346,2.251,2.246,2.2124,2.2264,2.2353,2.2309,2.1909,2.1687,2.1687,2.1687,2.1668,2.1595,2.154,2.1504,2.1504,2.1504,2.1504,2.1504,2.1181,2.1016,2.3363,2.3406,2.345,2.3188,2.3101,2.3101,2.3101,2.3276,2.3496,2.3496,2.4023,2.4531,2.4727,0.0,2.5566,2.6016,0.0,0.0,0.0,0.0,0.0,0.0,0.0,0.0,0.0,0.0,0.0,0.0,0.0,0.0,0.0,0.0,2.8301,2.8301,2.8301,2.8301,2.8301,2.8301,2.8301,2.8301,2.8301,2.8301,2.8301,2.8174,2.8174,2.8281,0.0,2.8194,2.8301,2.8301,2.8247,2.8121,2.8121,2.8014,2.7906,2.7906,2.7799,2.7634,2.7213,2.6793,2.6321,2.5648,2.5133,2.4677,2.443,2.4332,2.4332,2.4332,2.4301,2.4202,2.4202,2.4202,2.4202,2.4202,2.4202,2.4202,2.4202,2.4202,2.4202,2.4202,2.4202,2.4202,2.4202,2.4301,2.4332,2.4332,2.4498,2.4424,2.4091,2.3869,2.3592,2.3222,2.2963,2.2836,2.2801,2.2707,2.253,2.2264,2.2043,2.1865,2.1687,2.182,2.1909,2.1909,2.1998,2.1998,2.1909,2.1909,2.182,2.1687,2.1485,2.1394,2.358,2.358,2.358,2.3188,2.3101,2.3101,2.3101,2.3477,2.3789,2.3789,2.4473,2.5106,2.5106,2.5527,0.0,2.6465,0.0,0.0,0.0,0.0,0.0,0.0,0.0,0.0,0.0,0.0,0.0,0.0,0.0,0.0,0.0,0.0,2.8301,2.8301,2.8301,2.8301,2.8301,2.8301,2.8301,2.8301,2.8301,2.8301,2.8301,2.8301,2.8301,2.8301,2.8301,2.8301,2.8301,2.8301,2.8301,2.8301,2.8301,2.8301,2.8301,2.8301,2.8174,2.7975,2.7646,2.7201,2.6596,2.6015,2.5457,2.4941,2.4677,2.4578,2.4578,2.4578,2.4498,2.435,2.4301,2.4251,2.4251,2.4251,2.4251,2.4301,2.435,2.4301,2.4251,2.4251,2.4251,2.4202,2.4251,2.4399,2.4529,2.4578,2.4794,2.4843,2.4627,2.4317,2.4093,2.3999,2.3636,2.3412,2.3493,2.3133,2.2706,2.2264,2.215,2.2017,2.1776,2.1998,2.2106,2.2106,2.2309,2.2309,2.2106,2.2106,2.1954,2.1687,2.1687,2.1687,2.3624,2.3817,2.3991,2.3276,2.3101,2.3101,2.3101,2.3477,2.3789,2.3789,2.4473,2.5106,2.5106,2.5762,2.6484,0.0,0.0,0.0,0.0,0.0,0.0,0.0,0.0,0.0,0.0,0.0,0.0,0.0,0.0,0.0,0.0,0.0,0.0,2.8301,2.8301,2.8301,2.8301,2.8301,2.8301,2.8301,2.8301,2.8301,2.8301,2.8301,2.8301,2.8301,2.8301,2.8301,2.8301,2.8301,2.8301,2.8301,2.8301,2.8301,2.8301,2.8301,2.8301,2.8281,2.8262,2.7695,2.691,2.6615,2.5956,2.5235,2.4941,2.4873,2.4873,2.4873,2.4892,2.4794,2.4529,2.448,2.448,2.448,2.448,2.4529,2.4794,2.4627,2.448,2.448,2.435,2.4251,2.443,2.448,2.4578,2.4824,2.4892,2.4873,2.4873,2.4854,2.4703,2.4325,2.4469,2.4341,2.3822,2.3354,2.2969,2.275,2.2353,2.2087,2.2043,2.2106,2.2106,2.2106,2.2309,2.2309,2.2106,2.2106,2.1954,2.1687,2.1687,2.1687,2.4034,2.3927,2.3841,2.345,2.3428,2.3535,2.3535,2.3867,2.4258,2.4531,2.5059,2.5566,2.584,0.0,2.6621,0.0,0.0,0.0,0.0,0.0,0.0,0.0,0.0,0.0,0.0,0.0,0.0,0.0,0.0,0.0,0.0,0.0,0.0,2.8301,2.8301,2.8301,2.8301,2.8301,2.8301,2.8301,2.8301,2.8301,2.8301,2.8301,2.8301,2.8301,2.8301,2.8301,2.8301,2.8301,2.8301,2.8301,2.8301,2.8301,2.8301,2.8301,2.8301,2.8301,2.8301,2.7734,2.6961,2.6858,2.6276,2.5479,2.5235,2.5137,2.5137,2.5137,2.5137,2.5088,2.4843,2.4627,2.4529,2.4677,2.4627,2.4578,2.4843,2.4677,2.448,2.448,2.435,2.4251,2.448,2.4627,2.4843,2.5088,2.5284,2.5333,2.5186,2.5137,2.508,2.4927,2.4948,2.4633,2.3867,2.3633,2.3393,2.3033,2.2706,2.2441,2.2309,2.2441,2.253,2.253,2.275,2.275,2.253,2.253,2.2309,2.1972,2.1972,2.1865,2.4249,2.4077,2.3841,2.358,2.3698,2.3918,2.3945,2.4316,2.4707,2.5,2.5547,2.6035,2.6328,0.0,0.0,0.0,0.0,0.0,0.0,0.0,0.0,0.0,0.0,0.0,0.0,0.0,0.0,0.0,0.0,0.0,0.0,0.0,0.0,0.0,2.8301,2.8301,2.8301,2.8301,2.8301,2.8301,2.8301,2.8301,2.8301,2.8301,2.8301,2.8301,2.8301,2.8301,2.8301,2.8301,2.8301,2.8301,2.8301,2.8301,2.8301,2.8301,2.8301,2.8301,2.8301,2.7734,2.7012,2.7012,2.6426,2.5693,2.5479,2.543,2.543,2.543,2.543,2.5382,2.5186,2.4941,2.4775,2.499,2.4892,2.4843,2.5088,2.4941,2.4726,2.4726,2.4597,2.4498,2.4677,2.4892,2.5137,2.5382,2.5596,2.5645,2.543,2.543,2.543,2.543,2.5236,2.4871,2.4238,2.4062,2.3809,2.3379,2.3163,2.2928,2.253,2.2706,2.2794,2.2794,2.3013,2.3013,2.2794,2.2794,2.2574,2.2176,2.215,2.2017,2.4249,2.4206,2.4077,2.3644,2.383,2.4177,2.4362,2.4766,2.5106,2.5125,2.583,2.6387,2.6387,2.709,0.0,0.0,0.0,0.0,0.0,0.0,0.0,0.0,0.0,0.0,0.0,0.0,0.0,0.0,0.0,0.0,0.0,0.0,0.0,0.0,2.8301,2.8301,2.8301,2.8301,2.8301,2.8301,2.8301,2.8301,2.8301,2.8301,2.8301,2.8301,2.8301,2.8301,2.8301,2.8301,2.8301,2.8301,2.8301,2.8301,2.8301,2.8301,2.8301,2.8301,2.8301,2.7734,2.7012,2.7012,2.6426,2.5693,2.5693,2.5693,2.5693,2.5693,2.5693,2.5693,2.5693,2.5479,2.5284,2.5284,2.5284,2.5382,2.5645,2.5499,2.5284,2.5284,2.5088,2.499,2.5235,2.5284,2.5382,2.5645,2.5693,2.5693,2.5693,2.5693,2.5693,2.5693,2.5332,2.5125,2.5106,2.4668,2.4238,2.3828,2.3789,2.3504,2.2813,2.2794,2.2794,2.2794,2.3013,2.3013,2.2794,2.2794,2.2662,2.2397,2.2176,2.2106,2.4421,2.4143,2.3964,2.4155,2.4286,2.4428,2.4832,2.5028,2.5156,2.5469,2.5996,2.6484,2.6777,0.0,0.0,0.0,0.0,0.0,0.0,0.0,0.0,0.0,0.0,0.0,0.0,0.0,0.0,0.0,0.0,0.0,0.0,0.0,0.0,0.0,2.8301,2.8301,2.8301,2.8301,2.8301,2.8301,2.8301,2.8301,2.8301,2.8301,2.8301,2.8301,2.8301,2.8301,2.8301,2.8301,2.8301,2.8301,2.8301,2.8301,2.8301,2.8301,2.8301,2.8301,2.8301,2.7734,2.7012,2.7012,2.6426,2.5693,2.5693,2.5693,2.5693,2.5693,2.5693,2.5693,2.5693,2.5645,2.5596,2.5596,2.543,2.5382,2.5645,2.5499,2.5284,2.5284,2.5088,2.499,2.5235,2.5284,2.5382,2.5645,2.5693,2.5693,2.5693,2.5693,2.5693,2.5693,2.5577,2.541,2.5145,2.4941,2.4687,2.4258,2.4238,2.3861,2.3033,2.3013,2.3013,2.3013,2.3057,2.3057,2.3013,2.3013,2.2882,2.2662,2.2618,2.2416,2.4507,2.4143,2.3941,2.4537,2.4711,2.4868,2.5385,2.5428,2.5469,2.5898,2.6328,2.6758,2.7187,2.7617,0.0,0.0,0.0,0.0,0.0,0.0,0.0,0.0,0.0,0.0,0.0,0.0,0.0,0.0,0.0,0.0,0.0,0.0,0.0,0.0,2.8301,2.8301,2.8301,2.8301,2.8301,2.8301,2.8301,2.8301,2.8301,2.8301,2.8301,2.8301,2.8301,2.8301,2.8301,2.8301,2.8301,2.8301,2.8301,2.8301,2.8301,2.8301,2.8301,2.8301,2.8301,2.7734,2.7012,2.7012,2.6426,2.5693,2.5693,2.5693,2.5693,2.5693,2.5693,2.5693,2.5693,2.5693,2.5693,2.5693,2.5596,2.5479,2.5693,2.5577,2.543,2.543,2.5333,2.5284,2.543,2.543,2.5479,2.5693,2.5693,2.5693,2.5693,2.5693,2.5693,2.5693,2.5693,2.5577,2.5352,2.5332,2.5137,2.4707,2.4668,2.4375,2.3627,2.3432,2.3276,2.3101,2.3101,2.3101,2.3101,2.3101,2.3057,2.2925,2.2838,2.2662,2.4572,2.4229,2.4005,2.4774,2.5128,2.5418,2.6008,2.5917,2.581,2.6289,0.0,2.7148,2.763,0.0,0.0,0.0,0.0,0.0,0.0,0.0,0.0,0.0,0.0,0.0,0.0,0.0,0.0,0.0,0.0,0.0,0.0,0.0,0.0,0.0,2.8301,2.8301,2.8301,2.8301,2.8301,0.0,2.8301,2.8301,2.8301,2.8301,2.8301,2.8301,2.8301,2.8301,2.8301,2.8301,2.8301,2.8301,2.8301,2.8301,2.8301,2.8301,2.8301,2.8301,2.8301,2.7734,2.7012,2.7012,2.6426,2.5693,2.5693,2.5693,2.5693,2.5693,2.5693,2.5693,2.5693,2.5693,2.5693,2.5693,2.5693,2.5693,2.5693,2.5693,2.5693,2.5693,2.5693,2.5693,2.5693,2.5693,2.5693,2.5693,2.5693,2.5693,2.5693,2.5693,2.5693,2.5693,2.5693,2.5693,2.5693,2.5693,2.5566,2.5156,2.5137,2.4941,2.4492,2.4062,2.3652,2.3218,2.3218,2.3218,2.3218,2.3179,2.3159,2.3159,2.2945,2.2794,2.5505,2.485,2.4303,2.5162,2.5631,2.6016,2.636,2.6014,2.581,2.6289,2.6719,2.7148,0.0,0.0,0.0,0.0,0.0,0.0,0.0,0.0,0.0,0.0,0.0,0.0,0.0,0.0,0.0,0.0,0.0,0.0,0.0,0.0,0.0,2.8301,2.8301,2.8301,2.8301,2.8301,2.8301,0.0,2.8301,2.8301,2.8301,2.8301,2.8301,2.8301,2.8301,2.8301,2.8301,2.8301,2.8301,2.8301,2.8301,2.8301,2.8301,2.8301,2.8301,2.8301,2.8301,2.7734,2.7012,2.7012,2.6426,2.5693,2.5693,2.5693,2.5693,2.5693,2.5693,2.5693,2.5693,2.5693,2.5693,2.5693,2.5693,2.5693,2.5693,2.5693,2.5693,2.5693,2.5693,2.5693,2.5693,2.5693,2.5693,2.5693,2.5693,2.5693,2.5693,2.5693,2.5693,2.5693,2.5693,2.5693,2.5693,2.5693,2.5654,2.5605,2.5586,2.5391,2.4941,2.4512,2.4238,2.4095,2.4095,2.4095,2.4095,2.3809,2.3652,2.3633,2.3213,2.2969,2.5902,2.5508,2.5286,2.5908,2.6276,2.6496,2.664,2.6372,2.626,2.6793,2.6957,0.0,0.0,0.0,0.0,0.0,0.0,0.0,0.0,0.0,0.0,0.0,0.0,0.0,0.0,0.0,0.0,0.0,0.0,0.0,0.0,2.8301,2.8301,2.8301,2.8301,2.8301,2.8301,2.8301,2.8301,2.8301,2.8301,2.8301,2.8301,2.8301,2.8301,2.8301,2.8301,2.8301,2.8301,2.8301,2.8301,2.8301,2.8301,2.8301,2.8301,2.8301,2.8301,2.8301,2.8301,2.7734,2.7012,2.7012,2.6426,2.5693,2.5693,2.5693,2.5693,2.5693,2.5693,2.5693,2.5693,2.5693,2.5693,2.5693,2.5693,2.5693,2.5693,2.5693,2.5693,2.5693,2.5693,2.5693,2.5693,2.5693,2.5693,2.5693,2.5693,2.5693,2.5693,2.5693,2.5693,2.5693,2.5693,2.5693,2.5693,2.5693,2.5693,2.5693,2.5693,2.5625,2.5391,2.5176,2.4844,2.4414,2.4414,2.4414,2.4414,2.4199,2.4102,2.4082,2.3652,2.3368,2.6423,2.6319,2.6409,2.6581,2.6742,2.69,2.6948,2.6757,2.6689,2.7372,0.0,0.0,0.0,0.0,0.0,0.0,0.0,0.0,0.0,0.0,0.0,0.0,0.0,0.0,0.0,0.0,0.0,0.0,0.0,0.0,2.8301,2.8301,2.8301,2.8301,2.8301,2.8301,2.8301,2.8301,2.8301,2.8301,2.8301,2.8301,2.8301,2.8301,2.8301,2.8301,2.8301,2.8301,2.8301,2.8301,2.8301,2.8301,2.8301,2.8301,2.8301,2.8301,2.8301,2.8301,2.8301,2.7734,2.7012,2.7012,2.6426,2.5693,2.5693,2.5693,2.5693,2.5693,2.5693,2.5693,2.5693,2.5693,2.5693,2.5693,2.5693,2.5693,2.5693,2.5693,2.5693,2.5693,2.5693,2.5693,2.5693,2.5693,2.5693,2.5693,2.5693,2.5693,2.5693,2.5693,2.5693,2.5693,2.5693,2.5693,2.5693,2.5693,2.5693,2.5693,2.5693,2.5693,2.5693,2.5693,2.5343,2.4668,2.4602,2.4602,2.4602,2.457,2.4531,2.4512,2.4102,2.3906,2.829,2.7619,2.7016,2.6664,2.6742,2.6948,0.0,0.0,2.6806,0.0,0.0,0.0,0.0,0.0,0.0,0.0,0.0,0.0,0.0,0.0,0.0,0.0,0.0,0.0,0.0,0.0,0.0,0.0,0.0,0.0,2.8301,2.8301,2.8301,2.8301,2.8301,2.8301,2.8301,2.8301,2.8301,2.8301,2.8301,2.8301,2.8301,2.8301,2.8301,2.8301,2.8301,2.8301,2.8301,2.8301,2.8301,2.8301,2.8301,2.8301,2.8301,2.8301,2.8301,2.8301,2.8301,2.7734,2.7012,2.7012,2.6426,2.5693,2.5693,2.5693,2.5693,2.5693,2.5693,2.5693,2.5693,2.5693,2.5693,2.5693,2.5693,2.5693,2.5693,2.5693,2.5693,2.5693,2.5693,2.5693,2.5693,2.5693,2.5693,2.5693,2.5693,2.5693,2.5693,2.5693,2.5693,2.5693,2.5693,2.5693,2.5693,2.5693,2.5693,2.5693,2.5693,2.5693,2.5693,2.5693,2.5635,2.5518,2.5518,2.5518,2.5518,2.5176,2.5028,2.5028,2.4531,2.4336,2.9248,2.829,2.7536,2.7108,2.707,2.7167,2.7262,2.7119,2.7194,0.0,0.0,0.0,0.0,0.0,0.0,0.0,0.0,0.0,0.0,0.0,0.0,0.0,0.0,0.0,0.0,0.0,0.0,0.0,0.0,2.8301,2.8301,2.8301,2.8301,2.8301,2.8301,2.8301,2.8301,2.8301,2.8301,2.8301,2.8301,2.8301,2.8301,2.8301,2.8301,2.8301,2.8301,2.8301,2.8301,2.8301,2.8301,2.8301,2.8301,2.8301,2.8301,2.8301,2.8301,2.8301,2.8301,2.7734,2.7012,2.7012,2.6426,2.5693,2.5693,2.5693,2.5693,2.5693,2.5693,2.5693,2.5693,2.5693,2.5693,2.5693,2.5693,2.5693,2.5693,2.5693,2.5693,2.5693,2.5693,2.5693,2.5693,2.5693,2.5693,2.5693,2.5693,2.5693,2.5693,2.5693,2.5693,2.5693,2.5693,2.5693,2.5693,2.5693,2.5693,2.5693,2.5693,2.5693,2.5693,2.5693,2.5693,2.5693,2.5693,2.5693,2.5693,2.5527,2.5449,2.543,2.498,2.4785,2.9993,2.9235,2.8565,2.7823,2.7668,2.7573,0.0,0.0,0.0,0.0,0.0,0.0,0.0,0.0,0.0,0.0,0.0,0.0,0.0,0.0,0.0,0.0,0.0,0.0,0.0,0.0,0.0,0.0,0.0,2.8301,2.8301,2.8301,2.8301,2.8301,2.8301,2.8301,2.8301,2.8301,2.8301,2.8301,2.8301,2.8301,2.8301,2.8301,2.8301,2.8301,2.8301,2.8301,2.8301,2.8301,2.8301,2.8301,2.8301,2.8301,2.8301,2.8301,2.8301,2.8301,2.8301,2.7812,2.7168,2.7051,2.6504,2.5879,2.5732,2.5693,2.5693,2.5693,2.5693,2.5693,2.5693,2.5693,2.5693,2.5693,2.5693,2.5693,2.5693,2.5693,2.5693,2.5693,2.5693,2.5693,2.5693,2.5693,2.5693,2.5693,2.5693,2.5693,2.5693,2.5693,2.5693,2.5693,2.5693,2.5693,2.5693,2.5693,2.5693,2.5693,2.5693,2.5693,2.5693,2.5693,2.5693,2.5693,2.5693,2.5693,2.5693,2.5693,2.5693,2.5674,2.5391,2.5234,3.0858,3.0702,3.0343,2.8962,2.8631,2.8398,0.0,0.0,0.0,0.0,0.0,0.0,0.0,0.0,0.0,0.0,0.0,0.0,0.0,0.0,0.0,0.0,0.0,0.0,0.0,0.0,0.0,0.0,0.0,2.8301,2.8301,2.8301,2.8301,2.8301,2.8301,2.8301,2.8301,2.8301,2.8301,2.8301,2.8301,2.8301,2.8301,2.8301,2.8301,2.8301,2.8301,2.8301,2.8301,2.8301,2.8301,2.8301,2.8301,2.8301,2.8301,2.8301,2.8301,2.8301,2.8301,2.8008,2.7559,2.7148,2.6719,2.6269,2.581,2.5693,2.5693,2.5693,2.5693,2.5693,2.5693,2.5693,2.5693,2.5693,2.5693,2.5693,2.5693,2.5693,2.5693,2.5693,2.5693,2.5693,2.5693,2.5693,2.5693,2.5693,2.5693,2.5693,2.5693,2.5693,2.5693,2.5693,2.5693,2.5693,2.5693,2.5693,2.5693,2.5693,2.5693,2.5693,2.5693,2.5693,2.5693,2.5693,2.5693,2.5693,2.5693,2.5693,2.5693,2.5693,2.5674,2.5654,3.1506,3.1292,3.1032,2.9943,2.9669,2.9578,2.9211,0.0,0.0,0.0,0.0,0.0,0.0,0.0,0.0,0.0,0.0,0.0,0.0,0.0,0.0,0.0,0.0,0.0,0.0,0.0,0.0,0.0,0.0,0.0,2.8301,2.8301,2.8301,2.8301,2.8301,2.8301,2.8301,2.8301,2.8301,2.8301,2.8301,2.8301,2.8301,2.8301,2.8301,2.8301,2.8301,2.8301,2.8301,2.8301,2.8301,2.8301,2.8301,2.8301,2.8301,2.8301,2.8301,2.8301,2.8301,2.8027,2.7598,2.7148,2.6738,2.6309,2.581,2.5693,2.5693,2.5693,2.5693,2.5693,2.5693,2.5693,2.5693,2.5693,2.5693,2.5693,2.5693,2.5693,2.5693,2.5693,2.5693,2.5693,2.5693,2.5693,2.5693,2.5693,2.5693,2.5693,2.5693,2.5693,2.5693,2.5693,2.5693,2.5693,2.5693,2.5693,2.5693,2.5693,2.5693,2.5693,2.5693,2.5693,2.5693,2.5693,2.5693,2.5693,2.5693,2.5693,2.5693,2.5693,2.5693,2.5693,3.2264,3.2133,3.1845,3.089,3.0666,3.0576,3.026,0.0,0.0,0.0,0.0,0.0,0.0,0.0,0.0,0.0,0.0,0.0,0.0,0.0,0.0,0.0,0.0,0.0,0.0,0.0,0.0,0.0,0.0,0.0,2.8301,2.8301,2.8301,2.8301,2.8301,2.8301,2.8301,2.8301,2.8301,2.8301,2.8301,2.8301,2.8301,2.8301,2.8301,2.8301,2.8301,2.8301,2.8301,2.8301,2.8301,2.8301,2.8301,2.8301,2.8301,2.8301,2.8301,2.8301,2.8301,2.8105,2.7812,2.7383,2.6953,2.6523,2.6094,2.581,2.5693,2.5693,2.5693,2.5693,2.5693,2.5693,2.5693,2.5693,2.5693,2.5693,2.5693,2.5693,2.5693,2.5693,2.5693,2.5693,2.5693,2.5693,2.5693,2.5693,2.5693,2.5693,2.5693,2.5693,2.5693,2.5693,2.5693,2.5693,2.5693,2.5693,2.5693,2.5693,2.5693,2.5693,2.5693,2.5693,2.5693,2.5693,2.5693,2.5693,2.5693,2.5693,2.5693,2.5693,2.5693,2.5693,0.0,0.0,0.0,3.1889,0.0,0.0,3.0486,0.0,0.0,0.0,0.0,0.0,0.0,0.0,0.0,0.0,0.0,0.0,0.0,0.0,0.0,0.0,0.0,0.0,0.0,0.0,0.0,0.0,0.0,2.8301,2.8301,2.8301,2.8301,2.8301,2.8301,2.8301,2.8301,2.8301,2.8301,2.8301,2.8301,2.8301,2.8301,2.8301,2.8301,2.8301,2.8301,2.8301,2.8301,2.8301,2.8301,2.8301,2.8301,2.8301,2.8301,2.8301,2.8301,2.8301,2.8301,2.8301,2.8223,2.7865,2.7363,2.6934,2.6523,2.6074,2.5693,2.5693,2.5693,2.5693,2.5693,2.5693,2.5693,2.5693,2.5693,2.5693,2.5693,2.5693,2.5693,2.5693,2.5693,2.5693,2.5693,2.5693,2.5693,2.5693,2.5693,2.5693,2.5693,2.5693,2.5693,2.5693,2.5693,2.5693,2.5693,2.5693,2.5693,2.5693,2.5693,2.5693,2.5693,2.5693,2.5693,2.5693,2.5693,2.5693,2.5693,2.5693,2.5693,2.5693,2.5693,2.5693,3.3111,0.0,0.0,0.0,0.0,0.0,3.2351,3.2307,0.0,0.0,0.0,0.0,0.0,0.0,0.0,0.0,0.0,0.0,0.0,0.0,0.0,0.0,0.0,0.0,0.0,0.0,0.0,0.0,2.8301,2.8301,2.8301,2.8301,2.8301,2.8301,2.8301,2.8301,2.8301,2.8301,2.8301,2.8301,2.8301,2.8301,2.8301,2.8301,2.8301,2.8301,2.8301,2.8301,2.8301,2.8301,2.8301,2.8301,2.8301,2.8301,2.8301,2.8301,2.8301,2.8301,2.8301,2.8301,2.8223,2.7865,2.7363,2.6934,2.6523,2.6074,2.5693,2.5693,2.5693,2.5693,2.5693,2.5693,2.5693,2.5693,2.5693,2.5693,2.5693,2.5693,2.5693,2.5693,2.5693,2.5693,2.5693,2.5693,2.5693,2.5693,2.5693,2.5693,2.5693,2.5693,2.5693,2.5693,2.5693,2.5693,2.5693,2.5693,2.5693,2.5693,2.5693,2.5693,2.5693,2.5693,2.5693,2.5693,2.5693,2.5693,2.5693,2.5693,2.5693,2.5693,2.5693,2.5693,3.3111,3.3111,3.3111,3.3111,0.0,0.0,3.3111,3.3111,3.3111,0.0,0.0,0.0,0.0,0.0,0.0,0.0,0.0,0.0,0.0,0.0,0.0,0.0,0.0,0.0,0.0,0.0,0.0,2.9355,2.9197,2.89,2.8354,2.8301,2.8301,2.8301,2.8301,2.8301,2.8301,2.8301,2.8301,2.8301,2.8301,2.8301,2.8301,2.8301,2.8301,2.8301,2.8301,2.8301,2.8301,2.8301,2.8301,2.8301,2.8301,2.8301,2.8301,2.8301,2.8301,2.8301,2.8301,2.8301,2.8262,2.8008,2.7637,2.7207,2.6777,2.6348,2.5977,2.5752,2.5693,2.5693,2.5693,2.5693,2.5693,2.5693,2.5693,2.5693,2.5693,2.5693,2.5693,2.5693,2.5693,2.5693,2.5693,2.5693,2.5693,2.5693,2.5693,2.5693,2.5693,2.5693,2.5693,2.5693,2.5693,2.5693,2.5693,2.5693,2.5693,2.5693,2.5693,2.5693,2.5693,2.5693,2.5693,2.5693,2.5693,2.5693,2.5693,2.5693,2.5693,2.5693,2.5693,2.5693,3.3111,3.3111,3.3111,3.3111,3.3111,0.0,3.3111,3.3111,3.3111,0.0,0.0,0.0,0.0,0.0,0.0,0.0,0.0,0.0,0.0,0.0,0.0,0.0,0.0,0.0,0.0,3.1563,3.0944,3.079,3.0627,2.9964,2.8601,2.8548,2.8441,2.8354,2.8354,2.8354,2.8388,2.8354,2.8354,2.8354,2.8281,2.8301,2.8301,2.8301,2.8301,2.8301,2.8301,2.8301,2.8301,2.8301,2.8301,2.8301,2.8301,2.8301,2.8301,2.8301,2.8301,2.8301,2.8301,2.8301,2.8301,2.8301,2.8008,2.7598,2.7207,2.6758,2.6289,2.581,2.5693,2.5693,2.5693,2.5693,2.5693,2.5693,2.5693,2.5693,2.5693,2.5693,2.5693,2.5693,2.5693,2.5693,2.5693,2.5693,2.5693,2.5693,2.5693,2.5693,2.5693,2.5693,2.5693,2.5693,2.5693,2.5693,2.5693,2.5693,2.5693,2.5693,2.5693,2.5693,2.5693,2.5693,2.5693,2.5693,2.5693,2.5693,2.5693,2.5693,2.5693,2.5693,2.5693,2.5693,0.0,0.0,0.0,0.0,0.0,0.0,3.3111,3.3111,3.3111,0.0,0.0,0.0,0.0,0.0,0.0,0.0,0.0,0.0,0.0,0.0,0.0,0.0,0.0,0.0,0.0,3.2836,3.2486,3.1451,3.1705,3.1316,2.9964,2.9911,2.9513,2.8674,2.8621,2.8727,2.892,2.8727,2.8621,2.8621,2.8408,2.8301,2.8301,2.8301,2.8301,2.8301,2.8301,2.8301,2.8301,2.8301,2.8301,2.8301,2.8301,2.8301,2.8301,2.8301,2.8301,2.8301,2.8301,2.8301,2.8301,2.8301,2.8008,2.7708,2.7559,2.7012,2.6289,2.581,2.5693,2.5693,2.5693,2.5693,2.5693,2.5693,2.5693,2.5693,2.5693,2.5693,2.5693,2.5693,2.5693,2.5693,2.5693,2.5693,2.5693,2.5693,2.5693,2.5693,2.5693,2.5693,2.5693,2.5693,2.5693,2.5693,2.5693,2.5693,2.5693,2.5693,2.5693,2.5693,2.5693,2.5693,2.5693,2.5693,2.5693,2.5693,2.5693,2.5693,2.5693,2.5693,2.5693,2.5693,0.0,0.0,0.0,3.3111,0.0,0.0,0.0,3.3111,3.3111,0.0,0.0,0.0,0.0,0.0,0.0,0.0,0.0,0.0,0.0,0.0,0.0,0.0,0.0,0.0,0.0,3.3475,3.3102,3.252,3.226,3.1611,3.0545,3.0514,3.0016,2.892,2.8887,2.8973,2.9079,2.8973,2.8887,2.8887,2.8761,2.8708,2.8708,2.8568,2.8514,2.8514,2.8354,2.8301,2.8281,2.8461,2.8761,2.9059,2.8495,2.8301,2.8301,2.8301,2.8654,2.9006,2.8495,2.8654,2.9006,2.8441,2.8144,2.793,2.7787,2.707,2.6388,2.6452,2.611,2.5839,2.6332,2.6091,2.5693,2.5693,2.5693,2.5693,2.5693,2.5693,2.5693,2.5693,2.5693,2.5693,2.5693,2.5693,2.5693,2.5693,2.5693,2.5693,2.5693,2.5693,2.5693,2.5693,2.5693,2.5693,2.5693,2.5693,2.5693,2.5693,2.5693,2.5693,2.5693,2.5693,2.5693,2.5693,2.5693,2.5693,2.5693,2.5693,2.5693,2.5693,2.5693,2.5693,0.0,0.0,0.0,0.0,0.0,3.3219,0.0,0.0,0.0,0.0,0.0,0.0,0.0,0.0,0.0,0.0,0.0,0.0,0.0,0.0,0.0,0.0,0.0,0.0,0.0,3.3682,3.3375,3.3718,3.2934,3.2101,3.1266,3.1033,3.0481,2.9533,2.929,2.9237,2.929,2.9237,2.9185,2.9185,2.9323,2.9428,2.9428,2.9375,2.9375,2.9375,2.8953,2.8741,2.8741,2.8761,2.927,2.9911,2.8814,2.8441,2.8601,2.8408,2.9006,2.9775,2.89,2.9323,3.0037,2.8953,2.8441,2.8276,2.8088,2.7314,2.6655,2.7421,2.6709,2.5917,2.6962,2.6456,2.5742,2.5965,2.582,2.5742,2.5965,2.582,2.5693,2.5693,2.5693,2.5693,2.5693,2.5693,2.5693,2.5693,2.5693,2.5693,2.5693,2.5693,2.5693,2.5693,2.5693,2.5693,2.5693,2.5693,2.5693,2.5693,2.5693,2.5693,2.5693,2.5693,2.5693,2.5693,2.5693,2.5693,2.5693,2.5693,2.5693,2.5693,2.5693,2.5693,0.0,0.0,0.0,0.0,3.3796,0.0,0.0,0.0,0.0,0.0,0.0,0.0,0.0,0.0,0.0,0.0,0.0,0.0,0.0,0.0,0.0,0.0,0.0,0.0,0.0,0.0,3.402,3.4524,3.4438,3.4037,3.3241,3.2271,3.1506,3.097,3.0057,2.9659,2.9889,2.9659,2.9554,2.9554,3.0224,3.0514,3.0566,3.1469,3.1876,3.1825,3.0876,3.0411,3.0359,2.9428,2.967,3.0463,2.9185,2.9079,2.9618,2.8654,2.9006,2.9859,2.9775,3.0432,3.1227,3.0089,2.9059,2.8416,2.8951,2.8075,2.724,2.8818,2.7531,2.5917,2.6962,2.6456,2.5917,2.6819,2.638,2.5965,2.6819,2.6332,2.5693,2.5693,2.5693,2.5693,2.5693,2.5693,2.5693,2.5693,2.5693,2.5693,2.5693,2.5693,2.5693,2.5693,2.5693,2.5693,2.5693,2.5693,2.5693,2.5693,2.5693,2.5693,2.5693,2.5693,2.5693,2.5693,2.5693,2.5693,2.5693,2.5693,2.5693,2.5693,2.5693,2.5693,0.0,0.0,0.0,0.0,0.0,0.0,3.4073,0.0,3.3545,0.0,0.0,0.0,0.0,0.0,0.0,0.0,0.0,0.0,0.0,0.0,0.0,0.0,0.0,0.0,0.0,0.0,0.0,0.0,0.0,3.3954,3.3289,3.3172,3.2755,3.19,3.1737,3.1739,3.1863,3.1739,3.1688,3.1688,3.2022,3.2151,3.2151,3.2454,3.2605,3.2555,3.1927,3.1622,3.1571,3.0691,3.1206,3.2454,3.0815,3.0557,3.1,2.988,3.0484,3.1666,3.0535,3.1206,3.2224,3.0484,2.9618,2.9242,2.9291,2.8819,2.8482,2.9257,2.8721,2.7935,2.8066,2.7342,2.6696,2.7105,2.6867,2.6552,2.636,2.6456,2.6428,2.582,2.5693,2.5693,2.5693,2.5693,2.5693,2.5693,2.5693,2.5693,2.5693,2.5693,2.5693,2.5693,2.5693,2.5693,2.5693,2.5693,2.5693,2.5693,2.5693,2.5693,2.5693,2.5693,2.5693,2.5693,2.5693,2.5693,2.5693,2.5693,2.5693,2.5693,2.5693,2.5693,3.5278,0.0,0.0,0.0,0.0,0.0,0.0,0.0,0.0,0.0,0.0,0.0,0.0,0.0,0.0,3.3111,0.0,0.0,0.0,0.0,0.0,0.0,0.0,0.0,0.0,0.0,0.0,0.0,0.0,0.0,3.3314,3.3617,3.3458,3.288,3.3096,3.3201,3.3201,3.3201,3.3201,3.3201,3.3499,3.3648,3.3648,3.3723,3.3822,3.3749,3.3204,3.3005,3.2905,3.2072,3.2728,3.4091,3.2728,3.2577,3.2928,3.1338,3.1869,3.3101,3.1695,3.2123,3.3051,3.1462,3.0432,2.9901,2.995,2.9659,2.9379,2.9721,2.9585,2.9176,2.8914,2.8147,2.744,2.76,2.7605,2.7416,2.6696,2.6887,2.6962,2.6235,2.5868,2.5693,2.5693,2.5693,2.5693,2.5693,2.5693,2.5693,2.5693,2.5693,2.5693,2.5693,2.5693,2.5693,2.5693,2.5693,2.5693,2.5693,2.5693,2.5693,2.5693,2.5693,2.582,2.6091,2.582,2.582,2.6091,2.582,2.5693,2.5693,2.5693,2.5693,0.0,0.0,0.0,3.5608,0.0,0.0,0.0,0.0,3.455,0.0,0.0,0.0,0.0,0.0,3.3111,3.3111,3.3111,0.0,0.0,0.0,0.0,0.0,0.0,0.0,0.0,0.0,0.0,0.0,0.0,0.0,3.3853,3.3381,3.3382,3.3934,3.3466,3.3201,3.3201,3.3201,3.3201,3.3201,3.4239,3.4727,3.4775,3.581,3.631,3.6216,3.5162,3.4727,3.4629,3.3549,3.3796,3.4775,3.4727,3.5187,3.5548,3.2928,3.2627,3.3598,3.3499,3.3549,3.3598,3.3499,3.1869,3.012,3.1206,3.0474,2.9504,3.0471,2.9728,2.8739,2.9176,2.8609,2.8021,2.851,2.8634,2.8634,2.8634,2.784,2.7179,2.7132,2.638,2.5693,2.5693,2.5693,2.5693,2.5693,2.5693,2.5693,2.5693,2.5693,2.5693,2.5693,2.5693,2.5693,2.5693,2.5693,2.5693,2.5693,2.5693,2.5693,2.5693,2.5693,2.6139,2.7152,2.6187,2.6187,2.7152,2.6187,2.5693,2.5693,2.5693,2.5693,0.0,0.0,3.6355,3.6132,0.0,0.0,0.0,0.0,0.0,0.0,0.0,0.0,0.0,0.0,3.3495,3.3187,3.3111,3.3111,0.0,0.0,0.0,0.0,0.0,0.0,0.0,0.0,0.0,0.0,0.0,0.0,0.0,3.3886,3.423,3.4474,3.501,3.5331,3.5331,3.5331,3.5331,3.5331,3.5667,3.5858,3.5858,3.6216,3.6405,3.6358,3.6026,3.5858,3.5763,3.4678,3.4872,3.5763,3.5066,3.5379,3.6026,3.4239,3.4141,3.4896,3.4896,3.5066,3.5066,3.4141,3.3178,3.2275,3.1971,3.186,3.1762,3.1052,3.1475,3.1979,3.1142,3.0449,3.0016,3.0165,2.9964,2.951,2.8866,2.8958,2.8773,2.7463,2.6914,2.6456,2.582,2.5693,2.5693,2.5693,2.5693,2.5693,2.5693,2.5693,2.5693,2.5693,2.5693,2.5693,2.5693,2.5693,2.5693,2.5693,2.5693,2.5693,2.5693,2.5693,2.5868,2.6187,2.6552,2.6867,2.7179,2.6867,2.6696,2.6696,2.6014,2.5693,3.6707,3.6556,0.0,3.6405,3.6405,0.0,3.6405,0.0,0.0,0.0,0.0,0.0,0.0,0.0,3.3796,3.342,3.3194,3.3111,0.0,3.3111,0.0,0.0,0.0,0.0,0.0,0.0,0.0,0.0,3.3111,0.0,0.0,0.0,3.4525,3.468,3.5604,3.6157,3.6405,3.6405,3.6405,3.6405,3.6405,3.6405,3.6405,3.6405,3.6405,3.6405,3.6405,3.6405,3.6358,3.5667,3.5763,3.631,3.5619,3.5763,3.6263,3.5331,3.5307,3.5716,3.5716,3.586,3.586,3.4993,3.4239,3.3598,3.2828,3.2951,3.2986,3.1346,3.2215,3.3407,3.2083,3.1593,3.1456,3.1319,3.1159,3.0742,2.9756,2.9874,2.9806,2.8541,2.7981,2.7416,2.6428,2.6235,2.6091,2.5742,2.5693,2.5693,2.5693,2.5693,2.5693,2.5693,2.5693,2.5693,2.5693,2.5693,2.5693,2.5693,2.5693,2.5693,2.5693,2.5693,2.5947,2.6495,2.6605,2.7092,2.7952,2.7452,2.7369,2.7699,2.7057,2.6572]}]]